﻿<?xml version="1.0" encoding="utf-8"?><gpx creator="Garmin Desktop App" version="1.1" xsi:schemaLocation="http://www.topografix.com/GPX/1/1 http://www.topografix.com/GPX/1/1/gpx.xsd http://www.garmin.com/xmlschemas/WaypointExtension/v1 http://www8.garmin.com/xmlschemas/WaypointExtensionv1.xsd http://www.garmin.com/xmlschemas/TrackPointExtension/v1 http://www.garmin.com/xmlschemas/TrackPointExtensionv1.xsd http://www.garmin.com/xmlschemas/GpxExtensions/v3 http://www8.garmin.com/xmlschemas/GpxExtensionsv3.xsd http://www.garmin.com/xmlschemas/ActivityExtension/v1 http://www8.garmin.com/xmlschemas/ActivityExtensionv1.xsd http://www.garmin.com/xmlschemas/AdventuresExtensions/v1 http://www8.garmin.com/xmlschemas/AdventuresExtensionv1.xsd http://www.garmin.com/xmlschemas/PressureExtension/v1 http://www.garmin.com/xmlschemas/PressureExtensionv1.xsd http://www.garmin.com/xmlschemas/TripExtensions/v1 http://www.garmin.com/xmlschemas/TripExtensionsv1.xsd http://www.garmin.com/xmlschemas/TripMetaDataExtensions/v1 http://www.garmin.com/xmlschemas/TripMetaDataExtensionsv1.xsd http://www.garmin.com/xmlschemas/ViaPointTransportationModeExtensions/v1 http://www.garmin.com/xmlschemas/ViaPointTransportationModeExtensionsv1.xsd http://www.garmin.com/xmlschemas/CreationTimeExtension/v1 http://www.garmin.com/xmlschemas/CreationTimeExtensionsv1.xsd http://www.garmin.com/xmlschemas/AccelerationExtension/v1 http://www.garmin.com/xmlschemas/AccelerationExtensionv1.xsd http://www.garmin.com/xmlschemas/PowerExtension/v1 http://www.garmin.com/xmlschemas/PowerExtensionv1.xsd http://www.garmin.com/xmlschemas/VideoExtension/v1 http://www.garmin.com/xmlschemas/VideoExtensionv1.xsd" xmlns="http://www.topografix.com/GPX/1/1" xmlns:xsi="http://www.w3.org/2001/XMLSchema-instance" xmlns:wptx1="http://www.garmin.com/xmlschemas/WaypointExtension/v1" xmlns:gpxtrx="http://www.garmin.com/xmlschemas/GpxExtensions/v3" xmlns:gpxtpx="http://www.garmin.com/xmlschemas/TrackPointExtension/v1" xmlns:gpxx="http://www.garmin.com/xmlschemas/GpxExtensions/v3" xmlns:trp="http://www.garmin.com/xmlschemas/TripExtensions/v1" xmlns:adv="http://www.garmin.com/xmlschemas/AdventuresExtensions/v1" xmlns:prs="http://www.garmin.com/xmlschemas/PressureExtension/v1" xmlns:tmd="http://www.garmin.com/xmlschemas/TripMetaDataExtensions/v1" xmlns:vptm="http://www.garmin.com/xmlschemas/ViaPointTransportationModeExtensions/v1" xmlns:ctx="http://www.garmin.com/xmlschemas/CreationTimeExtension/v1" xmlns:gpxacc="http://www.garmin.com/xmlschemas/AccelerationExtension/v1" xmlns:gpxpx="http://www.garmin.com/xmlschemas/PowerExtension/v1" xmlns:vidx1="http://www.garmin.com/xmlschemas/VideoExtension/v1">

  <metadata>
    <link href="http://www.garmin.com">
      <text>Garmin International</text>
    </link>
    <time>2022-08-07T17:44:44Z</time>
    <bounds maxlat="45.203694496303797" maxlon="7.08180109038949" minlat="45.176298161968589" minlon="7.074660714715719" />
  </metadata>

  <trk>
    <name>rifugio-ca-d-asti2022-08-06</name>
    <extensions>
      <gpxx:TrackExtension>
        <gpxx:DisplayColor>Yellow</gpxx:DisplayColor>
      </gpxx:TrackExtension>
      <gpxtrkx:TrackStatsExtension xmlns:gpxtrkx="http://www.garmin.com/xmlschemas/TrackStatsExtension/v1">
        <gpxtrkx:Distance>3088</gpxtrkx:Distance>
        <gpxtrkx:TotalElapsedTime>8988</gpxtrkx:TotalElapsedTime>
        <gpxtrkx:MovingTime>5819</gpxtrkx:MovingTime>
        <gpxtrkx:StoppedTime>3165</gpxtrkx:StoppedTime>
        <gpxtrkx:MovingSpeed>0.531</gpxtrkx:MovingSpeed>
        <gpxtrkx:MaxSpeed>1.937</gpxtrkx:MaxSpeed>
        <gpxtrkx:MaxElevation>2842.207</gpxtrkx:MaxElevation>
        <gpxtrkx:MinElevation>2057.511</gpxtrkx:MinElevation>
        <gpxtrkx:Ascent>783</gpxtrkx:Ascent>
        <gpxtrkx:Descent>1.146</gpxtrkx:Descent>
        <gpxtrkx:AvgAscentRate>0.094</gpxtrkx:AvgAscentRate>
        <gpxtrkx:MaxAscentRate>0.316</gpxtrkx:MaxAscentRate>
        <gpxtrkx:AvgDescentRate>0.004</gpxtrkx:AvgDescentRate>
        <gpxtrkx:MaxDescentRate>-0.062</gpxtrkx:MaxDescentRate>
      </gpxtrkx:TrackStatsExtension>
    </extensions>
    <trkseg>
      <trkpt lat="45.176298832520843" lon="7.075732173398137">
        <ele>2059.1999999999998</ele>
        <time>2022-08-06T10:16:49Z</time>
      </trkpt>
      <trkpt lat="45.176298916339874" lon="7.075733011588454">
        <ele>2059.1999999999998</ele>
        <time>2022-08-06T10:16:50Z</time>
      </trkpt>
      <trkpt lat="45.176298161968589" lon="7.075736783444881">
        <ele>2059.0700000000002</ele>
        <time>2022-08-06T10:17:22Z</time>
      </trkpt>
      <trkpt lat="45.176299251616001" lon="7.075729658827186">
        <ele>2058.8200000000002</ele>
        <time>2022-08-06T10:17:37Z</time>
      </trkpt>
      <trkpt lat="45.176302436739206" lon="7.075713062658906">
        <ele>2058.8600000000001</ele>
        <time>2022-08-06T10:18:04Z</time>
      </trkpt>
      <trkpt lat="45.17631241120398" lon="7.075706440955401">
        <ele>2058.8400000000001</ele>
        <time>2022-08-06T10:18:25Z</time>
      </trkpt>
      <trkpt lat="45.176312914118171" lon="7.075703339651227">
        <ele>2058.75</ele>
        <time>2022-08-06T10:18:39Z</time>
      </trkpt>
      <trkpt lat="45.17631676979363" lon="7.075726389884949">
        <ele>2058.8899999999999</ele>
        <time>2022-08-06T10:19:18Z</time>
      </trkpt>
      <trkpt lat="45.176312243565917" lon="7.075722869485617">
        <ele>2059.0500000000002</ele>
        <time>2022-08-06T10:19:57Z</time>
      </trkpt>
      <trkpt lat="45.17631090246141" lon="7.075728150084615">
        <ele>2059.0900000000001</ele>
        <time>2022-08-06T10:20:17Z</time>
      </trkpt>
      <trkpt lat="45.176306627690792" lon="7.075737118721008">
        <ele>2059.1999999999998</ele>
        <time>2022-08-06T10:20:43Z</time>
      </trkpt>
      <trkpt lat="45.17630310729146" lon="7.07573913037777">
        <ele>2059.6599999999999</ele>
        <time>2022-08-06T10:21:00Z</time>
      </trkpt>
      <trkpt lat="45.176304448395967" lon="7.075719768181443">
        <ele>2059.0900000000001</ele>
        <time>2022-08-06T10:21:24Z</time>
      </trkpt>
      <trkpt lat="45.176306124776602" lon="7.075724210590124">
        <ele>2059.48</ele>
        <time>2022-08-06T10:21:59Z</time>
      </trkpt>
      <trkpt lat="45.176304532214999" lon="7.075725635513663">
        <ele>2059.5</ele>
        <time>2022-08-06T10:22:19Z</time>
      </trkpt>
      <trkpt lat="45.176308220252395" lon="7.075729491189122">
        <ele>2059.7399999999998</ele>
        <time>2022-08-06T10:22:40Z</time>
      </trkpt>
      <trkpt lat="45.176320290192962" lon="7.075742986053228">
        <ele>2059.73</ele>
        <time>2022-08-06T10:22:51Z</time>
      </trkpt>
      <trkpt lat="45.176324732601643" lon="7.075755055993795">
        <ele>2059.5</ele>
        <time>2022-08-06T10:23:11Z</time>
      </trkpt>
      <trkpt lat="45.176389189437032" lon="7.075775675475597">
        <ele>2060.54</ele>
        <time>2022-08-06T10:23:25Z</time>
      </trkpt>
      <trkpt lat="45.176416346803308" lon="7.075780956074596">
        <ele>2061.0300000000002</ele>
        <time>2022-08-06T10:23:28Z</time>
      </trkpt>
      <trkpt lat="45.176492370665073" lon="7.075798306614161">
        <ele>2061.9699999999998</ele>
        <time>2022-08-06T10:23:36Z</time>
      </trkpt>
      <trkpt lat="45.176597144454718" lon="7.075922358781099">
        <ele>2063.3600000000001</ele>
        <time>2022-08-06T10:23:51Z</time>
      </trkpt>
      <trkpt lat="45.176626481115818" lon="7.075967118144035">
        <ele>2064.02</ele>
        <time>2022-08-06T10:24:03Z</time>
      </trkpt>
      <trkpt lat="45.176707115024328" lon="7.075972817838192">
        <ele>2065.77</ele>
        <time>2022-08-06T10:24:17Z</time>
      </trkpt>
      <trkpt lat="45.17679269425571" lon="7.075962340459228">
        <ele>2068.04</ele>
        <time>2022-08-06T10:24:32Z</time>
      </trkpt>
      <trkpt lat="45.176905766129494" lon="7.07593216560781">
        <ele>2070.48</ele>
        <time>2022-08-06T10:24:49Z</time>
      </trkpt>
      <trkpt lat="45.176994865760207" lon="7.075923448428512">
        <ele>2072.6399999999999</ele>
        <time>2022-08-06T10:25:05Z</time>
      </trkpt>
      <trkpt lat="45.177088240161538" lon="7.075940128415823">
        <ele>2075.3600000000001</ele>
        <time>2022-08-06T10:25:22Z</time>
      </trkpt>
      <trkpt lat="45.177167449146509" lon="7.075972817838192">
        <ele>2077.8499999999999</ele>
        <time>2022-08-06T10:25:38Z</time>
      </trkpt>
      <trkpt lat="45.177241796627641" lon="7.075984887778759">
        <ele>2080.3600000000001</ele>
        <time>2022-08-06T10:25:56Z</time>
      </trkpt>
      <trkpt lat="45.177318239584565" lon="7.075995868071914">
        <ele>2083.0999999999999</ele>
        <time>2022-08-06T10:26:12Z</time>
      </trkpt>
      <trkpt lat="45.177366770803928" lon="7.076071221381426">
        <ele>2084.98</ele>
        <time>2022-08-06T10:26:26Z</time>
      </trkpt>
      <trkpt lat="45.177414463832974" lon="7.076096450909972">
        <ele>2086.48</ele>
        <time>2022-08-06T10:26:39Z</time>
      </trkpt>
      <trkpt lat="45.177499791607261" lon="7.076112292706966">
        <ele>2088.98</ele>
        <time>2022-08-06T10:26:56Z</time>
      </trkpt>
      <trkpt lat="45.177538013085723" lon="7.076117573305965">
        <ele>2090.52</ele>
        <time>2022-08-06T10:27:10Z</time>
      </trkpt>
      <trkpt lat="45.177527870982885" lon="7.076130229979754">
        <ele>2089.8000000000002</ele>
        <time>2022-08-06T10:27:20Z</time>
      </trkpt>
      <trkpt lat="45.177523763850331" lon="7.076140455901623">
        <ele>2089.4299999999998</ele>
        <time>2022-08-06T10:28:02Z</time>
      </trkpt>
      <trkpt lat="45.177530134096742" lon="7.076129978522658">
        <ele>2091.04</ele>
        <time>2022-08-06T10:28:16Z</time>
      </trkpt>
      <trkpt lat="45.177545389160514" lon="7.076143305748701">
        <ele>2090.8499999999999</ele>
        <time>2022-08-06T10:28:34Z</time>
      </trkpt>
      <trkpt lat="45.177598195150495" lon="7.076206672936678">
        <ele>2093.04</ele>
        <time>2022-08-06T10:28:46Z</time>
      </trkpt>
      <trkpt lat="45.177691569551826" lon="7.076284289360046">
        <ele>2095.3499999999999</ele>
        <time>2022-08-06T10:29:01Z</time>
      </trkpt>
      <trkpt lat="45.177756696939468" lon="7.076402641832829">
        <ele>2097.7399999999998</ele>
        <time>2022-08-06T10:29:16Z</time>
      </trkpt>
      <trkpt lat="45.177814280614257" lon="7.076482437551022">
        <ele>2100.0799999999999</ele>
        <time>2022-08-06T10:29:29Z</time>
      </trkpt>
      <trkpt lat="45.177879994735122" lon="7.076548151671886">
        <ele>2101.9899999999998</ele>
        <time>2022-08-06T10:29:43Z</time>
      </trkpt>
      <trkpt lat="45.177941014990211" lon="7.076601125299931">
        <ele>2105.0500000000002</ele>
        <time>2022-08-06T10:29:59Z</time>
      </trkpt>
      <trkpt lat="45.177985103800893" lon="7.076654601842165">
        <ele>2106.8000000000002</ele>
        <time>2022-08-06T10:30:11Z</time>
      </trkpt>
      <trkpt lat="45.178048135712743" lon="7.076707743108273">
        <ele>2109.1500000000001</ele>
        <time>2022-08-06T10:30:25Z</time>
      </trkpt>
      <trkpt lat="45.178115777671337" lon="7.076761052012444">
        <ele>2111.7199999999998</ele>
        <time>2022-08-06T10:30:39Z</time>
      </trkpt>
      <trkpt lat="45.178192472085357" lon="7.076848642900586">
        <ele>2113.8499999999999</ele>
        <time>2022-08-06T10:30:56Z</time>
      </trkpt>
      <trkpt lat="45.178249133750796" lon="7.076934054493904">
        <ele>2116.1100000000001</ele>
        <time>2022-08-06T10:31:11Z</time>
      </trkpt>
      <trkpt lat="45.178302945569158" lon="7.077023992314935">
        <ele>2118.3600000000001</ele>
        <time>2022-08-06T10:31:27Z</time>
      </trkpt>
      <trkpt lat="45.178369414061308" lon="7.077099429443479">
        <ele>2121.4699999999998</ele>
        <time>2022-08-06T10:31:43Z</time>
      </trkpt>
      <trkpt lat="45.178417442366481" lon="7.07715910859406">
        <ele>2123.71</ele>
        <time>2022-08-06T10:31:58Z</time>
      </trkpt>
      <trkpt lat="45.178467147052288" lon="7.077256087213755">
        <ele>2126.8200000000002</ele>
        <time>2022-08-06T10:32:15Z</time>
      </trkpt>
      <trkpt lat="45.178534621372819" lon="7.077351557090879">
        <ele>2129.6500000000001</ele>
        <time>2022-08-06T10:32:33Z</time>
      </trkpt>
      <trkpt lat="45.178598407655954" lon="7.077441327273846">
        <ele>2132.48</ele>
        <time>2022-08-06T10:32:50Z</time>
      </trkpt>
      <trkpt lat="45.178632773458958" lon="7.077534198760986">
        <ele>2135.1900000000001</ele>
        <time>2022-08-06T10:33:05Z</time>
      </trkpt>
      <trkpt lat="45.178689770400524" lon="7.077635452151299">
        <ele>2137.7199999999998</ele>
        <time>2022-08-06T10:33:24Z</time>
      </trkpt>
      <trkpt lat="45.178739978000522" lon="7.077738214284182">
        <ele>2140.4200000000001</ele>
        <time>2022-08-06T10:33:40Z</time>
      </trkpt>
      <trkpt lat="45.178788090124726" lon="7.077820608392358">
        <ele>2142.5999999999999</ele>
        <time>2022-08-06T10:33:56Z</time>
      </trkpt>
      <trkpt lat="45.178830670192838" lon="7.077837623655796">
        <ele>2144.4400000000001</ele>
        <time>2022-08-06T10:34:10Z</time>
      </trkpt>
      <trkpt lat="45.178867969661951" lon="7.077918257564306">
        <ele>2146.79</ele>
        <time>2022-08-06T10:34:27Z</time>
      </trkpt>
      <trkpt lat="45.178906274959445" lon="7.078010877594352">
        <ele>2148.9499999999998</ele>
        <time>2022-08-06T10:34:43Z</time>
      </trkpt>
      <trkpt lat="45.178939551115036" lon="7.078088158741593">
        <ele>2150.9400000000001</ele>
        <time>2022-08-06T10:34:57Z</time>
      </trkpt>
      <trkpt lat="45.178952626883984" lon="7.07815739326179">
        <ele>2152.46</ele>
        <time>2022-08-06T10:35:10Z</time>
      </trkpt>
      <trkpt lat="45.1789690554142" lon="7.078175162896514">
        <ele>2153.0700000000002</ele>
        <time>2022-08-06T10:35:27Z</time>
      </trkpt>
      <trkpt lat="45.17900132574141" lon="7.078233668580651">
        <ele>2154.6900000000001</ele>
        <time>2022-08-06T10:35:41Z</time>
      </trkpt>
      <trkpt lat="45.179017586633563" lon="7.078318241983652">
        <ele>2156.4499999999998</ele>
        <time>2022-08-06T10:35:55Z</time>
      </trkpt>
      <trkpt lat="45.179044660180807" lon="7.078399797901511">
        <ele>2157.7399999999998</ele>
        <time>2022-08-06T10:36:09Z</time>
      </trkpt>
      <trkpt lat="45.179084893316031" lon="7.078452436253429">
        <ele>2159.3099999999999</ele>
        <time>2022-08-06T10:36:25Z</time>
      </trkpt>
      <trkpt lat="45.179111463949084" lon="7.078468194231391">
        <ele>2160.9200000000001</ele>
        <time>2022-08-06T10:36:37Z</time>
      </trkpt>
      <trkpt lat="45.179117415100336" lon="7.078505326062441">
        <ele>2161.6999999999998</ele>
        <time>2022-08-06T10:37:00Z</time>
      </trkpt>
      <trkpt lat="45.179167790338397" lon="7.078597107902169">
        <ele>2163.6300000000001</ele>
        <time>2022-08-06T10:37:18Z</time>
      </trkpt>
      <trkpt lat="45.17920995131135" lon="7.078709425404668">
        <ele>2165.7600000000002</ele>
        <time>2022-08-06T10:37:34Z</time>
      </trkpt>
      <trkpt lat="45.179246915504336" lon="7.078796681016684">
        <ele>2167.8099999999999</ele>
        <time>2022-08-06T10:37:49Z</time>
      </trkpt>
      <trkpt lat="45.17926418222487" lon="7.078874465078116">
        <ele>2169.73</ele>
        <time>2022-08-06T10:38:04Z</time>
      </trkpt>
      <trkpt lat="45.179288908839226" lon="7.078971611335874">
        <ele>2171.5100000000002</ele>
        <time>2022-08-06T10:38:19Z</time>
      </trkpt>
      <trkpt lat="45.179303660988808" lon="7.079093316569924">
        <ele>2173.29</ele>
        <time>2022-08-06T10:38:34Z</time>
      </trkpt>
      <trkpt lat="45.179330566897988" lon="7.079204795882106">
        <ele>2175.3099999999999</ele>
        <time>2022-08-06T10:38:50Z</time>
      </trkpt>
      <trkpt lat="45.179344397038221" lon="7.079305713996291">
        <ele>2177.5500000000002</ele>
        <time>2022-08-06T10:39:06Z</time>
      </trkpt>
      <trkpt lat="45.17933894880116" lon="7.079432364553213">
        <ele>2179.04</ele>
        <time>2022-08-06T10:39:21Z</time>
      </trkpt>
      <trkpt lat="45.179354958236217" lon="7.079536970704794">
        <ele>2181.1500000000001</ele>
        <time>2022-08-06T10:39:36Z</time>
      </trkpt>
      <trkpt lat="45.179369123652577" lon="7.079662615433335">
        <ele>2183.3899999999999</ele>
        <time>2022-08-06T10:39:52Z</time>
      </trkpt>
      <trkpt lat="45.179374907165766" lon="7.079772166907787">
        <ele>2184.9299999999998</ele>
        <time>2022-08-06T10:40:06Z</time>
      </trkpt>
      <trkpt lat="45.179397957399487" lon="7.079849699512124">
        <ele>2186.6799999999998</ele>
        <time>2022-08-06T10:40:21Z</time>
      </trkpt>
      <trkpt lat="45.17940835095942" lon="7.079926561564207">
        <ele>2188.3699999999999</ele>
        <time>2022-08-06T10:40:36Z</time>
      </trkpt>
      <trkpt lat="45.179416397586465" lon="7.080015409737825">
        <ele>2190.46</ele>
        <time>2022-08-06T10:40:52Z</time>
      </trkpt>
      <trkpt lat="45.179412122815847" lon="7.080063773319125">
        <ele>2191.71</ele>
        <time>2022-08-06T10:41:05Z</time>
      </trkpt>
      <trkpt lat="45.179418325424194" lon="7.080156058073044">
        <ele>2193.52</ele>
        <time>2022-08-06T10:41:24Z</time>
      </trkpt>
      <trkpt lat="45.179429557174444" lon="7.080301567912102">
        <ele>2196.2600000000002</ele>
        <time>2022-08-06T10:41:42Z</time>
      </trkpt>
      <trkpt lat="45.179419666528702" lon="7.080397121608257">
        <ele>2197.9699999999998</ele>
        <time>2022-08-06T10:41:57Z</time>
      </trkpt>
      <trkpt lat="45.17944841645658" lon="7.080426290631294">
        <ele>2199.8299999999999</ele>
        <time>2022-08-06T10:42:12Z</time>
      </trkpt>
      <trkpt lat="45.179429473355412" lon="7.080486053600907">
        <ele>2202.04</ele>
        <time>2022-08-06T10:42:26Z</time>
      </trkpt>
      <trkpt lat="45.179448164999485" lon="7.080488819628954">
        <ele>2202.6999999999998</ele>
        <time>2022-08-06T10:42:41Z</time>
      </trkpt>
      <trkpt lat="45.179453529417515" lon="7.080543469637632">
        <ele>2204.0100000000002</ele>
        <time>2022-08-06T10:42:55Z</time>
      </trkpt>
      <trkpt lat="45.179499546065927" lon="7.080592084676027">
        <ele>2206.73</ele>
        <time>2022-08-06T10:43:10Z</time>
      </trkpt>
      <trkpt lat="45.1795251108706" lon="7.080689901486039">
        <ele>2208.7600000000002</ele>
        <time>2022-08-06T10:43:25Z</time>
      </trkpt>
      <trkpt lat="45.179539527744055" lon="7.080710269510746">
        <ele>2209.4499999999998</ele>
        <time>2022-08-06T10:43:41Z</time>
      </trkpt>
      <trkpt lat="45.179516477510333" lon="7.080746646970511">
        <ele>2210.0700000000002</ele>
        <time>2022-08-06T10:43:52Z</time>
      </trkpt>
      <trkpt lat="45.179455038160086" lon="7.080787634477019">
        <ele>2210.3699999999999</ele>
        <time>2022-08-06T10:44:05Z</time>
      </trkpt>
      <trkpt lat="45.179444309324026" lon="7.080768523737788">
        <ele>2210.5300000000002</ele>
        <time>2022-08-06T10:44:17Z</time>
      </trkpt>
      <trkpt lat="45.179438609629869" lon="7.080766512081027">
        <ele>2210.7800000000002</ele>
        <time>2022-08-06T10:44:35Z</time>
      </trkpt>
      <trkpt lat="45.179443135857582" lon="7.08076860755682">
        <ele>2210.1999999999998</ele>
        <time>2022-08-06T10:44:53Z</time>
      </trkpt>
      <trkpt lat="45.179445063695312" lon="7.080769529566169">
        <ele>2210.3099999999999</ele>
        <time>2022-08-06T10:45:16Z</time>
      </trkpt>
      <trkpt lat="45.179448332637548" lon="7.080767517909408">
        <ele>2210.0900000000001</ele>
        <time>2022-08-06T10:45:33Z</time>
      </trkpt>
      <trkpt lat="45.179506000131369" lon="7.080790316686034">
        <ele>2209.79</ele>
        <time>2022-08-06T10:45:49Z</time>
      </trkpt>
      <trkpt lat="45.179557213559747" lon="7.080813534557819">
        <ele>2210.8099999999999</ele>
        <time>2022-08-06T10:46:01Z</time>
      </trkpt>
      <trkpt lat="45.179564086720347" lon="7.080833064392209">
        <ele>2210.9400000000001</ele>
        <time>2022-08-06T10:46:19Z</time>
      </trkpt>
      <trkpt lat="45.179559476673603" lon="7.080843625590205">
        <ele>2211.1300000000001</ele>
        <time>2022-08-06T10:46:36Z</time>
      </trkpt>
      <trkpt lat="45.179551430046558" lon="7.080856282263994">
        <ele>2211.0900000000001</ele>
        <time>2022-08-06T10:46:55Z</time>
      </trkpt>
      <trkpt lat="45.179545311257243" lon="7.080857371911407">
        <ele>2210.8899999999999</ele>
        <time>2022-08-06T10:47:11Z</time>
      </trkpt>
      <trkpt lat="45.179544892162085" lon="7.080855527892709">
        <ele>2210.6799999999998</ele>
        <time>2022-08-06T10:47:37Z</time>
      </trkpt>
      <trkpt lat="45.179536510258913" lon="7.080867514014244">
        <ele>2210.9099999999999</ele>
        <time>2022-08-06T10:47:50Z</time>
      </trkpt>
      <trkpt lat="45.179611193016171" lon="7.080749832093716">
        <ele>2211.5100000000002</ele>
        <time>2022-08-06T10:48:05Z</time>
      </trkpt>
      <trkpt lat="45.179670285433531" lon="7.080703228712082">
        <ele>2213.0999999999999</ele>
        <time>2022-08-06T10:48:22Z</time>
      </trkpt>
      <trkpt lat="45.179693335667253" lon="7.080667018890381">
        <ele>2214.4899999999998</ele>
        <time>2022-08-06T10:48:36Z</time>
      </trkpt>
      <trkpt lat="45.179735831916332" lon="7.080658050253987">
        <ele>2215.1999999999998</ele>
        <time>2022-08-06T10:48:54Z</time>
      </trkpt>
      <trkpt lat="45.179765503853559" lon="7.080643214285374">
        <ele>2216.5599999999999</ele>
        <time>2022-08-06T10:49:09Z</time>
      </trkpt>
      <trkpt lat="45.179806994274259" lon="7.080615302547813">
        <ele>2216.9899999999998</ele>
        <time>2022-08-06T10:49:39Z</time>
      </trkpt>
      <trkpt lat="45.17987203784287" lon="7.080538272857666">
        <ele>2219.79</ele>
        <time>2022-08-06T10:49:53Z</time>
      </trkpt>
      <trkpt lat="45.179918641224504" lon="7.080596024170518">
        <ele>2222.8099999999999</ele>
        <time>2022-08-06T10:50:05Z</time>
      </trkpt>
      <trkpt lat="45.17997513525188" lon="7.080590324476361">
        <ele>2224.9200000000001</ele>
        <time>2022-08-06T10:50:19Z</time>
      </trkpt>
      <trkpt lat="45.1800069026649" lon="7.080485299229622">
        <ele>2227.5700000000002</ele>
        <time>2022-08-06T10:50:36Z</time>
      </trkpt>
      <trkpt lat="45.180044621229172" lon="7.080462668091059">
        <ele>2229.8200000000002</ele>
        <time>2022-08-06T10:50:49Z</time>
      </trkpt>
      <trkpt lat="45.180109832435846" lon="7.080421429127455">
        <ele>2230.8600000000001</ele>
        <time>2022-08-06T10:51:05Z</time>
      </trkpt>
      <trkpt lat="45.180148724466562" lon="7.080341298133135">
        <ele>2232.8499999999999</ele>
        <time>2022-08-06T10:51:19Z</time>
      </trkpt>
      <trkpt lat="45.180206056684256" lon="7.080331658944488">
        <ele>2234.3299999999999</ele>
        <time>2022-08-06T10:51:34Z</time>
      </trkpt>
      <trkpt lat="45.180252492427826" lon="7.080332580953836">
        <ele>2235.8400000000001</ele>
        <time>2022-08-06T10:51:47Z</time>
      </trkpt>
      <trkpt lat="45.180308818817139" lon="7.080310117453337">
        <ele>2237.9899999999998</ele>
        <time>2022-08-06T10:52:01Z</time>
      </trkpt>
      <trkpt lat="45.180372437462211" lon="7.080281618982554">
        <ele>2239.9699999999998</ele>
        <time>2022-08-06T10:52:15Z</time>
      </trkpt>
      <trkpt lat="45.180403534322977" lon="7.080218838527799">
        <ele>2242.7800000000002</ele>
        <time>2022-08-06T10:52:26Z</time>
      </trkpt>
      <trkpt lat="45.180433373898268" lon="7.080156980082393">
        <ele>2245.5799999999999</ele>
        <time>2022-08-06T10:52:38Z</time>
      </trkpt>
      <trkpt lat="45.18045692704618" lon="7.080114148557186">
        <ele>2247.0900000000001</ele>
        <time>2022-08-06T10:52:51Z</time>
      </trkpt>
      <trkpt lat="45.180463967844844" lon="7.080079782754183">
        <ele>2248.0100000000002</ele>
        <time>2022-08-06T10:53:05Z</time>
      </trkpt>
      <trkpt lat="45.180515181273222" lon="7.080045333132148">
        <ele>2248.8400000000001</ele>
        <time>2022-08-06T10:53:24Z</time>
      </trkpt>
      <trkpt lat="45.180610232055187" lon="7.079960843548179">
        <ele>2251.3699999999999</ele>
        <time>2022-08-06T10:53:42Z</time>
      </trkpt>
      <trkpt lat="45.180664043873549" lon="7.079921616241336">
        <ele>2253.3699999999999</ele>
        <time>2022-08-06T10:53:56Z</time>
      </trkpt>
      <trkpt lat="45.180680472403765" lon="7.0799027569592">
        <ele>2253.4699999999998</ele>
        <time>2022-08-06T10:54:11Z</time>
      </trkpt>
      <trkpt lat="45.180697906762362" lon="7.07987442612648">
        <ele>2254.4000000000001</ele>
        <time>2022-08-06T10:54:23Z</time>
      </trkpt>
      <trkpt lat="45.180725483223796" lon="7.079840479418635">
        <ele>2254.8499999999999</ele>
        <time>2022-08-06T10:54:37Z</time>
      </trkpt>
      <trkpt lat="45.180763956159353" lon="7.079766551032662">
        <ele>2255.5</ele>
        <time>2022-08-06T10:54:49Z</time>
      </trkpt>
      <trkpt lat="45.180811733007431" lon="7.079694215208292">
        <ele>2256.5999999999999</ele>
        <time>2022-08-06T10:55:01Z</time>
      </trkpt>
      <trkpt lat="45.180881973356009" lon="7.079627495259047">
        <ele>2258.6900000000001</ele>
        <time>2022-08-06T10:55:16Z</time>
      </trkpt>
      <trkpt lat="45.180904772132635" lon="7.079603020101786">
        <ele>2259.29</ele>
        <time>2022-08-06T10:55:30Z</time>
      </trkpt>
      <trkpt lat="45.180964786559343" lon="7.079499084502459">
        <ele>2260.6399999999999</ele>
        <time>2022-08-06T10:55:44Z</time>
      </trkpt>
      <trkpt lat="45.181032177060843" lon="7.079410403966904">
        <ele>2263.8899999999999</ele>
        <time>2022-08-06T10:56:00Z</time>
      </trkpt>
      <trkpt lat="45.181065704673529" lon="7.079354831948876">
        <ele>2264.8899999999999</ele>
        <time>2022-08-06T10:56:15Z</time>
      </trkpt>
      <trkpt lat="45.181134268641472" lon="7.079282244667411">
        <ele>2267.3000000000002</ele>
        <time>2022-08-06T10:56:33Z</time>
      </trkpt>
      <trkpt lat="45.181171987205744" lon="7.079201443120837">
        <ele>2269.27</ele>
        <time>2022-08-06T10:56:48Z</time>
      </trkpt>
      <trkpt lat="45.181226804852486" lon="7.079148553311825">
        <ele>2271.5599999999999</ele>
        <time>2022-08-06T10:57:05Z</time>
      </trkpt>
      <trkpt lat="45.181285729631782" lon="7.079133214429021">
        <ele>2274.25</ele>
        <time>2022-08-06T10:57:22Z</time>
      </trkpt>
      <trkpt lat="45.181348090991378" lon="7.079120641574264">
        <ele>2276.1199999999999</ele>
        <time>2022-08-06T10:57:40Z</time>
      </trkpt>
      <trkpt lat="45.181421348825097" lon="7.079096250236034">
        <ele>2279.0900000000001</ele>
        <time>2022-08-06T10:58:00Z</time>
      </trkpt>
      <trkpt lat="45.181485805660486" lon="7.07907747477293">
        <ele>2281.1599999999999</ele>
        <time>2022-08-06T10:58:17Z</time>
      </trkpt>
      <trkpt lat="45.181518411263824" lon="7.07908283919096">
        <ele>2282.71</ele>
        <time>2022-08-06T10:58:30Z</time>
      </trkpt>
      <trkpt lat="45.1815231051296" lon="7.079093316569924">
        <ele>2282.6500000000001</ele>
        <time>2022-08-06T10:58:52Z</time>
      </trkpt>
      <trkpt lat="45.181560572236776" lon="7.079085521399975">
        <ele>2284.1700000000001</ele>
        <time>2022-08-06T10:59:20Z</time>
      </trkpt>
      <trkpt lat="45.181634668260813" lon="7.079068338498473">
        <ele>2286.3800000000001</ele>
        <time>2022-08-06T10:59:31Z</time>
      </trkpt>
      <trkpt lat="45.181655790656805" lon="7.079061046242714">
        <ele>2286.7199999999998</ele>
        <time>2022-08-06T10:59:48Z</time>
      </trkpt>
      <trkpt lat="45.181690910831094" lon="7.079039672389627">
        <ele>2288.3099999999999</ele>
        <time>2022-08-06T11:00:04Z</time>
      </trkpt>
      <trkpt lat="45.181763833388686" lon="7.078926432877779">
        <ele>2290.3600000000001</ele>
        <time>2022-08-06T11:00:18Z</time>
      </trkpt>
      <trkpt lat="45.181837761774659" lon="7.078810511156917">
        <ele>2292.3899999999999</ele>
        <time>2022-08-06T11:00:33Z</time>
      </trkpt>
      <trkpt lat="45.18187447451055" lon="7.078746305778623">
        <ele>2293.4299999999998</ele>
        <time>2022-08-06T11:00:45Z</time>
      </trkpt>
      <trkpt lat="45.181920155882835" lon="7.078658044338226">
        <ele>2295.5999999999999</ele>
        <time>2022-08-06T11:01:01Z</time>
      </trkpt>
      <trkpt lat="45.181969860568643" lon="7.07861764356494">
        <ele>2296.5599999999999</ele>
        <time>2022-08-06T11:01:14Z</time>
      </trkpt>
      <trkpt lat="45.182033143937588" lon="7.078531058505178">
        <ele>2299.0500000000002</ele>
        <time>2022-08-06T11:01:32Z</time>
      </trkpt>
      <trkpt lat="45.182086452841759" lon="7.078500799834728">
        <ele>2301.1100000000001</ele>
        <time>2022-08-06T11:01:45Z</time>
      </trkpt>
      <trkpt lat="45.182143785059452" lon="7.078468026593328">
        <ele>2302.9200000000001</ele>
        <time>2022-08-06T11:02:01Z</time>
      </trkpt>
      <trkpt lat="45.182185359299183" lon="7.078460650518537">
        <ele>2304.8800000000001</ele>
        <time>2022-08-06T11:02:13Z</time>
      </trkpt>
      <trkpt lat="45.182231543585658" lon="7.078432654961944">
        <ele>2306.2800000000002</ele>
        <time>2022-08-06T11:02:26Z</time>
      </trkpt>
      <trkpt lat="45.182232465595007" lon="7.078425027430058">
        <ele>2306.3899999999999</ele>
        <time>2022-08-06T11:02:41Z</time>
      </trkpt>
      <trkpt lat="45.182237746194005" lon="7.078420920297504">
        <ele>2306.77</ele>
        <time>2022-08-06T11:02:56Z</time>
      </trkpt>
      <trkpt lat="45.18223749473691" lon="7.078427961096168">
        <ele>2305.9099999999999</ele>
        <time>2022-08-06T11:03:04Z</time>
      </trkpt>
      <trkpt lat="45.182236069813371" lon="7.078432738780975">
        <ele>2305.9299999999998</ele>
        <time>2022-08-06T11:03:31Z</time>
      </trkpt>
      <trkpt lat="45.182229531928897" lon="7.078424021601677">
        <ele>2306.04</ele>
        <time>2022-08-06T11:03:50Z</time>
      </trkpt>
      <trkpt lat="45.182232717052102" lon="7.078416394069791">
        <ele>2306.7399999999998</ele>
        <time>2022-08-06T11:04:09Z</time>
      </trkpt>
      <trkpt lat="45.182255851104856" lon="7.078372221440077">
        <ele>2308.1799999999998</ele>
        <time>2022-08-06T11:04:17Z</time>
      </trkpt>
      <trkpt lat="45.182316033169627" lon="7.078387225046754">
        <ele>2310.0300000000002</ele>
        <time>2022-08-06T11:04:28Z</time>
      </trkpt>
      <trkpt lat="45.182355009019375" lon="7.078380519524217">
        <ele>2311.1500000000001</ele>
        <time>2022-08-06T11:04:41Z</time>
      </trkpt>
      <trkpt lat="45.182393649592996" lon="7.078357385471463">
        <ele>2312.8400000000001</ele>
        <time>2022-08-06T11:04:54Z</time>
      </trkpt>
      <trkpt lat="45.182424243539572" lon="7.078293850645423">
        <ele>2314.3200000000002</ele>
        <time>2022-08-06T11:05:08Z</time>
      </trkpt>
      <trkpt lat="45.1824642252177" lon="7.078223191201687">
        <ele>2316.7800000000002</ele>
        <time>2022-08-06T11:05:24Z</time>
      </trkpt>
      <trkpt lat="45.182502698153257" lon="7.078178431838751">
        <ele>2318.1399999999999</ele>
        <time>2022-08-06T11:05:36Z</time>
      </trkpt>
      <trkpt lat="45.182535890489817" lon="7.078142305836082">
        <ele>2319.3699999999999</ele>
        <time>2022-08-06T11:05:52Z</time>
      </trkpt>
      <trkpt lat="45.182569585740566" lon="7.078100731596351">
        <ele>2320.6199999999999</ele>
        <time>2022-08-06T11:06:05Z</time>
      </trkpt>
      <trkpt lat="45.182604789733887" lon="7.078152699396014">
        <ele>2322.48</ele>
        <time>2022-08-06T11:06:21Z</time>
      </trkpt>
      <trkpt lat="45.182636473327875" lon="7.078192010521889">
        <ele>2324.23</ele>
        <time>2022-08-06T11:06:34Z</time>
      </trkpt>
      <trkpt lat="45.182671006768942" lon="7.078143814578652">
        <ele>2326.1300000000001</ele>
        <time>2022-08-06T11:06:49Z</time>
      </trkpt>
      <trkpt lat="45.182700846344233" lon="7.078053960576654">
        <ele>2327.02</ele>
        <time>2022-08-06T11:07:04Z</time>
      </trkpt>
      <trkpt lat="45.182743510231376" lon="7.078010542318225">
        <ele>2328.6199999999999</ele>
        <time>2022-08-06T11:07:18Z</time>
      </trkpt>
      <trkpt lat="45.182777037844062" lon="7.077968968078494">
        <ele>2330.3699999999999</ele>
        <time>2022-08-06T11:07:32Z</time>
      </trkpt>
      <trkpt lat="45.182795813307166" lon="7.077902667224407">
        <ele>2331.8000000000002</ele>
        <time>2022-08-06T11:07:44Z</time>
      </trkpt>
      <trkpt lat="45.182847445830703" lon="7.077869726344943">
        <ele>2334.0799999999999</ele>
        <time>2022-08-06T11:07:59Z</time>
      </trkpt>
      <trkpt lat="45.182884829118848" lon="7.077819937840104">
        <ele>2335.5900000000001</ele>
        <time>2022-08-06T11:08:13Z</time>
      </trkpt>
      <trkpt lat="45.182921122759581" lon="7.077790349721909">
        <ele>2337.04</ele>
        <time>2022-08-06T11:08:28Z</time>
      </trkpt>
      <trkpt lat="45.182947022840381" lon="7.077817674726248">
        <ele>2338.5</ele>
        <time>2022-08-06T11:08:40Z</time>
      </trkpt>
      <trkpt lat="45.18294551409781" lon="7.077915156260133">
        <ele>2340.3099999999999</ele>
        <time>2022-08-06T11:08:55Z</time>
      </trkpt>
      <trkpt lat="45.18296948634088" lon="7.077993359416723">
        <ele>2341.5900000000001</ele>
        <time>2022-08-06T11:09:10Z</time>
      </trkpt>
      <trkpt lat="45.182976359501481" lon="7.078076675534248">
        <ele>2343.71</ele>
        <time>2022-08-06T11:09:24Z</time>
      </trkpt>
      <trkpt lat="45.183000834658742" lon="7.078110622242093">
        <ele>2344.4699999999998</ele>
        <time>2022-08-06T11:09:33Z</time>
      </trkpt>
      <trkpt lat="45.183039139956236" lon="7.07815638743341">
        <ele>2346.0900000000001</ele>
        <time>2022-08-06T11:09:49Z</time>
      </trkpt>
      <trkpt lat="45.183098232373595" lon="7.078215396031737">
        <ele>2347.5799999999999</ele>
        <time>2022-08-06T11:10:05Z</time>
      </trkpt>
      <trkpt lat="45.183132598176599" lon="7.078297371044755">
        <ele>2350.0999999999999</ele>
        <time>2022-08-06T11:10:23Z</time>
      </trkpt>
      <trkpt lat="45.183159252628684" lon="7.078350428491831">
        <ele>2351.54</ele>
        <time>2022-08-06T11:10:35Z</time>
      </trkpt>
      <trkpt lat="45.18318741582334" lon="7.078396026045084">
        <ele>2352.5999999999999</ele>
        <time>2022-08-06T11:10:45Z</time>
      </trkpt>
      <trkpt lat="45.183217758312821" lon="7.078441958874464">
        <ele>2353.8499999999999</ele>
        <time>2022-08-06T11:10:57Z</time>
      </trkpt>
      <trkpt lat="45.18325824290514" lon="7.078443132340908">
        <ele>2354.8299999999999</ele>
        <time>2022-08-06T11:11:10Z</time>
      </trkpt>
      <trkpt lat="45.183280035853386" lon="7.078415807336569">
        <ele>2356.4200000000001</ele>
        <time>2022-08-06T11:11:24Z</time>
      </trkpt>
      <trkpt lat="45.183287998661399" lon="7.078413963317871">
        <ele>2356.4499999999998</ele>
        <time>2022-08-06T11:11:44Z</time>
      </trkpt>
      <trkpt lat="45.183290848508477" lon="7.078417148441076">
        <ele>2356.5900000000001</ele>
        <time>2022-08-06T11:12:04Z</time>
      </trkpt>
      <trkpt lat="45.183335524052382" lon="7.078328551724553">
        <ele>2359.1100000000001</ele>
        <time>2022-08-06T11:12:19Z</time>
      </trkpt>
      <trkpt lat="45.183359999209642" lon="7.078180443495512">
        <ele>2361.5999999999999</ele>
        <time>2022-08-06T11:12:35Z</time>
      </trkpt>
      <trkpt lat="45.183387408033013" lon="7.078107437118888">
        <ele>2363.0700000000002</ele>
        <time>2022-08-06T11:12:49Z</time>
      </trkpt>
      <trkpt lat="45.183400819078088" lon="7.078079441562295">
        <ele>2364.6399999999999</ele>
        <time>2022-08-06T11:13:02Z</time>
      </trkpt>
      <trkpt lat="45.183420600369573" lon="7.078031832352281">
        <ele>2365.6300000000001</ele>
        <time>2022-08-06T11:13:20Z</time>
      </trkpt>
      <trkpt lat="45.183448093011975" lon="7.077958574518561">
        <ele>2367.3699999999999</ele>
        <time>2022-08-06T11:13:35Z</time>
      </trkpt>
      <trkpt lat="45.183466700837016" lon="7.07789252512157">
        <ele>2368.6300000000001</ele>
        <time>2022-08-06T11:13:50Z</time>
      </trkpt>
      <trkpt lat="45.18350156955421" lon="7.077909708023071">
        <ele>2370.2600000000002</ele>
        <time>2022-08-06T11:14:01Z</time>
      </trkpt>
      <trkpt lat="45.183509113267064" lon="7.07796435803175">
        <ele>2371.6300000000001</ele>
        <time>2022-08-06T11:14:14Z</time>
      </trkpt>
      <trkpt lat="45.183539874851704" lon="7.078042393550277">
        <ele>2372.9899999999998</ele>
        <time>2022-08-06T11:14:29Z</time>
      </trkpt>
      <trkpt lat="45.183571139350533" lon="7.078134091570973">
        <ele>2374.5900000000001</ele>
        <time>2022-08-06T11:14:44Z</time>
      </trkpt>
      <trkpt lat="45.183617323637009" lon="7.07818228751421">
        <ele>2376.1700000000001</ele>
        <time>2022-08-06T11:14:59Z</time>
      </trkpt>
      <trkpt lat="45.183653952553868" lon="7.078209277242422">
        <ele>2377.4299999999998</ele>
        <time>2022-08-06T11:15:13Z</time>
      </trkpt>
      <trkpt lat="45.183678008615971" lon="7.078287145122886">
        <ele>2379.27</ele>
        <time>2022-08-06T11:15:27Z</time>
      </trkpt>
      <trkpt lat="45.183728635311127" lon="7.078330060467124">
        <ele>2380.77</ele>
        <time>2022-08-06T11:15:43Z</time>
      </trkpt>
      <trkpt lat="45.18377180211246" lon="7.07835428416729">
        <ele>2382.3299999999999</ele>
        <time>2022-08-06T11:15:58Z</time>
      </trkpt>
      <trkpt lat="45.18379963003099" lon="7.078385381028056">
        <ele>2383.8899999999999</ele>
        <time>2022-08-06T11:16:11Z</time>
      </trkpt>
      <trkpt lat="45.183818573132157" lon="7.07845838740468">
        <ele>2385.3000000000002</ele>
        <time>2022-08-06T11:16:24Z</time>
      </trkpt>
      <trkpt lat="45.183825613930821" lon="7.078460399061441">
        <ele>2385.96</ele>
        <time>2022-08-06T11:16:42Z</time>
      </trkpt>
      <trkpt lat="45.183821506798267" lon="7.078474564477801">
        <ele>2385.98</ele>
        <time>2022-08-06T11:17:01Z</time>
      </trkpt>
      <trkpt lat="45.183886718004942" lon="7.078547487035394">
        <ele>2388.8899999999999</ele>
        <time>2022-08-06T11:17:16Z</time>
      </trkpt>
      <trkpt lat="45.183904822915792" lon="7.078576991334558">
        <ele>2389.73</ele>
        <time>2022-08-06T11:17:20Z</time>
      </trkpt>
      <trkpt lat="45.183968860656023" lon="7.07862108014524">
        <ele>2391.8899999999999</ele>
        <time>2022-08-06T11:17:33Z</time>
      </trkpt>
      <trkpt lat="45.183977242559195" lon="7.078625103458762">
        <ele>2392.1300000000001</ele>
        <time>2022-08-06T11:17:53Z</time>
      </trkpt>
      <trkpt lat="45.183987300843" lon="7.078620744869113">
        <ele>2392.2600000000002</ele>
        <time>2022-08-06T11:18:24Z</time>
      </trkpt>
      <trkpt lat="45.183991407975554" lon="7.078619990497828">
        <ele>2392.1599999999999</ele>
        <time>2022-08-06T11:18:45Z</time>
      </trkpt>
      <trkpt lat="45.183993419632316" lon="7.078622588887811">
        <ele>2392.4699999999998</ele>
        <time>2022-08-06T11:19:12Z</time>
      </trkpt>
      <trkpt lat="45.184037256985903" lon="7.078629126772285">
        <ele>2393.5</ele>
        <time>2022-08-06T11:19:25Z</time>
      </trkpt>
      <trkpt lat="45.184089224785566" lon="7.078657122328877">
        <ele>2396.21</ele>
        <time>2022-08-06T11:19:38Z</time>
      </trkpt>
      <trkpt lat="45.184119902551174" lon="7.078678663820028">
        <ele>2397.9699999999998</ele>
        <time>2022-08-06T11:19:51Z</time>
      </trkpt>
      <trkpt lat="45.184129793196917" lon="7.07870414480567">
        <ele>2398.3400000000001</ele>
        <time>2022-08-06T11:20:09Z</time>
      </trkpt>
      <trkpt lat="45.184156531468034" lon="7.078747814521194">
        <ele>2399.3499999999999</ele>
        <time>2022-08-06T11:20:22Z</time>
      </trkpt>
      <trkpt lat="45.184191064909101" lon="7.07878234796226">
        <ele>2400.5799999999999</ele>
        <time>2022-08-06T11:20:39Z</time>
      </trkpt>
      <trkpt lat="45.184246469289064" lon="7.078770194202662">
        <ele>2402.8200000000002</ele>
        <time>2022-08-06T11:20:52Z</time>
      </trkpt>
      <trkpt lat="45.184286199510098" lon="7.078782012686133">
        <ele>2404.5300000000002</ele>
        <time>2022-08-06T11:21:05Z</time>
      </trkpt>
      <trkpt lat="45.18429558724165" lon="7.078781425952911">
        <ele>2405.1500000000001</ele>
        <time>2022-08-06T11:21:18Z</time>
      </trkpt>
      <trkpt lat="45.184330875054002" lon="7.078807996585965">
        <ele>2406.1700000000001</ele>
        <time>2022-08-06T11:21:31Z</time>
      </trkpt>
      <trkpt lat="45.184375131502748" lon="7.078861305490136">
        <ele>2408.3899999999999</ele>
        <time>2022-08-06T11:21:47Z</time>
      </trkpt>
      <trkpt lat="45.184409497305751" lon="7.07891964353621">
        <ele>2410.6399999999999</ele>
        <time>2022-08-06T11:22:01Z</time>
      </trkpt>
      <trkpt lat="45.184454591944814" lon="7.079005725681782">
        <ele>2412.6100000000001</ele>
        <time>2022-08-06T11:22:18Z</time>
      </trkpt>
      <trkpt lat="45.184495914727449" lon="7.079063141718507">
        <ele>2414.6300000000001</ele>
        <time>2022-08-06T11:22:32Z</time>
      </trkpt>
      <trkpt lat="45.184558946639299" lon="7.079122988507152">
        <ele>2416.29</ele>
        <time>2022-08-06T11:22:48Z</time>
      </trkpt>
      <trkpt lat="45.184564478695393" lon="7.079137489199638">
        <ele>2416.7600000000002</ele>
        <time>2022-08-06T11:23:03Z</time>
      </trkpt>
      <trkpt lat="45.184569424018264" lon="7.079144781455398">
        <ele>2416.75</ele>
        <time>2022-08-06T11:23:21Z</time>
      </trkpt>
      <trkpt lat="45.184598844498396" lon="7.07918300293386">
        <ele>2417.1500000000001</ele>
        <time>2022-08-06T11:23:36Z</time>
      </trkpt>
      <trkpt lat="45.184664977714419" lon="7.079241676256061">
        <ele>2419.1999999999998</ele>
        <time>2022-08-06T11:23:50Z</time>
      </trkpt>
      <trkpt lat="45.184723064303398" lon="7.079312922433019">
        <ele>2421.4699999999998</ele>
        <time>2022-08-06T11:24:07Z</time>
      </trkpt>
      <trkpt lat="45.18475835211575" lon="7.079355334863067">
        <ele>2423.0999999999999</ele>
        <time>2022-08-06T11:24:19Z</time>
      </trkpt>
      <trkpt lat="45.18478911370039" lon="7.079402608796954">
        <ele>2424.1100000000001</ele>
        <time>2022-08-06T11:24:33Z</time>
      </trkpt>
      <trkpt lat="45.184847870841622" lon="7.079466730356216">
        <ele>2426.5100000000002</ele>
        <time>2022-08-06T11:24:49Z</time>
      </trkpt>
      <trkpt lat="45.184907801449299" lon="7.079512160271406">
        <ele>2428.0999999999999</ele>
        <time>2022-08-06T11:25:05Z</time>
      </trkpt>
      <trkpt lat="45.184949124231935" lon="7.079563625156879">
        <ele>2429.7600000000002</ele>
        <time>2022-08-06T11:25:19Z</time>
      </trkpt>
      <trkpt lat="45.184999415650964" lon="7.079591955989599">
        <ele>2431.0700000000002</ele>
        <time>2022-08-06T11:25:32Z</time>
      </trkpt>
      <trkpt lat="45.185049204155803" lon="7.079632105305791">
        <ele>2432.4400000000001</ele>
        <time>2022-08-06T11:25:48Z</time>
      </trkpt>
      <trkpt lat="45.185078540816903" lon="7.079705698415637">
        <ele>2433.7800000000002</ele>
        <time>2022-08-06T11:26:09Z</time>
      </trkpt>
      <trkpt lat="45.185113912448287" lon="7.079780297353864">
        <ele>2434.9200000000001</ele>
        <time>2022-08-06T11:26:22Z</time>
      </trkpt>
      <trkpt lat="45.185138555243611" lon="7.079815920442343">
        <ele>2436.0900000000001</ele>
        <time>2022-08-06T11:26:34Z</time>
      </trkpt>
      <trkpt lat="45.185163281857967" lon="7.079828158020973">
        <ele>2436.8899999999999</ele>
        <time>2022-08-06T11:26:48Z</time>
      </trkpt>
      <trkpt lat="45.185215333476663" lon="7.079909378662705">
        <ele>2438.27</ele>
        <time>2022-08-06T11:27:03Z</time>
      </trkpt>
      <trkpt lat="45.185246597975492" lon="7.07997995428741">
        <ele>2439.1500000000001</ele>
        <time>2022-08-06T11:27:13Z</time>
      </trkpt>
      <trkpt lat="45.185285154730082" lon="7.080050446093082">
        <ele>2441.04</ele>
        <time>2022-08-06T11:27:25Z</time>
      </trkpt>
      <trkpt lat="45.185352629050612" lon="7.080100569874048">
        <ele>2442.5300000000002</ele>
        <time>2022-08-06T11:27:41Z</time>
      </trkpt>
      <trkpt lat="45.185406608507037" lon="7.080121273174882">
        <ele>2444.2600000000002</ele>
        <time>2022-08-06T11:27:56Z</time>
      </trkpt>
      <trkpt lat="45.185447763651609" lon="7.080188160762191">
        <ele>2445.3400000000001</ele>
        <time>2022-08-06T11:28:09Z</time>
      </trkpt>
      <trkpt lat="45.18548640422523" lon="7.080224957317114">
        <ele>2446.6900000000001</ele>
        <time>2022-08-06T11:28:21Z</time>
      </trkpt>
      <trkpt lat="45.185499144718051" lon="7.080246079713106">
        <ele>2447.27</ele>
        <time>2022-08-06T11:28:34Z</time>
      </trkpt>
      <trkpt lat="45.185498055070639" lon="7.080239374190569">
        <ele>2444.5799999999999</ele>
        <time>2022-08-06T11:28:50Z</time>
      </trkpt>
      <trkpt lat="45.185497468337417" lon="7.080241972580552">
        <ele>2444.5900000000001</ele>
        <time>2022-08-06T11:28:51Z</time>
      </trkpt>
      <trkpt lat="45.185493361204863" lon="7.080251611769199">
        <ele>2447</ele>
        <time>2022-08-06T11:29:03Z</time>
      </trkpt>
      <trkpt lat="45.185495791956782" lon="7.080265693366528">
        <ele>2447.1100000000001</ele>
        <time>2022-08-06T11:29:15Z</time>
      </trkpt>
      <trkpt lat="45.18550400622189" lon="7.080265861004591">
        <ele>2447.1799999999998</ele>
        <time>2022-08-06T11:29:33Z</time>
      </trkpt>
      <trkpt lat="45.185506688430905" lon="7.080267202109098">
        <ele>2447.4699999999998</ele>
        <time>2022-08-06T11:29:49Z</time>
      </trkpt>
      <trkpt lat="45.185506939888" lon="7.080270890146494">
        <ele>2447.6199999999999</ele>
        <time>2022-08-06T11:30:07Z</time>
      </trkpt>
      <trkpt lat="45.18550249747932" lon="7.080272063612938">
        <ele>2447.29</ele>
        <time>2022-08-06T11:30:22Z</time>
      </trkpt>
      <trkpt lat="45.185555722564459" lon="7.080337693914771">
        <ele>2449.1500000000001</ele>
        <time>2022-08-06T11:30:33Z</time>
      </trkpt>
      <trkpt lat="45.185622274875641" lon="7.080411287024617">
        <ele>2451.5</ele>
        <time>2022-08-06T11:30:46Z</time>
      </trkpt>
      <trkpt lat="45.185648761689663" lon="7.080441126599908">
        <ele>2451.8000000000002</ele>
        <time>2022-08-06T11:30:50Z</time>
      </trkpt>
      <trkpt lat="45.185739789158106" lon="7.080536847934127">
        <ele>2454.02</ele>
        <time>2022-08-06T11:31:03Z</time>
      </trkpt>
      <trkpt lat="45.185827799141407" lon="7.080530393868685">
        <ele>2456.8200000000002</ele>
        <time>2022-08-06T11:31:17Z</time>
      </trkpt>
      <trkpt lat="45.185887143015862" lon="7.080578422173858">
        <ele>2458.7800000000002</ele>
        <time>2022-08-06T11:31:30Z</time>
      </trkpt>
      <trkpt lat="45.185951013118029" lon="7.080562831833959">
        <ele>2460.7600000000002</ele>
        <time>2022-08-06T11:31:44Z</time>
      </trkpt>
      <trkpt lat="45.185968112200499" lon="7.080524358898401">
        <ele>2462.2600000000002</ele>
        <time>2022-08-06T11:31:59Z</time>
      </trkpt>
      <trkpt lat="45.186010859906673" lon="7.080519748851657">
        <ele>2464.0700000000002</ele>
        <time>2022-08-06T11:32:14Z</time>
      </trkpt>
      <trkpt lat="45.186049165204167" lon="7.080508265644312">
        <ele>2465.6100000000001</ele>
        <time>2022-08-06T11:32:30Z</time>
      </trkpt>
      <trkpt lat="45.186075652018189" lon="7.080485885962844">
        <ele>2467.23</ele>
        <time>2022-08-06T11:32:41Z</time>
      </trkpt>
      <trkpt lat="45.186106581240892" lon="7.080475073307753">
        <ele>2469.1199999999999</ele>
        <time>2022-08-06T11:32:56Z</time>
      </trkpt>
      <trkpt lat="45.186132229864597" lon="7.080465517938137">
        <ele>2470.2800000000002</ele>
        <time>2022-08-06T11:33:09Z</time>
      </trkpt>
      <trkpt lat="45.186140444129705" lon="7.080469122156501">
        <ele>2470.25</ele>
        <time>2022-08-06T11:33:20Z</time>
      </trkpt>
      <trkpt lat="45.18617388792336" lon="7.08044758066535">
        <ele>2472.02</ele>
        <time>2022-08-06T11:33:37Z</time>
      </trkpt>
      <trkpt lat="45.186222922056913" lon="7.080420842394233">
        <ele>2474.6999999999998</ele>
        <time>2022-08-06T11:33:51Z</time>
      </trkpt>
      <trkpt lat="45.186277236789465" lon="7.080393098294735">
        <ele>2477.1900000000001</ele>
        <time>2022-08-06T11:34:04Z</time>
      </trkpt>
      <trkpt lat="45.186315709725022" lon="7.080362504348159">
        <ele>2479.1500000000001</ele>
        <time>2022-08-06T11:34:17Z</time>
      </trkpt>
      <trkpt lat="45.186346052214503" lon="7.080356301739812">
        <ele>2480.3200000000002</ele>
        <time>2022-08-06T11:34:34Z</time>
      </trkpt>
      <trkpt lat="45.186344292014837" lon="7.0803586486727">
        <ele>2480.54</ele>
        <time>2022-08-06T11:34:53Z</time>
      </trkpt>
      <trkpt lat="45.186349237337708" lon="7.080354038625956">
        <ele>2481.0700000000002</ele>
        <time>2022-08-06T11:35:17Z</time>
      </trkpt>
      <trkpt lat="45.186354098841548" lon="7.080346997827292">
        <ele>2480.9200000000001</ele>
        <time>2022-08-06T11:35:35Z</time>
      </trkpt>
      <trkpt lat="45.186354853212833" lon="7.080345069989562">
        <ele>2481.4299999999998</ele>
        <time>2022-08-06T11:35:50Z</time>
      </trkpt>
      <trkpt lat="45.186345633119345" lon="7.080364851281047">
        <ele>2481.4299999999998</ele>
        <time>2022-08-06T11:36:17Z</time>
      </trkpt>
      <trkpt lat="45.18634932115674" lon="7.080354038625956">
        <ele>2481.6500000000001</ele>
        <time>2022-08-06T11:36:41Z</time>
      </trkpt>
      <trkpt lat="45.186392487958074" lon="7.080347752198577">
        <ele>2483.1700000000001</ele>
        <time>2022-08-06T11:36:54Z</time>
      </trkpt>
      <trkpt lat="45.186410173773766" lon="7.080279607325792">
        <ele>2484.5900000000001</ele>
        <time>2022-08-06T11:37:12Z</time>
      </trkpt>
      <trkpt lat="45.186439258977771" lon="7.080231495201588">
        <ele>2487.4299999999998</ele>
        <time>2022-08-06T11:37:24Z</time>
      </trkpt>
      <trkpt lat="45.186446886509657" lon="7.080210708081722">
        <ele>2488.4000000000001</ele>
        <time>2022-08-06T11:37:36Z</time>
      </trkpt>
      <trkpt lat="45.186485946178436" lon="7.080197213217616">
        <ele>2490.7600000000002</ele>
        <time>2022-08-06T11:37:51Z</time>
      </trkpt>
      <trkpt lat="45.186542859300971" lon="7.080191010609269">
        <ele>2492.0300000000002</ele>
        <time>2022-08-06T11:38:03Z</time>
      </trkpt>
      <trkpt lat="45.186561802402139" lon="7.080178521573544">
        <ele>2492.52</ele>
        <time>2022-08-06T11:38:17Z</time>
      </trkpt>
      <trkpt lat="45.186552917584777" lon="7.080133259296417">
        <ele>2495.0799999999999</ele>
        <time>2022-08-06T11:38:32Z</time>
      </trkpt>
      <trkpt lat="45.186546798795462" lon="7.080147843807936">
        <ele>2494.8499999999999</ele>
        <time>2022-08-06T11:38:53Z</time>
      </trkpt>
      <trkpt lat="45.186543194577098" lon="7.080156225711107">
        <ele>2495.3600000000001</ele>
        <time>2022-08-06T11:39:15Z</time>
      </trkpt>
      <trkpt lat="45.186538500711322" lon="7.080164942890406">
        <ele>2495.2399999999998</ele>
        <time>2022-08-06T11:39:48Z</time>
      </trkpt>
      <trkpt lat="45.186538835987449" lon="7.080175168812275">
        <ele>2495.8299999999999</ele>
        <time>2022-08-06T11:40:13Z</time>
      </trkpt>
      <trkpt lat="45.186534058302641" lon="7.080182963982225">
        <ele>2495.8600000000001</ele>
        <time>2022-08-06T11:40:46Z</time>
      </trkpt>
      <trkpt lat="45.186537075787783" lon="7.080188663676381">
        <ele>2497.29</ele>
        <time>2022-08-06T11:40:59Z</time>
      </trkpt>
      <trkpt lat="45.186606394127011" lon="7.0801773481071">
        <ele>2496.9899999999998</ele>
        <time>2022-08-06T11:41:13Z</time>
      </trkpt>
      <trkpt lat="45.186671521514654" lon="7.080135773867369">
        <ele>2499.6700000000001</ele>
        <time>2022-08-06T11:41:30Z</time>
      </trkpt>
      <trkpt lat="45.18672457896173" lon="7.080117668956518">
        <ele>2501.6199999999999</ele>
        <time>2022-08-06T11:41:47Z</time>
      </trkpt>
      <trkpt lat="45.186769673600793" lon="7.080061929300427">
        <ele>2503.02</ele>
        <time>2022-08-06T11:42:03Z</time>
      </trkpt>
      <trkpt lat="45.186815103515983" lon="7.080018846318126">
        <ele>2504.8400000000001</ele>
        <time>2022-08-06T11:42:18Z</time>
      </trkpt>
      <trkpt lat="45.186762800440192" lon="7.079994287341833">
        <ele>2506.48</ele>
        <time>2022-08-06T11:42:34Z</time>
      </trkpt>
      <trkpt lat="45.186729524284601" lon="7.079979199916124">
        <ele>2508.2199999999998</ele>
        <time>2022-08-06T11:42:44Z</time>
      </trkpt>
      <trkpt lat="45.186727344989777" lon="7.079971069470048">
        <ele>2507.5900000000001</ele>
        <time>2022-08-06T11:43:02Z</time>
      </trkpt>
      <trkpt lat="45.186729189008474" lon="7.079994035884738">
        <ele>2507.6999999999998</ele>
        <time>2022-08-06T11:43:13Z</time>
      </trkpt>
      <trkpt lat="45.186649728566408" lon="7.079991521313787">
        <ele>2509.3899999999999</ele>
        <time>2022-08-06T11:43:25Z</time>
      </trkpt>
      <trkpt lat="45.186616284772754" lon="7.079955311492086">
        <ele>2512.5100000000002</ele>
        <time>2022-08-06T11:43:37Z</time>
      </trkpt>
      <trkpt lat="45.18657605163753" lon="7.079945588484407">
        <ele>2513.54</ele>
        <time>2022-08-06T11:43:49Z</time>
      </trkpt>
      <trkpt lat="45.186578398570418" lon="7.079942487180233">
        <ele>2513.5900000000001</ele>
        <time>2022-08-06T11:44:09Z</time>
      </trkpt>
      <trkpt lat="45.186567837372422" lon="7.079854980111122">
        <ele>2515.2199999999998</ele>
        <time>2022-08-06T11:44:26Z</time>
      </trkpt>
      <trkpt lat="45.186568088829517" lon="7.079778788611293">
        <ele>2516.8299999999999</ele>
        <time>2022-08-06T11:44:42Z</time>
      </trkpt>
      <trkpt lat="45.186575464904308" lon="7.079711733385921">
        <ele>2518.5500000000002</ele>
        <time>2022-08-06T11:44:54Z</time>
      </trkpt>
      <trkpt lat="45.186571190133691" lon="7.079694969579577">
        <ele>2517.9499999999998</ele>
        <time>2022-08-06T11:45:09Z</time>
      </trkpt>
      <trkpt lat="45.186516204848886" lon="7.079624813050032">
        <ele>2520.3499999999999</ele>
        <time>2022-08-06T11:45:24Z</time>
      </trkpt>
      <trkpt lat="45.186508325859904" lon="7.079503023996949">
        <ele>2523.54</ele>
        <time>2022-08-06T11:45:39Z</time>
      </trkpt>
      <trkpt lat="45.186551660299301" lon="7.07948399707675">
        <ele>2526.2600000000002</ele>
        <time>2022-08-06T11:45:51Z</time>
      </trkpt>
      <trkpt lat="45.186584433540702" lon="7.079401602968574">
        <ele>2529.3299999999999</ele>
        <time>2022-08-06T11:46:06Z</time>
      </trkpt>
      <trkpt lat="45.186590803787112" lon="7.079323483631015">
        <ele>2531.0999999999999</ele>
        <time>2022-08-06T11:46:20Z</time>
      </trkpt>
      <trkpt lat="45.186627684161067" lon="7.079291716217995">
        <ele>2532.9400000000001</ele>
        <time>2022-08-06T11:46:31Z</time>
      </trkpt>
      <trkpt lat="45.18666204996407" lon="7.079350976273418">
        <ele>2534.3800000000001</ele>
        <time>2022-08-06T11:46:43Z</time>
      </trkpt>
      <trkpt lat="45.186703708022833" lon="7.07934913225472">
        <ele>2536.4299999999998</ele>
        <time>2022-08-06T11:46:56Z</time>
      </trkpt>
      <trkpt lat="45.186734637245536" lon="7.079238072037697">
        <ele>2538.7800000000002</ele>
        <time>2022-08-06T11:47:15Z</time>
      </trkpt>
      <trkpt lat="45.186772858723998" lon="7.079227427020669">
        <ele>2540.5900000000001</ele>
        <time>2022-08-06T11:47:28Z</time>
      </trkpt>
      <trkpt lat="45.186777468770742" lon="7.079157019034028">
        <ele>2543.25</ele>
        <time>2022-08-06T11:47:42Z</time>
      </trkpt>
      <trkpt lat="45.186782833188772" lon="7.079092310741544">
        <ele>2545.3899999999999</ele>
        <time>2022-08-06T11:47:55Z</time>
      </trkpt>
      <trkpt lat="45.186743605881929" lon="7.079013269394636">
        <ele>2547.1300000000001</ele>
        <time>2022-08-06T11:48:07Z</time>
      </trkpt>
      <trkpt lat="45.186792556196451" lon="7.078987201675773">
        <ele>2549.04</ele>
        <time>2022-08-06T11:48:20Z</time>
      </trkpt>
      <trkpt lat="45.186797501519322" lon="7.07892601378262">
        <ele>2550.9899999999998</ele>
        <time>2022-08-06T11:48:32Z</time>
      </trkpt>
      <trkpt lat="45.186802027747035" lon="7.078819815069437">
        <ele>2553.3400000000001</ele>
        <time>2022-08-06T11:48:48Z</time>
      </trkpt>
      <trkpt lat="45.186838991940022" lon="7.07878184504807">
        <ele>2555.9000000000001</ele>
        <time>2022-08-06T11:49:01Z</time>
      </trkpt>
      <trkpt lat="45.186854330822825" lon="7.078795172274113">
        <ele>2555.75</ele>
        <time>2022-08-06T11:49:15Z</time>
      </trkpt>
      <trkpt lat="45.186852905899286" lon="7.078797770664096">
        <ele>2554.3299999999999</ele>
        <time>2022-08-06T11:49:28Z</time>
      </trkpt>
      <trkpt lat="45.186853157356381" lon="7.078798022121191">
        <ele>2554.9699999999998</ele>
        <time>2022-08-06T11:49:30Z</time>
      </trkpt>
      <trkpt lat="45.186849134042859" lon="7.078800955787301">
        <ele>2555.2800000000002</ele>
        <time>2022-08-06T11:49:43Z</time>
      </trkpt>
      <trkpt lat="45.186843350529671" lon="7.078803302720189">
        <ele>2556.4400000000001</ele>
        <time>2022-08-06T11:50:01Z</time>
      </trkpt>
      <trkpt lat="45.186849050223827" lon="7.078794166445732">
        <ele>2556.7399999999998</ele>
        <time>2022-08-06T11:50:17Z</time>
      </trkpt>
      <trkpt lat="45.186873944476247" lon="7.078826269134879">
        <ele>2557.9899999999998</ele>
        <time>2022-08-06T11:50:32Z</time>
      </trkpt>
      <trkpt lat="45.186901269480586" lon="7.07885074429214">
        <ele>2558.8200000000002</ele>
        <time>2022-08-06T11:50:46Z</time>
      </trkpt>
      <trkpt lat="45.18689414486289" lon="7.07886440679431">
        <ele>2558.4400000000001</ele>
        <time>2022-08-06T11:51:07Z</time>
      </trkpt>
      <trkpt lat="45.18689657561481" lon="7.078863065689802">
        <ele>2558.4899999999998</ele>
        <time>2022-08-06T11:51:26Z</time>
      </trkpt>
      <trkpt lat="45.186917614191771" lon="7.078797351568937">
        <ele>2560.46</ele>
        <time>2022-08-06T11:51:39Z</time>
      </trkpt>
      <trkpt lat="45.186940999701619" lon="7.07873591221869">
        <ele>2563.3400000000001</ele>
        <time>2022-08-06T11:51:53Z</time>
      </trkpt>
      <trkpt lat="45.186955668032169" lon="7.078688722103834">
        <ele>2565.8600000000001</ele>
        <time>2022-08-06T11:52:05Z</time>
      </trkpt>
      <trkpt lat="45.186980981379747" lon="7.078669192269445">
        <ele>2567.79</ele>
        <time>2022-08-06T11:52:19Z</time>
      </trkpt>
      <trkpt lat="45.186989950016141" lon="7.078630635514855">
        <ele>2569.0799999999999</ele>
        <time>2022-08-06T11:52:33Z</time>
      </trkpt>
      <trkpt lat="45.186992129310966" lon="7.078595347702503">
        <ele>2569.8600000000001</ele>
        <time>2022-08-06T11:52:43Z</time>
      </trkpt>
      <trkpt lat="45.186991207301617" lon="7.078593336045742">
        <ele>2569.8299999999999</ele>
        <time>2022-08-06T11:53:04Z</time>
      </trkpt>
      <trkpt lat="45.186992464587092" lon="7.078602556139231">
        <ele>2570.1300000000001</ele>
        <time>2022-08-06T11:53:21Z</time>
      </trkpt>
      <trkpt lat="45.187020124867558" lon="7.078597443178296">
        <ele>2571.4000000000001</ele>
        <time>2022-08-06T11:53:41Z</time>
      </trkpt>
      <trkpt lat="45.187070500105619" lon="7.078575985506177">
        <ele>2574.5</ele>
        <time>2022-08-06T11:53:52Z</time>
      </trkpt>
      <trkpt lat="45.187115930020809" lon="7.07852728664875">
        <ele>2576.9899999999998</ele>
        <time>2022-08-06T11:54:03Z</time>
      </trkpt>
      <trkpt lat="45.187190109863877" lon="7.078482108190656">
        <ele>2579.6199999999999</ele>
        <time>2022-08-06T11:54:17Z</time>
      </trkpt>
      <trkpt lat="45.187242832034826" lon="7.078449921682477">
        <ele>2582.2600000000002</ele>
        <time>2022-08-06T11:54:31Z</time>
      </trkpt>
      <trkpt lat="45.187208466231823" lon="7.078411197289825">
        <ele>2583.4400000000001</ele>
        <time>2022-08-06T11:54:45Z</time>
      </trkpt>
      <trkpt lat="45.187190361320972" lon="7.078397702425718">
        <ele>2584.8200000000002</ele>
        <time>2022-08-06T11:54:57Z</time>
      </trkpt>
      <trkpt lat="45.187187930569053" lon="7.078400971367955">
        <ele>2583.7800000000002</ele>
        <time>2022-08-06T11:55:09Z</time>
      </trkpt>
      <trkpt lat="45.187187176197767" lon="7.078406000509858">
        <ele>2586.79</ele>
        <time>2022-08-06T11:55:11Z</time>
      </trkpt>
      <trkpt lat="45.187186924740672" lon="7.078408263623714">
        <ele>2585.8699999999999</ele>
        <time>2022-08-06T11:55:12Z</time>
      </trkpt>
      <trkpt lat="45.187190864235163" lon="7.078404491767287">
        <ele>2585.23</ele>
        <time>2022-08-06T11:55:14Z</time>
      </trkpt>
      <trkpt lat="45.187201341614127" lon="7.078390661627054">
        <ele>2584.9499999999998</ele>
        <time>2022-08-06T11:55:36Z</time>
      </trkpt>
      <trkpt lat="45.187202431261539" lon="7.078396109864116">
        <ele>2584.7800000000002</ele>
        <time>2022-08-06T11:55:54Z</time>
      </trkpt>
      <trkpt lat="45.187201006338" lon="7.078409604728222">
        <ele>2584.0900000000001</ele>
        <time>2022-08-06T11:56:11Z</time>
      </trkpt>
      <trkpt lat="45.187205784022808" lon="7.078389739617705">
        <ele>2584.2199999999998</ele>
        <time>2022-08-06T11:56:18Z</time>
      </trkpt>
      <trkpt lat="45.187233863398433" lon="7.078312207013369">
        <ele>2587.23</ele>
        <time>2022-08-06T11:56:29Z</time>
      </trkpt>
      <trkpt lat="45.187238641083241" lon="7.078305333852768">
        <ele>2587.46</ele>
        <time>2022-08-06T11:56:30Z</time>
      </trkpt>
      <trkpt lat="45.187283651903272" lon="7.078249426558614">
        <ele>2590.3600000000001</ele>
        <time>2022-08-06T11:56:41Z</time>
      </trkpt>
      <trkpt lat="45.187321286648512" lon="7.078159656375647">
        <ele>2593.52</ele>
        <time>2022-08-06T11:56:53Z</time>
      </trkpt>
      <trkpt lat="45.187329920008779" lon="7.078077765181661">
        <ele>2596.1799999999998</ele>
        <time>2022-08-06T11:57:07Z</time>
      </trkpt>
      <trkpt lat="45.187328495085239" lon="7.078012805432081">
        <ele>2598.2600000000002</ele>
        <time>2022-08-06T11:57:19Z</time>
      </trkpt>
      <trkpt lat="45.187325393781066" lon="7.078004758805037">
        <ele>2592.5700000000002</ele>
        <time>2022-08-06T11:57:34Z</time>
      </trkpt>
      <trkpt lat="45.187325645238161" lon="7.078005764633417">
        <ele>2592.3099999999999</ele>
        <time>2022-08-06T11:57:35Z</time>
      </trkpt>
      <trkpt lat="45.187325812876225" lon="7.078006099909544">
        <ele>2596.1999999999998</ele>
        <time>2022-08-06T11:57:36Z</time>
      </trkpt>
      <trkpt lat="45.187325729057193" lon="7.078004172071815">
        <ele>2604.73</ele>
        <time>2022-08-06T11:57:39Z</time>
      </trkpt>
      <trkpt lat="45.187325980514288" lon="7.078003166243434">
        <ele>2604.7600000000002</ele>
        <time>2022-08-06T11:57:40Z</time>
      </trkpt>
      <trkpt lat="45.187325980514288" lon="7.078002244234085">
        <ele>2601.0999999999999</ele>
        <time>2022-08-06T11:57:41Z</time>
      </trkpt>
      <trkpt lat="45.187324052676558" lon="7.077996963635087">
        <ele>2597.8000000000002</ele>
        <time>2022-08-06T11:57:46Z</time>
      </trkpt>
      <trkpt lat="45.187359089031816" lon="7.078001070767641">
        <ele>2599.98</ele>
        <time>2022-08-06T11:57:58Z</time>
      </trkpt>
      <trkpt lat="45.187360849231482" lon="7.078023534268141">
        <ele>2600.5599999999999</ele>
        <time>2022-08-06T11:58:18Z</time>
      </trkpt>
      <trkpt lat="45.187404183670878" lon="7.077985648065805">
        <ele>2602.5799999999999</ele>
        <time>2022-08-06T11:58:32Z</time>
      </trkpt>
      <trkpt lat="45.187437208369374" lon="7.077915407717228">
        <ele>2605.3000000000002</ele>
        <time>2022-08-06T11:58:42Z</time>
      </trkpt>
      <trkpt lat="45.187472831457853" lon="7.077867463231087">
        <ele>2608.5100000000002</ele>
        <time>2022-08-06T11:58:52Z</time>
      </trkpt>
      <trkpt lat="45.187489595264196" lon="7.077822284772992">
        <ele>2611.5599999999999</ele>
        <time>2022-08-06T11:59:04Z</time>
      </trkpt>
      <trkpt lat="45.187479620799422" lon="7.077804766595364">
        <ele>2613.0300000000002</ele>
        <time>2022-08-06T11:59:16Z</time>
      </trkpt>
      <trkpt lat="45.187476603314281" lon="7.077805185690522">
        <ele>2612.9899999999998</ele>
        <time>2022-08-06T11:59:31Z</time>
      </trkpt>
      <trkpt lat="45.187471406534314" lon="7.077806945890188">
        <ele>2612.1700000000001</ele>
        <time>2022-08-06T11:59:51Z</time>
      </trkpt>
      <trkpt lat="45.187504766508937" lon="7.077761264517903">
        <ele>2613.8699999999999</ele>
        <time>2022-08-06T12:00:02Z</time>
      </trkpt>
      <trkpt lat="45.187528738752007" lon="7.077702758833766">
        <ele>2616.9899999999998</ele>
        <time>2022-08-06T12:00:11Z</time>
      </trkpt>
      <trkpt lat="45.187570312991738" lon="7.077637882903218">
        <ele>2619.77</ele>
        <time>2022-08-06T12:00:22Z</time>
      </trkpt>
      <trkpt lat="45.187595710158348" lon="7.077560434117913">
        <ele>2622.04</ele>
        <time>2022-08-06T12:00:33Z</time>
      </trkpt>
      <trkpt lat="45.187603840604424" lon="7.07753486931324">
        <ele>2622.4200000000001</ele>
        <time>2022-08-06T12:00:36Z</time>
      </trkpt>
      <trkpt lat="45.187633344903588" lon="7.077482398599386">
        <ele>2624.5</ele>
        <time>2022-08-06T12:00:47Z</time>
      </trkpt>
      <trkpt lat="45.187656981870532" lon="7.077418109402061">
        <ele>2626.8800000000001</ele>
        <time>2022-08-06T12:01:02Z</time>
      </trkpt>
      <trkpt lat="45.187656143680215" lon="7.077371589839459">
        <ele>2628.75</ele>
        <time>2022-08-06T12:01:15Z</time>
      </trkpt>
      <trkpt lat="45.187643822282553" lon="7.077370584011078">
        <ele>2628.9400000000001</ele>
        <time>2022-08-06T12:01:30Z</time>
      </trkpt>
      <trkpt lat="45.187642648816109" lon="7.077380055561662">
        <ele>2629.1399999999999</ele>
        <time>2022-08-06T12:01:53Z</time>
      </trkpt>
      <trkpt lat="45.187636949121952" lon="7.077393801882863">
        <ele>2629.1100000000001</ele>
        <time>2022-08-06T12:02:17Z</time>
      </trkpt>
      <trkpt lat="45.187637619674206" lon="7.077389862388372">
        <ele>2629.25</ele>
        <time>2022-08-06T12:02:34Z</time>
      </trkpt>
      <trkpt lat="45.187635188922286" lon="7.077379049733281">
        <ele>2629.21</ele>
        <time>2022-08-06T12:02:57Z</time>
      </trkpt>
      <trkpt lat="45.187678271904588" lon="7.077375696972013">
        <ele>2631.0100000000002</ele>
        <time>2022-08-06T12:03:09Z</time>
      </trkpt>
      <trkpt lat="45.187725210562348" lon="7.077353820204735">
        <ele>2633.1799999999998</ele>
        <time>2022-08-06T12:03:21Z</time>
      </trkpt>
      <trkpt lat="45.187760666012764" lon="7.077303025871515">
        <ele>2636.4400000000001</ele>
        <time>2022-08-06T12:03:34Z</time>
      </trkpt>
      <trkpt lat="45.187787488102913" lon="7.07722800783813">
        <ele>2638.8000000000002</ele>
        <time>2022-08-06T12:03:50Z</time>
      </trkpt>
      <trkpt lat="45.187816238030791" lon="7.077194899320602">
        <ele>2641.3099999999999</ele>
        <time>2022-08-06T12:04:04Z</time>
      </trkpt>
      <trkpt lat="45.187844233587384" lon="7.077194815501571">
        <ele>2642.1999999999998</ele>
        <time>2022-08-06T12:04:18Z</time>
      </trkpt>
      <trkpt lat="45.187859404832125" lon="7.077150056138635">
        <ele>2644.6799999999998</ele>
        <time>2022-08-06T12:04:31Z</time>
      </trkpt>
      <trkpt lat="45.18785429187119" lon="7.077137567102909">
        <ele>2645.46</ele>
        <time>2022-08-06T12:04:43Z</time>
      </trkpt>
      <trkpt lat="45.187858231365681" lon="7.077114013954997">
        <ele>2645.9200000000001</ele>
        <time>2022-08-06T12:04:58Z</time>
      </trkpt>
      <trkpt lat="45.187847837805748" lon="7.077117869630456">
        <ele>2646.3400000000001</ele>
        <time>2022-08-06T12:05:17Z</time>
      </trkpt>
      <trkpt lat="45.187836270779371" lon="7.077109655365348">
        <ele>2645.1900000000001</ele>
        <time>2022-08-06T12:05:32Z</time>
      </trkpt>
      <trkpt lat="45.187838869169354" lon="7.077104542404413">
        <ele>2645.8499999999999</ele>
        <time>2022-08-06T12:05:50Z</time>
      </trkpt>
      <trkpt lat="45.187831744551659" lon="7.07710730843246">
        <ele>2646.3200000000002</ele>
        <time>2022-08-06T12:06:12Z</time>
      </trkpt>
      <trkpt lat="45.187838617712259" lon="7.077119629830122">
        <ele>2645.8699999999999</ele>
        <time>2022-08-06T12:06:29Z</time>
      </trkpt>
      <trkpt lat="45.18784012645483" lon="7.077119126915932">
        <ele>2646.5999999999999</ele>
        <time>2022-08-06T12:06:55Z</time>
      </trkpt>
      <trkpt lat="45.18783769570291" lon="7.077130526304245">
        <ele>2646.9499999999998</ele>
        <time>2022-08-06T12:07:20Z</time>
      </trkpt>
      <trkpt lat="45.187837108969688" lon="7.0771415065974">
        <ele>2646.9200000000001</ele>
        <time>2022-08-06T12:07:37Z</time>
      </trkpt>
      <trkpt lat="45.187835516408086" lon="7.077139662578702">
        <ele>2647.3899999999999</ele>
        <time>2022-08-06T12:08:12Z</time>
      </trkpt>
      <trkpt lat="45.187835600227118" lon="7.077139411121607">
        <ele>2646.8099999999999</ele>
        <time>2022-08-06T12:08:39Z</time>
      </trkpt>
      <trkpt lat="45.187834845855832" lon="7.077134968712926">
        <ele>2646.9699999999998</ele>
        <time>2022-08-06T12:09:17Z</time>
      </trkpt>
      <trkpt lat="45.187836522236466" lon="7.077132873237133">
        <ele>2646.5599999999999</ele>
        <time>2022-08-06T12:09:37Z</time>
      </trkpt>
      <trkpt lat="45.18784549087286" lon="7.077097250148654">
        <ele>2647.4499999999998</ele>
        <time>2022-08-06T12:10:01Z</time>
      </trkpt>
      <trkpt lat="45.18786795437336" lon="7.077114935964346">
        <ele>2648.9200000000001</ele>
        <time>2022-08-06T12:10:10Z</time>
      </trkpt>
      <trkpt lat="45.187902320176363" lon="7.077151397243142">
        <ele>2650.7800000000002</ele>
        <time>2022-08-06T12:10:20Z</time>
      </trkpt>
      <trkpt lat="45.187973901629448" lon="7.077114852145314">
        <ele>2653.5900000000001</ele>
        <time>2022-08-06T12:10:34Z</time>
      </trkpt>
      <trkpt lat="45.188038442283869" lon="7.077078390866518">
        <ele>2656.6599999999999</ele>
        <time>2022-08-06T12:10:48Z</time>
      </trkpt>
      <trkpt lat="45.18808638677001" lon="7.077022567391396">
        <ele>2658.6799999999998</ele>
        <time>2022-08-06T12:11:03Z</time>
      </trkpt>
      <trkpt lat="45.188089152798057" lon="7.076994990929961">
        <ele>2659.8099999999999</ele>
        <time>2022-08-06T12:11:10Z</time>
      </trkpt>
      <trkpt lat="45.188086051493883" lon="7.076983004808426">
        <ele>2659.9499999999998</ele>
        <time>2022-08-06T12:11:12Z</time>
      </trkpt>
      <trkpt lat="45.188088398426771" lon="7.076943106949329">
        <ele>2660.54</ele>
        <time>2022-08-06T12:11:18Z</time>
      </trkpt>
      <trkpt lat="45.188076915219426" lon="7.076849229633808">
        <ele>2661.2600000000002</ele>
        <time>2022-08-06T12:11:29Z</time>
      </trkpt>
      <trkpt lat="45.188090829178691" lon="7.076800027862191">
        <ele>2661.9899999999998</ele>
        <time>2022-08-06T12:11:36Z</time>
      </trkpt>
      <trkpt lat="45.188126200810075" lon="7.076799608767033">
        <ele>2662.5700000000002</ele>
        <time>2022-08-06T12:11:43Z</time>
      </trkpt>
      <trkpt lat="45.188125781714916" lon="7.076803045347333">
        <ele>2662.6100000000001</ele>
        <time>2022-08-06T12:11:55Z</time>
      </trkpt>
      <trkpt lat="45.188115639612079" lon="7.076830454170704">
        <ele>2662.8400000000001</ele>
        <time>2022-08-06T12:12:08Z</time>
      </trkpt>
      <trkpt lat="45.188126787543297" lon="7.076857276260853">
        <ele>2662.6999999999998</ele>
        <time>2022-08-06T12:12:19Z</time>
      </trkpt>
      <trkpt lat="45.188119746744633" lon="7.076865825802088">
        <ele>2662.5599999999999</ele>
        <time>2022-08-06T12:12:35Z</time>
      </trkpt>
      <trkpt lat="45.188117315992713" lon="7.076864652335644">
        <ele>2663.1399999999999</ele>
        <time>2022-08-06T12:12:51Z</time>
      </trkpt>
      <trkpt lat="45.188119914382696" lon="7.076861299574375">
        <ele>2663.3099999999999</ele>
        <time>2022-08-06T12:12:52Z</time>
      </trkpt>
      <trkpt lat="45.18814112059772" lon="7.076865741983056">
        <ele>2663.6900000000001</ele>
        <time>2022-08-06T12:12:59Z</time>
      </trkpt>
      <trkpt lat="45.188139611855149" lon="7.076865993440151">
        <ele>2663.6700000000001</ele>
        <time>2022-08-06T12:13:00Z</time>
      </trkpt>
      <trkpt lat="45.188123686239123" lon="7.076855264604092">
        <ele>2663.7800000000002</ele>
        <time>2022-08-06T12:13:04Z</time>
      </trkpt>
      <trkpt lat="45.188122428953648" lon="7.076850738376379">
        <ele>2663.5999999999999</ele>
        <time>2022-08-06T12:13:14Z</time>
      </trkpt>
      <trkpt lat="45.188129553571343" lon="7.076867921277881">
        <ele>2663.5500000000002</ele>
        <time>2022-08-06T12:13:22Z</time>
      </trkpt>
      <trkpt lat="45.188153693452477" lon="7.07683464512229">
        <ele>2664.2600000000002</ele>
        <time>2022-08-06T12:13:32Z</time>
      </trkpt>
      <trkpt lat="45.18816752359271" lon="7.07680388353765">
        <ele>2665.6300000000001</ele>
        <time>2022-08-06T12:13:42Z</time>
      </trkpt>
      <trkpt lat="45.188170121982694" lon="7.076795250177383">
        <ele>2665.6900000000001</ele>
        <time>2022-08-06T12:13:57Z</time>
      </trkpt>
      <trkpt lat="45.18816601485014" lon="7.076802039518952">
        <ele>2665.8200000000002</ele>
        <time>2022-08-06T12:14:08Z</time>
      </trkpt>
      <trkpt lat="45.188175234943628" lon="7.07680631428957">
        <ele>2665.8299999999999</ele>
        <time>2022-08-06T12:14:12Z</time>
      </trkpt>
      <trkpt lat="45.188186382874846" lon="7.076808996498585">
        <ele>2666.3499999999999</ele>
        <time>2022-08-06T12:14:19Z</time>
      </trkpt>
      <trkpt lat="45.188262658193707" lon="7.076753843575716">
        <ele>2667.9499999999998</ele>
        <time>2022-08-06T12:14:31Z</time>
      </trkpt>
      <trkpt lat="45.188343208283186" lon="7.076704557985067">
        <ele>2670</ele>
        <time>2022-08-06T12:14:46Z</time>
      </trkpt>
      <trkpt lat="45.188415376469493" lon="7.076661726459861">
        <ele>2671.4400000000001</ele>
        <time>2022-08-06T12:14:59Z</time>
      </trkpt>
      <trkpt lat="45.188472121953964" lon="7.076602131128311">
        <ele>2673.4400000000001</ele>
        <time>2022-08-06T12:15:12Z</time>
      </trkpt>
      <trkpt lat="45.188510427251458" lon="7.076525269076228">
        <ele>2675.1399999999999</ele>
        <time>2022-08-06T12:15:26Z</time>
      </trkpt>
      <trkpt lat="45.188526101410389" lon="7.076471457257867">
        <ele>2676.2399999999998</ele>
        <time>2022-08-06T12:15:34Z</time>
      </trkpt>
      <trkpt lat="45.188538674265146" lon="7.07642761990428">
        <ele>2677.1300000000001</ele>
        <time>2022-08-06T12:15:45Z</time>
      </trkpt>
      <trkpt lat="45.188579158857465" lon="7.076382273808122">
        <ele>2679.25</ele>
        <time>2022-08-06T12:15:58Z</time>
      </trkpt>
      <trkpt lat="45.188601119443774" lon="7.076346315443516">
        <ele>2680.1300000000001</ele>
        <time>2022-08-06T12:16:06Z</time>
      </trkpt>
      <trkpt lat="45.188601706176996" lon="7.076271548867226">
        <ele>2681.4000000000001</ele>
        <time>2022-08-06T12:16:17Z</time>
      </trkpt>
      <trkpt lat="45.188606567680836" lon="7.076248247176409">
        <ele>2682.0799999999999</ele>
        <time>2022-08-06T12:16:31Z</time>
      </trkpt>
      <trkpt lat="45.188618889078498" lon="7.076179934665561">
        <ele>2682.5700000000002</ele>
        <time>2022-08-06T12:16:50Z</time>
      </trkpt>
      <trkpt lat="45.188666079193354" lon="7.076073400676251">
        <ele>2684.02</ele>
        <time>2022-08-06T12:17:03Z</time>
      </trkpt>
      <trkpt lat="45.188734726980329" lon="7.075933506712318">
        <ele>2686.6999999999998</ele>
        <time>2022-08-06T12:17:19Z</time>
      </trkpt>
      <trkpt lat="45.188762973994017" lon="7.075861757621169">
        <ele>2688.7199999999998</ele>
        <time>2022-08-06T12:17:31Z</time>
      </trkpt>
      <trkpt lat="45.188789879903197" lon="7.075838036835194">
        <ele>2690.0700000000002</ele>
        <time>2022-08-06T12:17:43Z</time>
      </trkpt>
      <trkpt lat="45.188817204907537" lon="7.075875923037529">
        <ele>2691.3200000000002</ele>
        <time>2022-08-06T12:18:00Z</time>
      </trkpt>
      <trkpt lat="45.188836231827736" lon="7.075944487005472">
        <ele>2692.6900000000001</ele>
        <time>2022-08-06T12:18:13Z</time>
      </trkpt>
      <trkpt lat="45.18885794095695" lon="7.076009027659893">
        <ele>2693.8299999999999</ele>
        <time>2022-08-06T12:18:27Z</time>
      </trkpt>
      <trkpt lat="45.188885265961289" lon="7.076102988794446">
        <ele>2694.8200000000002</ele>
        <time>2022-08-06T12:18:42Z</time>
      </trkpt>
      <trkpt lat="45.188908483833075" lon="7.076168116182089">
        <ele>2695.8400000000001</ele>
        <time>2022-08-06T12:18:54Z</time>
      </trkpt>
      <trkpt lat="45.188934886828065" lon="7.076160991564393">
        <ele>2697.0999999999999</ele>
        <time>2022-08-06T12:19:07Z</time>
      </trkpt>
      <trkpt lat="45.188989536836743" lon="7.076187897473574">
        <ele>2699.3800000000001</ele>
        <time>2022-08-06T12:19:19Z</time>
      </trkpt>
      <trkpt lat="45.189011581242085" lon="7.076269621029496">
        <ele>2700.8699999999999</ele>
        <time>2022-08-06T12:19:32Z</time>
      </trkpt>
      <trkpt lat="45.189047874882817" lon="7.076288312673569">
        <ele>2702.1300000000001</ele>
        <time>2022-08-06T12:19:49Z</time>
      </trkpt>
      <trkpt lat="45.189078133553267" lon="7.076339107006788">
        <ele>2702.8000000000002</ele>
        <time>2022-08-06T12:19:59Z</time>
      </trkpt>
      <trkpt lat="45.189102608710527" lon="7.076389733701944">
        <ele>2703.0999999999999</ele>
        <time>2022-08-06T12:20:05Z</time>
      </trkpt>
      <trkpt lat="45.189051060006022" lon="7.076525688171387">
        <ele>2702.7199999999998</ele>
        <time>2022-08-06T12:20:18Z</time>
      </trkpt>
      <trkpt lat="45.189053239300847" lon="7.076559215784073">
        <ele>2702.9699999999998</ele>
        <time>2022-08-06T12:20:33Z</time>
      </trkpt>
      <trkpt lat="45.189051311463118" lon="7.076551169157028">
        <ele>2702.5900000000001</ele>
        <time>2022-08-06T12:20:47Z</time>
      </trkpt>
      <trkpt lat="45.189051982015371" lon="7.076548570767045">
        <ele>2703.6199999999999</ele>
        <time>2022-08-06T12:21:01Z</time>
      </trkpt>
      <trkpt lat="45.189052820205688" lon="7.076547397300601">
        <ele>2702.8200000000002</ele>
        <time>2022-08-06T12:21:03Z</time>
      </trkpt>
      <trkpt lat="45.189050389453769" lon="7.076547313481569">
        <ele>2702.3499999999999</ele>
        <time>2022-08-06T12:21:20Z</time>
      </trkpt>
      <trkpt lat="45.189061788842082" lon="7.076533231884241">
        <ele>2702.7199999999998</ele>
        <time>2022-08-06T12:21:37Z</time>
      </trkpt>
      <trkpt lat="45.189060615375638" lon="7.076540105044842">
        <ele>2702.8000000000002</ele>
        <time>2022-08-06T12:21:54Z</time>
      </trkpt>
      <trkpt lat="45.189057011157274" lon="7.076543122529984">
        <ele>2703.1100000000001</ele>
        <time>2022-08-06T12:22:14Z</time>
      </trkpt>
      <trkpt lat="45.189055586233735" lon="7.076545301824808">
        <ele>2703.0300000000002</ele>
        <time>2022-08-06T12:22:33Z</time>
      </trkpt>
      <trkpt lat="45.189057849347591" lon="7.076547900214791">
        <ele>2702.8800000000001</ele>
        <time>2022-08-06T12:22:52Z</time>
      </trkpt>
      <trkpt lat="45.18908366560936" lon="7.076512863859534">
        <ele>2703.9899999999998</ele>
        <time>2022-08-06T12:23:05Z</time>
      </trkpt>
      <trkpt lat="45.189089365303516" lon="7.076503140851855">
        <ele>2703.77</ele>
        <time>2022-08-06T12:23:06Z</time>
      </trkpt>
      <trkpt lat="45.189106129109859" lon="7.076486125588417">
        <ele>2703.1199999999999</ele>
        <time>2022-08-06T12:23:08Z</time>
      </trkpt>
      <trkpt lat="45.189139237627387" lon="7.076437845826149">
        <ele>2703.2199999999998</ele>
        <time>2022-08-06T12:23:13Z</time>
      </trkpt>
      <trkpt lat="45.189206292852759" lon="7.076406078413129">
        <ele>2704.48</ele>
        <time>2022-08-06T12:23:24Z</time>
      </trkpt>
      <trkpt lat="45.189269576221704" lon="7.076357295736671">
        <ele>2707.5300000000002</ele>
        <time>2022-08-06T12:23:35Z</time>
      </trkpt>
      <trkpt lat="45.189345180988312" lon="7.076301975175738">
        <ele>2710.6999999999998</ele>
        <time>2022-08-06T12:23:51Z</time>
      </trkpt>
      <trkpt lat="45.18941055983305" lon="7.076298706233501">
        <ele>2713.5300000000002</ele>
        <time>2022-08-06T12:24:06Z</time>
      </trkpt>
      <trkpt lat="45.189461186528206" lon="7.076238943263888">
        <ele>2715.8299999999999</ele>
        <time>2022-08-06T12:24:20Z</time>
      </trkpt>
      <trkpt lat="45.189516339451075" lon="7.076209522783756">
        <ele>2718.6300000000001</ele>
        <time>2022-08-06T12:24:36Z</time>
      </trkpt>
      <trkpt lat="45.189571157097816" lon="7.076177168637514">
        <ele>2721.5</ele>
        <time>2022-08-06T12:24:52Z</time>
      </trkpt>
      <trkpt lat="45.189620526507497" lon="7.076147412881255">
        <ele>2724.0700000000002</ele>
        <time>2022-08-06T12:25:08Z</time>
      </trkpt>
      <trkpt lat="45.189670147374272" lon="7.076102821156383">
        <ele>2726.8400000000001</ele>
        <time>2022-08-06T12:25:24Z</time>
      </trkpt>
      <trkpt lat="45.189715828746557" lon="7.076109107583761">
        <ele>2729.2399999999998</ele>
        <time>2022-08-06T12:25:40Z</time>
      </trkpt>
      <trkpt lat="45.189785230904818" lon="7.076083710417152">
        <ele>2730.7399999999998</ele>
        <time>2022-08-06T12:25:55Z</time>
      </trkpt>
      <trkpt lat="45.189845245331526" lon="7.076095109805465">
        <ele>2732.9899999999998</ele>
        <time>2022-08-06T12:26:10Z</time>
      </trkpt>
      <trkpt lat="45.18986351788044" lon="7.076045824214816">
        <ele>2734.8299999999999</ele>
        <time>2022-08-06T12:26:23Z</time>
      </trkpt>
      <trkpt lat="45.189865194261074" lon="7.076054541394115">
        <ele>2735.1399999999999</ele>
        <time>2022-08-06T12:26:43Z</time>
      </trkpt>
      <trkpt lat="45.189876677468419" lon="7.076000981032848">
        <ele>2736.4699999999998</ele>
        <time>2022-08-06T12:26:57Z</time>
      </trkpt>
      <trkpt lat="45.189885310828686" lon="7.075971560552716">
        <ele>2738.4899999999998</ele>
        <time>2022-08-06T12:27:02Z</time>
      </trkpt>
      <trkpt lat="45.189894698560238" lon="7.075895788148046">
        <ele>2741.8400000000001</ele>
        <time>2022-08-06T12:27:17Z</time>
      </trkpt>
      <trkpt lat="45.189929232001305" lon="7.07584616728127">
        <ele>2744.4200000000001</ele>
        <time>2022-08-06T12:27:31Z</time>
      </trkpt>
      <trkpt lat="45.189942643046379" lon="7.075796965509653">
        <ele>2746.75</ele>
        <time>2022-08-06T12:27:44Z</time>
      </trkpt>
      <trkpt lat="45.189986228942871" lon="7.075753714889288">
        <ele>2749.3400000000001</ele>
        <time>2022-08-06T12:27:59Z</time>
      </trkpt>
      <trkpt lat="45.190022690221667" lon="7.075779614970088">
        <ele>2751.1500000000001</ele>
        <time>2022-08-06T12:28:11Z</time>
      </trkpt>
      <trkpt lat="45.190036352723837" lon="7.075723623856902">
        <ele>2752.46</ele>
        <time>2022-08-06T12:28:23Z</time>
      </trkpt>
      <trkpt lat="45.190060827881098" lon="7.075695795938373">
        <ele>2754.6500000000001</ele>
        <time>2022-08-06T12:28:36Z</time>
      </trkpt>
      <trkpt lat="45.190102905035019" lon="7.075684983283281">
        <ele>2757.5</ele>
        <time>2022-08-06T12:28:51Z</time>
      </trkpt>
      <trkpt lat="45.190160321071744" lon="7.075690682977438">
        <ele>2759.5700000000002</ele>
        <time>2022-08-06T12:29:03Z</time>
      </trkpt>
      <trkpt lat="45.190169205889106" lon="7.0756477676332">
        <ele>2761.2199999999998</ele>
        <time>2022-08-06T12:29:17Z</time>
      </trkpt>
      <trkpt lat="45.190162500366569" lon="7.075621280819178">
        <ele>2762.0300000000002</ele>
        <time>2022-08-06T12:29:30Z</time>
      </trkpt>
      <trkpt lat="45.190166439861059" lon="7.075638044625521">
        <ele>2762.29</ele>
        <time>2022-08-06T12:29:51Z</time>
      </trkpt>
      <trkpt lat="45.190170714631677" lon="7.075640978291631">
        <ele>2762.0999999999999</ele>
        <time>2022-08-06T12:30:08Z</time>
      </trkpt>
      <trkpt lat="45.190165266394615" lon="7.075643576681614">
        <ele>2762.3600000000001</ele>
        <time>2022-08-06T12:30:23Z</time>
      </trkpt>
      <trkpt lat="45.190162668004632" lon="7.07563167437911">
        <ele>2762.6300000000001</ele>
        <time>2022-08-06T12:30:41Z</time>
      </trkpt>
      <trkpt lat="45.1901591476053" lon="7.075646761804819">
        <ele>2762.4299999999998</ele>
        <time>2022-08-06T12:30:59Z</time>
      </trkpt>
      <trkpt lat="45.190178928896785" lon="7.075590016320348">
        <ele>2763.25</ele>
        <time>2022-08-06T12:31:12Z</time>
      </trkpt>
      <trkpt lat="45.190212121233344" lon="7.075529247522354">
        <ele>2766.3099999999999</ele>
        <time>2022-08-06T12:31:24Z</time>
      </trkpt>
      <trkpt lat="45.190233243629336" lon="7.075538467615843">
        <ele>2769.3299999999999</ele>
        <time>2022-08-06T12:31:33Z</time>
      </trkpt>
      <trkpt lat="45.190278589725494" lon="7.075560847297311">
        <ele>2771.1100000000001</ele>
        <time>2022-08-06T12:31:44Z</time>
      </trkpt>
      <trkpt lat="45.190332569181919" lon="7.075570821762085">
        <ele>2773.8000000000002</ele>
        <time>2022-08-06T12:31:58Z</time>
      </trkpt>
      <trkpt lat="45.190372718498111" lon="7.075554896146059">
        <ele>2775.8200000000002</ele>
        <time>2022-08-06T12:32:11Z</time>
      </trkpt>
      <trkpt lat="45.190406246110797" lon="7.075531594455242">
        <ele>2777.9000000000001</ele>
        <time>2022-08-06T12:32:21Z</time>
      </trkpt>
      <trkpt lat="45.190429296344519" lon="7.075496139004827">
        <ele>2779.6300000000001</ele>
        <time>2022-08-06T12:32:32Z</time>
      </trkpt>
      <trkpt lat="45.190479587763548" lon="7.075498234480619">
        <ele>2782.2199999999998</ele>
        <time>2022-08-06T12:32:48Z</time>
      </trkpt>
      <trkpt lat="45.19052074290812" lon="7.075518015772104">
        <ele>2784.5799999999999</ele>
        <time>2022-08-06T12:33:01Z</time>
      </trkpt>
      <trkpt lat="45.190556030720472" lon="7.075533522292972">
        <ele>2786.3400000000001</ele>
        <time>2022-08-06T12:33:13Z</time>
      </trkpt>
      <trkpt lat="45.190566256642342" lon="7.075556823983789">
        <ele>2786.6199999999999</ele>
        <time>2022-08-06T12:33:27Z</time>
      </trkpt>
      <trkpt lat="45.190574806183577" lon="7.075554644688964">
        <ele>2785.9200000000001</ele>
        <time>2022-08-06T12:33:43Z</time>
      </trkpt>
      <trkpt lat="45.190569441765547" lon="7.075553135946393">
        <ele>2786.8099999999999</ele>
        <time>2022-08-06T12:33:52Z</time>
      </trkpt>
      <trkpt lat="45.190571872517467" lon="7.075550621375442">
        <ele>2787</ele>
        <time>2022-08-06T12:34:11Z</time>
      </trkpt>
      <trkpt lat="45.190581846982241" lon="7.075560092926025">
        <ele>2786.1199999999999</ele>
        <time>2022-08-06T12:34:23Z</time>
      </trkpt>
      <trkpt lat="45.190587295219302" lon="7.07556520588696">
        <ele>2786.23</ele>
        <time>2022-08-06T12:34:42Z</time>
      </trkpt>
      <trkpt lat="45.190584696829319" lon="7.075561936944723">
        <ele>2786.1399999999999</ele>
        <time>2022-08-06T12:35:02Z</time>
      </trkpt>
      <trkpt lat="45.19058670848608" lon="7.075562356039882">
        <ele>2786.48</ele>
        <time>2022-08-06T12:35:19Z</time>
      </trkpt>
      <trkpt lat="45.190583439543843" lon="7.075566379353404">
        <ele>2787.5799999999999</ele>
        <time>2022-08-06T12:35:28Z</time>
      </trkpt>
      <trkpt lat="45.190578075125813" lon="7.075565960258246">
        <ele>2786.5999999999999</ele>
        <time>2022-08-06T12:35:43Z</time>
      </trkpt>
      <trkpt lat="45.190578242763877" lon="7.075577778741717">
        <ele>2787.6900000000001</ele>
        <time>2022-08-06T12:36:04Z</time>
      </trkpt>
      <trkpt lat="45.190577739849687" lon="7.075583143159747">
        <ele>2787.4099999999999</ele>
        <time>2022-08-06T12:36:39Z</time>
      </trkpt>
      <trkpt lat="45.190569274127483" lon="7.075593452900648">
        <ele>2787.6300000000001</ele>
        <time>2022-08-06T12:37:09Z</time>
      </trkpt>
      <trkpt lat="45.190566256642342" lon="7.075589513406158">
        <ele>2787.6999999999998</ele>
        <time>2022-08-06T12:37:22Z</time>
      </trkpt>
      <trkpt lat="45.190587462857366" lon="7.075557410717011">
        <ele>2788.8299999999999</ele>
        <time>2022-08-06T12:37:41Z</time>
      </trkpt>
      <trkpt lat="45.190656194463372" lon="7.075549196451902">
        <ele>2791.4499999999998</ele>
        <time>2022-08-06T12:37:54Z</time>
      </trkpt>
      <trkpt lat="45.190713945776224" lon="7.075522625818849">
        <ele>2794.6900000000001</ele>
        <time>2022-08-06T12:38:07Z</time>
      </trkpt>
      <trkpt lat="45.190760549157858" lon="7.075514243915677">
        <ele>2797.8600000000001</ele>
        <time>2022-08-06T12:38:21Z</time>
      </trkpt>
      <trkpt lat="45.190778989344835" lon="7.075456911697984">
        <ele>2800.0300000000002</ele>
        <time>2022-08-06T12:38:34Z</time>
      </trkpt>
      <trkpt lat="45.190820144489408" lon="7.075438220053911">
        <ele>2802.5999999999999</ele>
        <time>2022-08-06T12:38:49Z</time>
      </trkpt>
      <trkpt lat="45.190863311290741" lon="7.075448445975781">
        <ele>2803.6599999999999</ele>
        <time>2022-08-06T12:39:06Z</time>
      </trkpt>
      <trkpt lat="45.190891725942492" lon="7.075441740453243">
        <ele>2806.7600000000002</ele>
        <time>2022-08-06T12:39:16Z</time>
      </trkpt>
      <trkpt lat="45.190934054553509" lon="7.075462024658918">
        <ele>2807.5799999999999</ele>
        <time>2022-08-06T12:39:27Z</time>
      </trkpt>
      <trkpt lat="45.191000942140818" lon="7.075470741838217">
        <ele>2808.8099999999999</ele>
        <time>2022-08-06T12:39:42Z</time>
      </trkpt>
      <trkpt lat="45.191078390926123" lon="7.075475938618183">
        <ele>2811.3400000000001</ele>
        <time>2022-08-06T12:39:58Z</time>
      </trkpt>
      <trkpt lat="45.191178722307086" lon="7.075529918074608">
        <ele>2813.8699999999999</ele>
        <time>2022-08-06T12:40:17Z</time>
      </trkpt>
      <trkpt lat="45.19117989577353" lon="7.075485745444894">
        <ele>2816.0300000000002</ele>
        <time>2022-08-06T12:40:29Z</time>
      </trkpt>
      <trkpt lat="45.191192300990224" lon="7.075493289157748">
        <ele>2815.9899999999998</ele>
        <time>2022-08-06T12:40:40Z</time>
      </trkpt>
      <trkpt lat="45.191187271848321" lon="7.075508711859584">
        <ele>2816.2600000000002</ele>
        <time>2022-08-06T12:41:00Z</time>
      </trkpt>
      <trkpt lat="45.191140249371529" lon="7.075456408783793">
        <ele>2817.0799999999999</ele>
        <time>2022-08-06T12:41:14Z</time>
      </trkpt>
      <trkpt lat="45.191098842769861" lon="7.075368063524365">
        <ele>2819.23</ele>
        <time>2022-08-06T12:41:26Z</time>
      </trkpt>
      <trkpt lat="45.191023573279381" lon="7.075246358290315">
        <ele>2821.6900000000001</ele>
        <time>2022-08-06T12:41:41Z</time>
      </trkpt>
      <trkpt lat="45.190960541367531" lon="7.075153654441237">
        <ele>2824.25</ele>
        <time>2022-08-06T12:41:55Z</time>
      </trkpt>
      <trkpt lat="45.190922319889069" lon="7.075080396607518">
        <ele>2826.5</ele>
        <time>2022-08-06T12:42:07Z</time>
      </trkpt>
      <trkpt lat="45.190857024863362" lon="7.074996326118708">
        <ele>2829.2399999999998</ele>
        <time>2022-08-06T12:42:22Z</time>
      </trkpt>
      <trkpt lat="45.190839925780892" lon="7.074916362762451">
        <ele>2831.4899999999998</ele>
        <time>2022-08-06T12:42:35Z</time>
      </trkpt>
      <trkpt lat="45.190831208601594" lon="7.074846038594842">
        <ele>2832.6100000000001</ele>
        <time>2022-08-06T12:42:48Z</time>
      </trkpt>
      <trkpt lat="45.190833806991577" lon="7.074843691661954">
        <ele>2832.8200000000002</ele>
        <time>2022-08-06T12:43:02Z</time>
      </trkpt>
      <trkpt lat="45.190841937437654" lon="7.074807733297348">
        <ele>2833.04</ele>
        <time>2022-08-06T12:43:20Z</time>
      </trkpt>
      <trkpt lat="45.190846212208271" lon="7.074801027774811">
        <ele>2833.1300000000001</ele>
        <time>2022-08-06T12:43:21Z</time>
      </trkpt>
      <trkpt lat="45.19092827104032" lon="7.074840841814876">
        <ele>2836.27</ele>
        <time>2022-08-06T12:43:34Z</time>
      </trkpt>
      <trkpt lat="45.190992644056678" lon="7.074910160154104">
        <ele>2837.8699999999999</ele>
        <time>2022-08-06T12:43:48Z</time>
      </trkpt>
      <trkpt lat="45.191014856100082" lon="7.0748879481107">
        <ele>2839.0999999999999</ele>
        <time>2022-08-06T12:43:59Z</time>
      </trkpt>
      <trkpt lat="45.191020304337144" lon="7.074815528467298">
        <ele>2841.6300000000001</ele>
        <time>2022-08-06T12:44:15Z</time>
      </trkpt>
      <trkpt lat="45.19103723578155" lon="7.074734307825565">
        <ele>2841.6999999999998</ele>
        <time>2022-08-06T12:44:26Z</time>
      </trkpt>
      <trkpt lat="45.190997002646327" lon="7.074713772162795">
        <ele>2841.6999999999998</ele>
        <time>2022-08-06T12:44:38Z</time>
      </trkpt>
      <trkpt lat="45.190983507782221" lon="7.074715448543429">
        <ele>2841.1999999999998</ele>
        <time>2022-08-06T12:44:50Z</time>
      </trkpt>
      <trkpt lat="45.190988536924124" lon="7.074765069410205">
        <ele>2841.4699999999998</ele>
        <time>2022-08-06T12:45:00Z</time>
      </trkpt>
      <trkpt lat="45.190977891907096" lon="7.074683681130409">
        <ele>2840.9099999999999</ele>
        <time>2022-08-06T12:45:11Z</time>
      </trkpt>
      <trkpt lat="45.191015778109431" lon="7.074687536805868">
        <ele>2841.9400000000001</ele>
        <time>2022-08-06T12:45:22Z</time>
      </trkpt>
      <trkpt lat="45.19102156162262" lon="7.074696505442262">
        <ele>2841.8600000000001</ele>
        <time>2022-08-06T12:45:36Z</time>
      </trkpt>
      <trkpt lat="45.19100253470242" lon="7.07467831671238">
        <ele>2841.71</ele>
        <time>2022-08-06T12:45:55Z</time>
      </trkpt>
      <trkpt lat="45.191009910777211" lon="7.074660714715719">
        <ele>2841.0500000000002</ele>
        <time>2022-08-06T12:46:10Z</time>
      </trkpt>
      <trkpt lat="45.19102499820292" lon="7.07466809079051">
        <ele>2840.3600000000001</ele>
        <time>2022-08-06T12:46:27Z</time>
      </trkpt>
    </trkseg>
  </trk>

  <trk>
    <name>Rocciamelone2022-08-07</name>
    <extensions>
      <gpxx:TrackExtension>
        <gpxx:DisplayColor>Yellow</gpxx:DisplayColor>
      </gpxx:TrackExtension>
      <gpxtrkx:TrackStatsExtension xmlns:gpxtrkx="http://www.garmin.com/xmlschemas/TrackStatsExtension/v1">
        <gpxtrkx:Distance>8143</gpxtrkx:Distance>
        <gpxtrkx:TotalElapsedTime>43757</gpxtrkx:TotalElapsedTime>
        <gpxtrkx:MovingTime>13398</gpxtrkx:MovingTime>
        <gpxtrkx:StoppedTime>6095</gpxtrkx:StoppedTime>
        <gpxtrkx:MovingSpeed>0.608</gpxtrkx:MovingSpeed>
        <gpxtrkx:MaxSpeed>4.155</gpxtrkx:MaxSpeed>
        <gpxtrkx:MaxElevation>3544.618</gpxtrkx:MaxElevation>
        <gpxtrkx:MinElevation>454.667</gpxtrkx:MinElevation>
        <gpxtrkx:Ascent>697</gpxtrkx:Ascent>
        <gpxtrkx:Descent>1347.368</gpxtrkx:Descent>
        <gpxtrkx:AvgAscentRate>0.08</gpxtrkx:AvgAscentRate>
        <gpxtrkx:MaxAscentRate>0.272</gpxtrkx:MaxAscentRate>
        <gpxtrkx:AvgDescentRate>0.139</gpxtrkx:AvgDescentRate>
        <gpxtrkx:MaxDescentRate>-0.733</gpxtrkx:MaxDescentRate>
      </gpxtrkx:TrackStatsExtension>
    </extensions>
    <trkseg>
      <trkpt lat="45.191050730645657" lon="7.074833801016212">
        <ele>2892.0999999999999</ele>
        <time>2022-08-07T05:32:56Z</time>
      </trkpt>
      <trkpt lat="45.19105089828372" lon="7.074833381921053">
        <ele>2892.0999999999999</ele>
        <time>2022-08-07T05:32:57Z</time>
      </trkpt>
      <trkpt lat="45.191049892455339" lon="7.074831537902355">
        <ele>2851.7600000000002</ele>
        <time>2022-08-07T05:33:00Z</time>
      </trkpt>
      <trkpt lat="45.191048970445991" lon="7.074830364435911">
        <ele>2851.5900000000001</ele>
        <time>2022-08-07T05:33:01Z</time>
      </trkpt>
      <trkpt lat="45.191049389541149" lon="7.074828101322055">
        <ele>2855</ele>
        <time>2022-08-07T05:33:03Z</time>
      </trkpt>
      <trkpt lat="45.191047880798578" lon="7.074830867350102">
        <ele>2853.8600000000001</ele>
        <time>2022-08-07T05:33:04Z</time>
      </trkpt>
      <trkpt lat="45.191063052043319" lon="7.07482491619885">
        <ele>2852.3099999999999</ele>
        <time>2022-08-07T05:33:19Z</time>
      </trkpt>
      <trkpt lat="45.191040588542819" lon="7.074825502932072">
        <ele>2852.4499999999998</ele>
        <time>2022-08-07T05:33:27Z</time>
      </trkpt>
      <trkpt lat="45.191021226346493" lon="7.0747877843678">
        <ele>2852.71</ele>
        <time>2022-08-07T05:33:36Z</time>
      </trkpt>
      <trkpt lat="45.191026674583554" lon="7.07483715377748">
        <ele>2852.6799999999998</ele>
        <time>2022-08-07T05:33:45Z</time>
      </trkpt>
      <trkpt lat="45.191028853878379" lon="7.074848469346762">
        <ele>2852.5300000000002</ele>
        <time>2022-08-07T05:33:56Z</time>
      </trkpt>
      <trkpt lat="45.1909966673702" lon="7.074819132685661">
        <ele>2852.6500000000001</ele>
        <time>2022-08-07T05:34:07Z</time>
      </trkpt>
      <trkpt lat="45.190979903563857" lon="7.074788203462958">
        <ele>2852.79</ele>
        <time>2022-08-07T05:34:19Z</time>
      </trkpt>
      <trkpt lat="45.190987531095743" lon="7.07482248544693">
        <ele>2852.9099999999999</ele>
        <time>2022-08-07T05:34:28Z</time>
      </trkpt>
      <trkpt lat="45.190989626571536" lon="7.074823491275311">
        <ele>2852.8400000000001</ele>
        <time>2022-08-07T05:34:44Z</time>
      </trkpt>
      <trkpt lat="45.191021142527461" lon="7.074807230383158">
        <ele>2852.4400000000001</ele>
        <time>2022-08-07T05:34:58Z</time>
      </trkpt>
      <trkpt lat="45.191023824736476" lon="7.074820473790169">
        <ele>2852.3099999999999</ele>
        <time>2022-08-07T05:34:59Z</time>
      </trkpt>
      <trkpt lat="45.19105383194983" lon="7.074856767430902">
        <ele>2852.6199999999999</ele>
        <time>2022-08-07T05:35:03Z</time>
      </trkpt>
      <trkpt lat="45.191115019842982" lon="7.074885182082653">
        <ele>2852.7600000000002</ele>
        <time>2022-08-07T05:35:13Z</time>
      </trkpt>
      <trkpt lat="45.191146032884717" lon="7.074890127405524">
        <ele>2852.9400000000001</ele>
        <time>2022-08-07T05:35:24Z</time>
      </trkpt>
      <trkpt lat="45.191206717863679" lon="7.074906891211867">
        <ele>2855.0500000000002</ele>
        <time>2022-08-07T05:35:36Z</time>
      </trkpt>
      <trkpt lat="45.191227002069354" lon="7.074902784079313">
        <ele>2855.5799999999999</ele>
        <time>2022-08-07T05:35:51Z</time>
      </trkpt>
      <trkpt lat="45.191314509138465" lon="7.074934970587492">
        <ele>2858.27</ele>
        <time>2022-08-07T05:36:05Z</time>
      </trkpt>
      <trkpt lat="45.191361280158162" lon="7.074915273115039">
        <ele>2860.5</ele>
        <time>2022-08-07T05:36:17Z</time>
      </trkpt>
      <trkpt lat="45.191420372575521" lon="7.074920805171132">
        <ele>2863.27</ele>
        <time>2022-08-07T05:36:29Z</time>
      </trkpt>
      <trkpt lat="45.191498324275017" lon="7.074954668059945">
        <ele>2865.1100000000001</ele>
        <time>2022-08-07T05:36:45Z</time>
      </trkpt>
      <trkpt lat="45.191575773060322" lon="7.074996493756771">
        <ele>2867.5900000000001</ele>
        <time>2022-08-07T05:37:02Z</time>
      </trkpt>
      <trkpt lat="45.191652216017246" lon="7.07504284568131">
        <ele>2869.23</ele>
        <time>2022-08-07T05:37:16Z</time>
      </trkpt>
      <trkpt lat="45.19174818880856" lon="7.075090957805514">
        <ele>2871.5900000000001</ele>
        <time>2022-08-07T05:37:34Z</time>
      </trkpt>
      <trkpt lat="45.191801832988858" lon="7.075064554810524">
        <ele>2873.9699999999998</ele>
        <time>2022-08-07T05:37:49Z</time>
      </trkpt>
      <trkpt lat="45.191881963983178" lon="7.075036894530058">
        <ele>2877.0700000000002</ele>
        <time>2022-08-07T05:38:05Z</time>
      </trkpt>
      <trkpt lat="45.191938038915396" lon="7.075041923671961">
        <ele>2878.4400000000001</ele>
        <time>2022-08-07T05:38:17Z</time>
      </trkpt>
      <trkpt lat="45.192000064998865" lon="7.075030021369457">
        <ele>2881.25</ele>
        <time>2022-08-07T05:38:32Z</time>
      </trkpt>
      <trkpt lat="45.192054463550448" lon="7.07502868026495">
        <ele>2883.52</ele>
        <time>2022-08-07T05:38:48Z</time>
      </trkpt>
      <trkpt lat="45.192109616473317" lon="7.075031530112028">
        <ele>2886.0300000000002</ele>
        <time>2022-08-07T05:39:05Z</time>
      </trkpt>
      <trkpt lat="45.192175330594182" lon="7.075046030804515">
        <ele>2888.3200000000002</ele>
        <time>2022-08-07T05:39:22Z</time>
      </trkpt>
      <trkpt lat="45.192244229838252" lon="7.075069500133395">
        <ele>2890.0999999999999</ele>
        <time>2022-08-07T05:39:37Z</time>
      </trkpt>
      <trkpt lat="45.192302567884326" lon="7.075090790167451">
        <ele>2891.98</ele>
        <time>2022-08-07T05:39:52Z</time>
      </trkpt>
      <trkpt lat="45.192352356389165" lon="7.07511568441987">
        <ele>2894.4499999999998</ele>
        <time>2022-08-07T05:40:08Z</time>
      </trkpt>
      <trkpt lat="45.192401222884655" lon="7.075142590329051">
        <ele>2896.2199999999998</ele>
        <time>2022-08-07T05:40:21Z</time>
      </trkpt>
      <trkpt lat="45.192460482940078" lon="7.075169328600168">
        <ele>2897.96</ele>
        <time>2022-08-07T05:40:34Z</time>
      </trkpt>
      <trkpt lat="45.192505409941077" lon="7.075167819857597">
        <ele>2899.4299999999998</ele>
        <time>2022-08-07T05:40:47Z</time>
      </trkpt>
      <trkpt lat="45.192548409104347" lon="7.075197994709015">
        <ele>2900.4499999999998</ele>
        <time>2022-08-07T05:41:02Z</time>
      </trkpt>
      <trkpt lat="45.192593168467283" lon="7.075217021629214">
        <ele>2901.98</ele>
        <time>2022-08-07T05:41:16Z</time>
      </trkpt>
      <trkpt lat="45.192594425752759" lon="7.075217859819531">
        <ele>2901.1900000000001</ele>
        <time>2022-08-07T05:41:26Z</time>
      </trkpt>
      <trkpt lat="45.192595850676298" lon="7.075227834284306">
        <ele>2901.0700000000002</ele>
        <time>2022-08-07T05:41:52Z</time>
      </trkpt>
      <trkpt lat="45.192578164860606" lon="7.075231773778796">
        <ele>2900.9499999999998</ele>
        <time>2022-08-07T05:42:35Z</time>
      </trkpt>
      <trkpt lat="45.192581852898002" lon="7.075222637504339">
        <ele>2901.9000000000001</ele>
        <time>2022-08-07T05:42:59Z</time>
      </trkpt>
      <trkpt lat="45.192582439631224" lon="7.075223894789815">
        <ele>2902.73</ele>
        <time>2022-08-07T05:43:17Z</time>
      </trkpt>
      <trkpt lat="45.192630216479301" lon="7.075219871476293">
        <ele>2903.3400000000001</ele>
        <time>2022-08-07T05:43:29Z</time>
      </trkpt>
      <trkpt lat="45.192689979448915" lon="7.075217859819531">
        <ele>2906.1500000000001</ele>
        <time>2022-08-07T05:43:42Z</time>
      </trkpt>
      <trkpt lat="45.192742114886642" lon="7.075240993872285">
        <ele>2908.5100000000002</ele>
        <time>2022-08-07T05:43:54Z</time>
      </trkpt>
      <trkpt lat="45.192803218960762" lon="7.075244598090649">
        <ele>2910.8600000000001</ele>
        <time>2022-08-07T05:44:07Z</time>
      </trkpt>
      <trkpt lat="45.192880248650908" lon="7.075250968337059">
        <ele>2913.8699999999999</ele>
        <time>2022-08-07T05:44:26Z</time>
      </trkpt>
      <trkpt lat="45.192938502877951" lon="7.075275694951415">
        <ele>2916.02</ele>
        <time>2022-08-07T05:44:41Z</time>
      </trkpt>
      <trkpt lat="45.192969683557749" lon="7.0752954762429">
        <ele>2917.0100000000002</ele>
        <time>2022-08-07T05:44:55Z</time>
      </trkpt>
      <trkpt lat="45.192980747669935" lon="7.075297068804503">
        <ele>2916.9200000000001</ele>
        <time>2022-08-07T05:45:12Z</time>
      </trkpt>
      <trkpt lat="45.192976556718349" lon="7.075293129310012">
        <ele>2916.9200000000001</ele>
        <time>2022-08-07T05:45:37Z</time>
      </trkpt>
      <trkpt lat="45.192981669679284" lon="7.075286926701665">
        <ele>2916.9400000000001</ele>
        <time>2022-08-07T05:46:03Z</time>
      </trkpt>
      <trkpt lat="45.193005306646228" lon="7.075276281684637">
        <ele>2917.4400000000001</ele>
        <time>2022-08-07T05:46:19Z</time>
      </trkpt>
      <trkpt lat="45.193058028817177" lon="7.075280304998159">
        <ele>2919.3200000000002</ele>
        <time>2022-08-07T05:46:33Z</time>
      </trkpt>
      <trkpt lat="45.193104967474937" lon="7.07529840990901">
        <ele>2920.98</ele>
        <time>2022-08-07T05:46:43Z</time>
      </trkpt>
      <trkpt lat="45.193178225308657" lon="7.075321124866605">
        <ele>2923.6500000000001</ele>
        <time>2022-08-07T05:46:58Z</time>
      </trkpt>
      <trkpt lat="45.193250896409154" lon="7.075347527861595">
        <ele>2925.3899999999999</ele>
        <time>2022-08-07T05:47:11Z</time>
      </trkpt>
      <trkpt lat="45.193328093737364" lon="7.075379965826869">
        <ele>2927.5</ele>
        <time>2022-08-07T05:47:25Z</time>
      </trkpt>
      <trkpt lat="45.19339925609529" lon="7.075453475117683">
        <ele>2928.73</ele>
        <time>2022-08-07T05:47:39Z</time>
      </trkpt>
      <trkpt lat="45.193468239158392" lon="7.075456492602825">
        <ele>2930.48</ele>
        <time>2022-08-07T05:47:53Z</time>
      </trkpt>
      <trkpt lat="45.193547867238522" lon="7.075531678274274">
        <ele>2932.1500000000001</ele>
        <time>2022-08-07T05:48:09Z</time>
      </trkpt>
      <trkpt lat="45.193582233041525" lon="7.07555053755641">
        <ele>2932.8000000000002</ele>
        <time>2022-08-07T05:48:23Z</time>
      </trkpt>
      <trkpt lat="45.193651216104627" lon="7.075561014935374">
        <ele>2935.3099999999999</ele>
        <time>2022-08-07T05:48:40Z</time>
      </trkpt>
      <trkpt lat="45.193692287430167" lon="7.075582975521684">
        <ele>2936.8000000000002</ele>
        <time>2022-08-07T05:48:56Z</time>
      </trkpt>
      <trkpt lat="45.19373687915504" lon="7.075592447072268">
        <ele>2938.3400000000001</ele>
        <time>2022-08-07T05:49:09Z</time>
      </trkpt>
      <trkpt lat="45.193767473101616" lon="7.075579958036542">
        <ele>2940.3600000000001</ele>
        <time>2022-08-07T05:49:22Z</time>
      </trkpt>
      <trkpt lat="45.193816842511296" lon="7.075616084039211">
        <ele>2942.1599999999999</ele>
        <time>2022-08-07T05:49:34Z</time>
      </trkpt>
      <trkpt lat="45.193858668208122" lon="7.075626561418176">
        <ele>2943.9200000000001</ele>
        <time>2022-08-07T05:49:47Z</time>
      </trkpt>
      <trkpt lat="45.193905271589756" lon="7.075646091252565">
        <ele>2945.8299999999999</ele>
        <time>2022-08-07T05:50:00Z</time>
      </trkpt>
      <trkpt lat="45.19394894130528" lon="7.075677355751395">
        <ele>2947.6599999999999</ele>
        <time>2022-08-07T05:50:12Z</time>
      </trkpt>
      <trkpt lat="45.194003758952022" lon="7.075705686584115">
        <ele>2949.73</ele>
        <time>2022-08-07T05:50:27Z</time>
      </trkpt>
      <trkpt lat="45.194045836105943" lon="7.075740806758404">
        <ele>2951.4699999999998</ele>
        <time>2022-08-07T05:50:40Z</time>
      </trkpt>
      <trkpt lat="45.194100318476558" lon="7.075784476473928">
        <ele>2953.2199999999998</ele>
        <time>2022-08-07T05:50:55Z</time>
      </trkpt>
      <trkpt lat="45.194183047860861" lon="7.0758998952806">
        <ele>2954.1999999999998</ele>
        <time>2022-08-07T05:51:11Z</time>
      </trkpt>
      <trkpt lat="45.19426410086453" lon="7.076016403734684">
        <ele>2955.3600000000001</ele>
        <time>2022-08-07T05:51:26Z</time>
      </trkpt>
      <trkpt lat="45.194277008995414" lon="7.076024701818824">
        <ele>2956.0500000000002</ele>
        <time>2022-08-07T05:51:29Z</time>
      </trkpt>
      <trkpt lat="45.194295030087233" lon="7.076043896377087">
        <ele>2956.5599999999999</ele>
        <time>2022-08-07T05:51:34Z</time>
      </trkpt>
      <trkpt lat="45.194355044513941" lon="7.076127547770739">
        <ele>2958.3699999999999</ele>
        <time>2022-08-07T05:51:47Z</time>
      </trkpt>
      <trkpt lat="45.194403911009431" lon="7.076181024312973">
        <ele>2959.4299999999998</ele>
        <time>2022-08-07T05:51:57Z</time>
      </trkpt>
      <trkpt lat="45.194446910172701" lon="7.076349249109626">
        <ele>2958.54</ele>
        <time>2022-08-07T05:52:10Z</time>
      </trkpt>
      <trkpt lat="45.194502230733633" lon="7.076414292678237">
        <ele>2959.3099999999999</ele>
        <time>2022-08-07T05:52:21Z</time>
      </trkpt>
      <trkpt lat="45.194548750296235" lon="7.076459219679236">
        <ele>2961.1700000000001</ele>
        <time>2022-08-07T05:52:35Z</time>
      </trkpt>
      <trkpt lat="45.194587726145983" lon="7.076506493613124">
        <ele>2962.8099999999999</ele>
        <time>2022-08-07T05:52:47Z</time>
      </trkpt>
      <trkpt lat="45.194615218788385" lon="7.076543625444174">
        <ele>2963.3099999999999</ele>
        <time>2022-08-07T05:52:55Z</time>
      </trkpt>
      <trkpt lat="45.194672970101237" lon="7.076694751158357">
        <ele>2965.3200000000002</ele>
        <time>2022-08-07T05:53:09Z</time>
      </trkpt>
      <trkpt lat="45.194674143567681" lon="7.076705060899258">
        <ele>2965.3899999999999</ele>
        <time>2022-08-07T05:53:10Z</time>
      </trkpt>
      <trkpt lat="45.19468042999506" lon="7.07681997679174">
        <ele>2966.46</ele>
        <time>2022-08-07T05:53:22Z</time>
      </trkpt>
      <trkpt lat="45.194698786363006" lon="7.076934725046158">
        <ele>2966.7800000000002</ele>
        <time>2022-08-07T05:53:32Z</time>
      </trkpt>
      <trkpt lat="45.194739270955324" lon="7.077037570998073">
        <ele>2968.0700000000002</ele>
        <time>2022-08-07T05:53:46Z</time>
      </trkpt>
      <trkpt lat="45.194779001176357" lon="7.077103620395064">
        <ele>2970.1999999999998</ele>
        <time>2022-08-07T05:53:59Z</time>
      </trkpt>
      <trkpt lat="45.19480892457068" lon="7.077152403071523">
        <ele>2971.8400000000001</ele>
        <time>2022-08-07T05:54:12Z</time>
      </trkpt>
      <trkpt lat="45.194836249575019" lon="7.077180901542306">
        <ele>2973.5999999999999</ele>
        <time>2022-08-07T05:54:24Z</time>
      </trkpt>
      <trkpt lat="45.194877907633781" lon="7.077248878777027">
        <ele>2975.8800000000001</ele>
        <time>2022-08-07T05:54:40Z</time>
      </trkpt>
      <trkpt lat="45.194926857948303" lon="7.077336050570011">
        <ele>2976.9899999999998</ele>
        <time>2022-08-07T05:54:52Z</time>
      </trkpt>
      <trkpt lat="45.194966336712241" lon="7.077402602881193">
        <ele>2978.5500000000002</ele>
        <time>2022-08-07T05:55:05Z</time>
      </trkpt>
      <trkpt lat="45.195006402209401" lon="7.077453145757318">
        <ele>2979.8200000000002</ele>
        <time>2022-08-07T05:55:19Z</time>
      </trkpt>
      <trkpt lat="45.195043114945292" lon="7.07746940664947">
        <ele>2981.6599999999999</ele>
        <time>2022-08-07T05:55:32Z</time>
      </trkpt>
      <trkpt lat="45.195073038339615" lon="7.077520955353975">
        <ele>2983.4699999999998</ele>
        <time>2022-08-07T05:55:43Z</time>
      </trkpt>
      <trkpt lat="45.19510698504746" lon="7.077594632282853">
        <ele>2984.9200000000001</ele>
        <time>2022-08-07T05:55:58Z</time>
      </trkpt>
      <trkpt lat="45.195136154070497" lon="7.077632518485189">
        <ele>2985.8099999999999</ele>
        <time>2022-08-07T05:56:09Z</time>
      </trkpt>
      <trkpt lat="45.19515635445714" lon="7.077639391645789">
        <ele>2986.8200000000002</ele>
        <time>2022-08-07T05:56:21Z</time>
      </trkpt>
      <trkpt lat="45.19516171887517" lon="7.077661519870162">
        <ele>2987.25</ele>
        <time>2022-08-07T05:56:35Z</time>
      </trkpt>
      <trkpt lat="45.19521108828485" lon="7.077692616730928">
        <ele>2990.1799999999998</ele>
        <time>2022-08-07T05:56:50Z</time>
      </trkpt>
      <trkpt lat="45.195249058306217" lon="7.077734274789691">
        <ele>2992.3800000000001</ele>
        <time>2022-08-07T05:57:03Z</time>
      </trkpt>
      <trkpt lat="45.195281831547618" lon="7.077780459076166">
        <ele>2993.6399999999999</ele>
        <time>2022-08-07T05:57:14Z</time>
      </trkpt>
      <trkpt lat="45.195313263684511" lon="7.077806694433093">
        <ele>2995.2199999999998</ele>
        <time>2022-08-07T05:57:27Z</time>
      </trkpt>
      <trkpt lat="45.195349808782339" lon="7.077851872891188">
        <ele>2997.23</ele>
        <time>2022-08-07T05:57:39Z</time>
      </trkpt>
      <trkpt lat="45.195384342223406" lon="7.077916665002704">
        <ele>2998.5999999999999</ele>
        <time>2022-08-07T05:57:54Z</time>
      </trkpt>
      <trkpt lat="45.19541434943676" lon="7.077952958643436">
        <ele>3000.0100000000002</ele>
        <time>2022-08-07T05:58:06Z</time>
      </trkpt>
      <trkpt lat="45.195453325286508" lon="7.078008782118559">
        <ele>3001.8200000000002</ele>
        <time>2022-08-07T05:58:19Z</time>
      </trkpt>
      <trkpt lat="45.195483583956957" lon="7.078070053830743">
        <ele>3003.3200000000002</ele>
        <time>2022-08-07T05:58:33Z</time>
      </trkpt>
      <trkpt lat="45.195515938103199" lon="7.078133001923561">
        <ele>3004.6399999999999</ele>
        <time>2022-08-07T05:58:46Z</time>
      </trkpt>
      <trkpt lat="45.195545274764299" lon="7.078196872025728">
        <ele>3005.8200000000002</ele>
        <time>2022-08-07T05:58:58Z</time>
      </trkpt>
      <trkpt lat="45.195587771013379" lon="7.078278008848429">
        <ele>3006.5900000000001</ele>
        <time>2022-08-07T05:59:09Z</time>
      </trkpt>
      <trkpt lat="45.195626411587" lon="7.078367359936237">
        <ele>3006.9499999999998</ele>
        <time>2022-08-07T05:59:21Z</time>
      </trkpt>
      <trkpt lat="45.195650802925229" lon="7.078411700204015">
        <ele>3008.7800000000002</ele>
        <time>2022-08-07T05:59:33Z</time>
      </trkpt>
      <trkpt lat="45.195679720491171" lon="7.078472469002008">
        <ele>3010.2399999999998</ele>
        <time>2022-08-07T05:59:46Z</time>
      </trkpt>
      <trkpt lat="45.195710230618715" lon="7.078503649681807">
        <ele>3011.8000000000002</ele>
        <time>2022-08-07T06:00:00Z</time>
      </trkpt>
      <trkpt lat="45.195744428783655" lon="7.078541787341237">
        <ele>3013.7800000000002</ele>
        <time>2022-08-07T06:00:16Z</time>
      </trkpt>
      <trkpt lat="45.195773765444756" lon="7.078574895858765">
        <ele>3014.9000000000001</ele>
        <time>2022-08-07T06:00:38Z</time>
      </trkpt>
      <trkpt lat="45.195816680788994" lon="7.078637592494488">
        <ele>3017.2399999999998</ele>
        <time>2022-08-07T06:00:51Z</time>
      </trkpt>
      <trkpt lat="45.195847693830729" lon="7.078679753467441">
        <ele>3018.2600000000002</ele>
        <time>2022-08-07T06:01:02Z</time>
      </trkpt>
      <trkpt lat="45.195879796519876" lon="7.078683357685804">
        <ele>3020.7600000000002</ele>
        <time>2022-08-07T06:01:14Z</time>
      </trkpt>
      <trkpt lat="45.195901840925217" lon="7.078710431233048">
        <ele>3021.4099999999999</ele>
        <time>2022-08-07T06:01:27Z</time>
      </trkpt>
      <trkpt lat="45.195939978584647" lon="7.078747227787972">
        <ele>3022.8400000000001</ele>
        <time>2022-08-07T06:01:38Z</time>
      </trkpt>
      <trkpt lat="45.195949114859104" lon="7.078756531700492">
        <ele>3022.9400000000001</ele>
        <time>2022-08-07T06:01:53Z</time>
      </trkpt>
      <trkpt lat="45.195973087102175" lon="7.078800620511174">
        <ele>3024.6199999999999</ele>
        <time>2022-08-07T06:02:06Z</time>
      </trkpt>
      <trkpt lat="45.196015248075128" lon="7.078825933858752">
        <ele>3026.8600000000001</ele>
        <time>2022-08-07T06:02:23Z</time>
      </trkpt>
      <trkpt lat="45.196039639413357" lon="7.078826772049069">
        <ele>3028.3899999999999</ele>
        <time>2022-08-07T06:02:34Z</time>
      </trkpt>
      <trkpt lat="45.196077944710851" lon="7.078863484784961">
        <ele>3029.8899999999999</ele>
        <time>2022-08-07T06:02:46Z</time>
      </trkpt>
      <trkpt lat="45.196112059056759" lon="7.078897096216679">
        <ele>3031.0999999999999</ele>
        <time>2022-08-07T06:02:59Z</time>
      </trkpt>
      <trkpt lat="45.196148687973619" lon="7.07891620695591">
        <ele>3032.5700000000002</ele>
        <time>2022-08-07T06:03:09Z</time>
      </trkpt>
      <trkpt lat="45.196192273870111" lon="7.078926768153906">
        <ele>3034.4099999999999</ele>
        <time>2022-08-07T06:03:21Z</time>
      </trkpt>
      <trkpt lat="45.196211468428373" lon="7.078938083723187">
        <ele>3035.6599999999999</ele>
        <time>2022-08-07T06:03:35Z</time>
      </trkpt>
      <trkpt lat="45.196209875866771" lon="7.078941352665424">
        <ele>3035.5100000000002</ele>
        <time>2022-08-07T06:03:59Z</time>
      </trkpt>
      <trkpt lat="45.19621767103672" lon="7.078935988247395">
        <ele>3035.77</ele>
        <time>2022-08-07T06:04:12Z</time>
      </trkpt>
      <trkpt lat="45.196257065981627" lon="7.078955685719848">
        <ele>3037.9400000000001</ele>
        <time>2022-08-07T06:04:24Z</time>
      </trkpt>
      <trkpt lat="45.196286654099822" lon="7.0789460465312">
        <ele>3039.3400000000001</ele>
        <time>2022-08-07T06:04:38Z</time>
      </trkpt>
      <trkpt lat="45.196262430399656" lon="7.078862311318517">
        <ele>3041.6799999999998</ele>
        <time>2022-08-07T06:04:55Z</time>
      </trkpt>
      <trkpt lat="45.196245582774282" lon="7.078792238608003">
        <ele>3043.2399999999998</ele>
        <time>2022-08-07T06:05:09Z</time>
      </trkpt>
      <trkpt lat="45.196222113445401" lon="7.078704228624702">
        <ele>3044.6900000000001</ele>
        <time>2022-08-07T06:05:25Z</time>
      </trkpt>
      <trkpt lat="45.196187412366271" lon="7.078601466491818">
        <ele>3044.8600000000001</ele>
        <time>2022-08-07T06:05:37Z</time>
      </trkpt>
      <trkpt lat="45.196196548640728" lon="7.078529382124543">
        <ele>3046.77</ele>
        <time>2022-08-07T06:05:51Z</time>
      </trkpt>
      <trkpt lat="45.19619420170784" lon="7.078459896147251">
        <ele>3049.3800000000001</ele>
        <time>2022-08-07T06:06:06Z</time>
      </trkpt>
      <trkpt lat="45.196196716278791" lon="7.078416058793664">
        <ele>3049.9299999999998</ele>
        <time>2022-08-07T06:06:20Z</time>
      </trkpt>
      <trkpt lat="45.196185568347573" lon="7.078293850645423">
        <ele>3052.1799999999998</ele>
        <time>2022-08-07T06:06:36Z</time>
      </trkpt>
      <trkpt lat="45.196182383224368" lon="7.078190250322223">
        <ele>3055.29</ele>
        <time>2022-08-07T06:06:53Z</time>
      </trkpt>
      <trkpt lat="45.196186490356922" lon="7.078101737424731">
        <ele>3057.1500000000001</ele>
        <time>2022-08-07T06:07:08Z</time>
      </trkpt>
      <trkpt lat="45.196191016584635" lon="7.078040633350611">
        <ele>3058.6700000000001</ele>
        <time>2022-08-07T06:07:23Z</time>
      </trkpt>
      <trkpt lat="45.196192190051079" lon="7.07795605994761">
        <ele>3060.5</ele>
        <time>2022-08-07T06:07:39Z</time>
      </trkpt>
      <trkpt lat="45.196200404316187" lon="7.077887747436762">
        <ele>3062.3800000000001</ele>
        <time>2022-08-07T06:07:54Z</time>
      </trkpt>
      <trkpt lat="45.196199482306838" lon="7.077807784080505">
        <ele>3063.9200000000001</ele>
        <time>2022-08-07T06:08:09Z</time>
      </trkpt>
      <trkpt lat="45.196195961907506" lon="7.077800743281841">
        <ele>3064.3600000000001</ele>
        <time>2022-08-07T06:08:34Z</time>
      </trkpt>
      <trkpt lat="45.196192692965269" lon="7.077698232606053">
        <ele>3065.7600000000002</ele>
        <time>2022-08-07T06:08:47Z</time>
      </trkpt>
      <trkpt lat="45.196188669651747" lon="7.077565798535943">
        <ele>3067.48</ele>
        <time>2022-08-07T06:09:02Z</time>
      </trkpt>
      <trkpt lat="45.196196883916855" lon="7.077486170455813">
        <ele>3068.77</ele>
        <time>2022-08-07T06:09:17Z</time>
      </trkpt>
      <trkpt lat="45.196193028241396" lon="7.077404279261828">
        <ele>3070.4899999999998</ele>
        <time>2022-08-07T06:09:34Z</time>
      </trkpt>
      <trkpt lat="45.196194872260094" lon="7.077323142439127">
        <ele>3071.8499999999999</ele>
        <time>2022-08-07T06:09:47Z</time>
      </trkpt>
      <trkpt lat="45.196222951635718" lon="7.077291710302234">
        <ele>3073.8899999999999</ele>
        <time>2022-08-07T06:10:02Z</time>
      </trkpt>
      <trkpt lat="45.196267459541559" lon="7.077354490756989">
        <ele>3075.6399999999999</ele>
        <time>2022-08-07T06:10:17Z</time>
      </trkpt>
      <trkpt lat="45.196305178105831" lon="7.077401261776686">
        <ele>3077.1700000000001</ele>
        <time>2022-08-07T06:10:32Z</time>
      </trkpt>
      <trkpt lat="45.196343651041389" lon="7.077462449669838">
        <ele>3078.6700000000001</ele>
        <time>2022-08-07T06:10:48Z</time>
      </trkpt>
      <trkpt lat="45.196376172825694" lon="7.077457588165999">
        <ele>3079.9899999999998</ele>
        <time>2022-08-07T06:11:01Z</time>
      </trkpt>
      <trkpt lat="45.196370808407664" lon="7.07739413715899">
        <ele>3081.4899999999998</ele>
        <time>2022-08-07T06:11:14Z</time>
      </trkpt>
      <trkpt lat="45.196393020451069" lon="7.077352982014418">
        <ele>3083.29</ele>
        <time>2022-08-07T06:11:29Z</time>
      </trkpt>
      <trkpt lat="45.196406431496143" lon="7.077321717515588">
        <ele>3084.8600000000001</ele>
        <time>2022-08-07T06:11:41Z</time>
      </trkpt>
      <trkpt lat="45.196417830884457" lon="7.077274275943637">
        <ele>3086.6799999999998</ele>
        <time>2022-08-07T06:11:53Z</time>
      </trkpt>
      <trkpt lat="45.196429146453738" lon="7.077215351164341">
        <ele>3088.3000000000002</ele>
        <time>2022-08-07T06:12:06Z</time>
      </trkpt>
      <trkpt lat="45.196418920531869" lon="7.077149469405413">
        <ele>3089.1599999999999</ele>
        <time>2022-08-07T06:12:19Z</time>
      </trkpt>
      <trkpt lat="45.19641506485641" lon="7.07705307751894">
        <ele>3090.1700000000001</ele>
        <time>2022-08-07T06:12:32Z</time>
      </trkpt>
      <trkpt lat="45.196419674903154" lon="7.076987363398075">
        <ele>3091.5900000000001</ele>
        <time>2022-08-07T06:12:45Z</time>
      </trkpt>
      <trkpt lat="45.196428140625358" lon="7.076926929876208">
        <ele>3092.9699999999998</ele>
        <time>2022-08-07T06:12:58Z</time>
      </trkpt>
      <trkpt lat="45.196431325748563" lon="7.076836656779051">
        <ele>3094.2800000000002</ele>
        <time>2022-08-07T06:13:13Z</time>
      </trkpt>
      <trkpt lat="45.196443982422352" lon="7.076757280156016">
        <ele>3096.3000000000002</ele>
        <time>2022-08-07T06:13:27Z</time>
      </trkpt>
      <trkpt lat="45.196442054584622" lon="7.076651668176055">
        <ele>3098.2399999999998</ele>
        <time>2022-08-07T06:13:42Z</time>
      </trkpt>
      <trkpt lat="45.196459824219346" lon="7.076564999297261">
        <ele>3099.7399999999998</ele>
        <time>2022-08-07T06:13:57Z</time>
      </trkpt>
      <trkpt lat="45.196482120081782" lon="7.076468104496598">
        <ele>3101.9000000000001</ele>
        <time>2022-08-07T06:14:14Z</time>
      </trkpt>
      <trkpt lat="45.196502404287457" lon="7.076364001259208">
        <ele>3103.0700000000002</ele>
        <time>2022-08-07T06:14:30Z</time>
      </trkpt>
      <trkpt lat="45.196526041254401" lon="7.0762849599123">
        <ele>3104.5900000000001</ele>
        <time>2022-08-07T06:14:44Z</time>
      </trkpt>
      <trkpt lat="45.196524197235703" lon="7.076194854453206">
        <ele>3106.5</ele>
        <time>2022-08-07T06:14:59Z</time>
      </trkpt>
      <trkpt lat="45.196506092324853" lon="7.076101982966065">
        <ele>3108.1199999999999</ele>
        <time>2022-08-07T06:15:15Z</time>
      </trkpt>
      <trkpt lat="45.196510702371597" lon="7.076055631041527">
        <ele>3109.5500000000002</ele>
        <time>2022-08-07T06:15:29Z</time>
      </trkpt>
      <trkpt lat="45.19651522859931" lon="7.076023695990443">
        <ele>3110.1599999999999</ele>
        <time>2022-08-07T06:15:46Z</time>
      </trkpt>
      <trkpt lat="45.196531908586621" lon="7.075986145064235">
        <ele>3111.5300000000002</ele>
        <time>2022-08-07T06:16:03Z</time>
      </trkpt>
      <trkpt lat="45.196554455906153" lon="7.075924202799797">
        <ele>3113.6500000000001</ele>
        <time>2022-08-07T06:16:20Z</time>
      </trkpt>
      <trkpt lat="45.196554623544216" lon="7.075846418738365">
        <ele>3115.71</ele>
        <time>2022-08-07T06:16:36Z</time>
      </trkpt>
      <trkpt lat="45.196579936891794" lon="7.075826805084944">
        <ele>3116.98</ele>
        <time>2022-08-07T06:16:49Z</time>
      </trkpt>
      <trkpt lat="45.196577338501811" lon="7.075756900012493">
        <ele>3119.0700000000002</ele>
        <time>2022-08-07T06:17:06Z</time>
      </trkpt>
      <trkpt lat="45.196608519181609" lon="7.075734520331025">
        <ele>3120.8299999999999</ele>
        <time>2022-08-07T06:17:19Z</time>
      </trkpt>
      <trkpt lat="45.196616817265749" lon="7.075699232518673">
        <ele>3121.7199999999998</ele>
        <time>2022-08-07T06:17:32Z</time>
      </trkpt>
      <trkpt lat="45.196614051237702" lon="7.075646929442883">
        <ele>3123.0999999999999</ele>
        <time>2022-08-07T06:17:45Z</time>
      </trkpt>
      <trkpt lat="45.196628803387284" lon="7.075581550598145">
        <ele>3125.0100000000002</ele>
        <time>2022-08-07T06:18:02Z</time>
      </trkpt>
      <trkpt lat="45.19664766266942" lon="7.075526565313339">
        <ele>3127.4400000000001</ele>
        <time>2022-08-07T06:18:19Z</time>
      </trkpt>
      <trkpt lat="45.196655122563243" lon="7.075459007173777">
        <ele>3129.1100000000001</ele>
        <time>2022-08-07T06:18:36Z</time>
      </trkpt>
      <trkpt lat="45.196641208603978" lon="7.075382480397821">
        <ele>3130.7600000000002</ele>
        <time>2022-08-07T06:18:51Z</time>
      </trkpt>
      <trkpt lat="45.196664845570922" lon="7.075345767661929">
        <ele>3132.5</ele>
        <time>2022-08-07T06:19:04Z</time>
      </trkpt>
      <trkpt lat="45.196664677932858" lon="7.07527058199048">
        <ele>3134.48</ele>
        <time>2022-08-07T06:19:21Z</time>
      </trkpt>
      <trkpt lat="45.196662079542875" lon="7.075203359127045">
        <ele>3135.6300000000001</ele>
        <time>2022-08-07T06:19:32Z</time>
      </trkpt>
      <trkpt lat="45.196658642962575" lon="7.075116606429219">
        <ele>3137.1300000000001</ele>
        <time>2022-08-07T06:19:46Z</time>
      </trkpt>
      <trkpt lat="45.196666102856398" lon="7.075035553425551">
        <ele>3139.5999999999999</ele>
        <time>2022-08-07T06:20:03Z</time>
      </trkpt>
      <trkpt lat="45.196657637134194" lon="7.074965061619878">
        <ele>3141.4099999999999</ele>
        <time>2022-08-07T06:20:17Z</time>
      </trkpt>
      <trkpt lat="45.196658307686448" lon="7.074919044971466">
        <ele>3142.5900000000001</ele>
        <time>2022-08-07T06:20:32Z</time>
      </trkpt>
      <trkpt lat="45.196667108684778" lon="7.074920888990164">
        <ele>3142.0900000000001</ele>
        <time>2022-08-07T06:20:58Z</time>
      </trkpt>
      <trkpt lat="45.196668868884444" lon="7.074922062456608">
        <ele>3141.8800000000001</ele>
        <time>2022-08-07T06:21:18Z</time>
      </trkpt>
      <trkpt lat="45.196665516123176" lon="7.074920469895005">
        <ele>3140.6999999999998</ele>
        <time>2022-08-07T06:21:31Z</time>
      </trkpt>
      <trkpt lat="45.196665013208985" lon="7.07491921260953">
        <ele>3141.6999999999998</ele>
        <time>2022-08-07T06:21:35Z</time>
      </trkpt>
      <trkpt lat="45.196668868884444" lon="7.074908232316375">
        <ele>3141.29</ele>
        <time>2022-08-07T06:22:09Z</time>
      </trkpt>
      <trkpt lat="45.196679094806314" lon="7.074905382469297">
        <ele>3141.79</ele>
        <time>2022-08-07T06:22:55Z</time>
      </trkpt>
      <trkpt lat="45.196685800328851" lon="7.074916614219546">
        <ele>3142.5100000000002</ele>
        <time>2022-08-07T06:23:20Z</time>
      </trkpt>
      <trkpt lat="45.196678172796965" lon="7.074915440753102">
        <ele>3142.9000000000001</ele>
        <time>2022-08-07T06:23:35Z</time>
      </trkpt>
      <trkpt lat="45.196671131998301" lon="7.0749172847718">
        <ele>3142.9699999999998</ele>
        <time>2022-08-07T06:23:53Z</time>
      </trkpt>
      <trkpt lat="45.196676580235362" lon="7.074905633926392">
        <ele>3143.1700000000001</ele>
        <time>2022-08-07T06:24:16Z</time>
      </trkpt>
      <trkpt lat="45.196720417588949" lon="7.07493388094008">
        <ele>3144.9099999999999</ele>
        <time>2022-08-07T06:24:31Z</time>
      </trkpt>
      <trkpt lat="45.196771882474422" lon="7.074976377189159">
        <ele>3147.5</ele>
        <time>2022-08-07T06:24:47Z</time>
      </trkpt>
      <trkpt lat="45.196820246055722" lon="7.075014598667622">
        <ele>3150.2199999999998</ele>
        <time>2022-08-07T06:25:03Z</time>
      </trkpt>
      <trkpt lat="45.196857964619994" lon="7.075002025812864">
        <ele>3151.9099999999999</ele>
        <time>2022-08-07T06:25:17Z</time>
      </trkpt>
      <trkpt lat="45.196885708719492" lon="7.075039660558105">
        <ele>3153.6199999999999</ele>
        <time>2022-08-07T06:25:29Z</time>
      </trkpt>
      <trkpt lat="45.196911944076419" lon="7.075012503191829">
        <ele>3155.0700000000002</ele>
        <time>2022-08-07T06:25:41Z</time>
      </trkpt>
      <trkpt lat="45.196946142241359" lon="7.075072266161442">
        <ele>3156.52</ele>
        <time>2022-08-07T06:25:54Z</time>
      </trkpt>
      <trkpt lat="45.196967432275414" lon="7.075125491246581">
        <ele>3158.3099999999999</ele>
        <time>2022-08-07T06:26:07Z</time>
      </trkpt>
      <trkpt lat="45.197005905210972" lon="7.075173100456595">
        <ele>3159.8299999999999</ele>
        <time>2022-08-07T06:26:22Z</time>
      </trkpt>
      <trkpt lat="45.197048233821988" lon="7.075229678303003">
        <ele>3161.3800000000001</ele>
        <time>2022-08-07T06:26:36Z</time>
      </trkpt>
      <trkpt lat="45.197094418108463" lon="7.075298074632883">
        <ele>3163.1900000000001</ele>
        <time>2022-08-07T06:26:51Z</time>
      </trkpt>
      <trkpt lat="45.197145296260715" lon="7.075344678014517">
        <ele>3165.1599999999999</ele>
        <time>2022-08-07T06:27:08Z</time>
      </trkpt>
      <trkpt lat="45.19719198346138" lon="7.075387760996819">
        <ele>3167.0100000000002</ele>
        <time>2022-08-07T06:27:24Z</time>
      </trkpt>
      <trkpt lat="45.197239089757204" lon="7.07541617564857">
        <ele>3169.23</ele>
        <time>2022-08-07T06:27:41Z</time>
      </trkpt>
      <trkpt lat="45.197289464995265" lon="7.075460096821189">
        <ele>3171.0999999999999</ele>
        <time>2022-08-07T06:27:56Z</time>
      </trkpt>
      <trkpt lat="45.197283094748855" lon="7.07545624114573">
        <ele>3171.54</ele>
        <time>2022-08-07T06:28:11Z</time>
      </trkpt>
      <trkpt lat="45.197324585169554" lon="7.075481303036213">
        <ele>3173.3400000000001</ele>
        <time>2022-08-07T06:28:29Z</time>
      </trkpt>
      <trkpt lat="45.197374960407615" lon="7.075539389625192">
        <ele>3176.3800000000001</ele>
        <time>2022-08-07T06:28:46Z</time>
      </trkpt>
      <trkpt lat="45.197410499677062" lon="7.075536455959082">
        <ele>3178.2199999999998</ele>
        <time>2022-08-07T06:28:59Z</time>
      </trkpt>
      <trkpt lat="45.197410583496094" lon="7.075534947216511">
        <ele>3178.1599999999999</ele>
        <time>2022-08-07T06:29:15Z</time>
      </trkpt>
      <trkpt lat="45.197437154129148" lon="7.075571408495307">
        <ele>3179.27</ele>
        <time>2022-08-07T06:29:30Z</time>
      </trkpt>
      <trkpt lat="45.197469172999263" lon="7.075610300526023">
        <ele>3181.0999999999999</ele>
        <time>2022-08-07T06:29:45Z</time>
      </trkpt>
      <trkpt lat="45.197503538802266" lon="7.075672997161746">
        <ele>3183.5300000000002</ele>
        <time>2022-08-07T06:30:03Z</time>
      </trkpt>
      <trkpt lat="45.197543017566204" lon="7.075761258602142">
        <ele>3185.1599999999999</ele>
        <time>2022-08-07T06:30:17Z</time>
      </trkpt>
      <trkpt lat="45.197562547400594" lon="7.07582806237042">
        <ele>3185.79</ele>
        <time>2022-08-07T06:30:28Z</time>
      </trkpt>
      <trkpt lat="45.197597499936819" lon="7.075932752341032">
        <ele>3186.71</ele>
        <time>2022-08-07T06:30:43Z</time>
      </trkpt>
      <trkpt lat="45.197644103318453" lon="7.076045405119658">
        <ele>3188.1300000000001</ele>
        <time>2022-08-07T06:30:58Z</time>
      </trkpt>
      <trkpt lat="45.197678301483393" lon="7.07617892883718">
        <ele>3189.5300000000002</ele>
        <time>2022-08-07T06:31:14Z</time>
      </trkpt>
      <trkpt lat="45.197681151330471" lon="7.076190328225493">
        <ele>3189.7600000000002</ele>
        <time>2022-08-07T06:31:28Z</time>
      </trkpt>
      <trkpt lat="45.197710655629635" lon="7.076267441734672">
        <ele>3191.3400000000001</ele>
        <time>2022-08-07T06:31:41Z</time>
      </trkpt>
      <trkpt lat="45.197734795510769" lon="7.0763039868325">
        <ele>3192.9200000000001</ele>
        <time>2022-08-07T06:31:52Z</time>
      </trkpt>
      <trkpt lat="45.197751559317112" lon="7.076331144198775">
        <ele>3193.75</ele>
        <time>2022-08-07T06:32:04Z</time>
      </trkpt>
      <trkpt lat="45.197769831866026" lon="7.076390068978071">
        <ele>3195.27</ele>
        <time>2022-08-07T06:32:16Z</time>
      </trkpt>
      <trkpt lat="45.197795480489731" lon="7.076477408409119">
        <ele>3197.1599999999999</ele>
        <time>2022-08-07T06:32:31Z</time>
      </trkpt>
      <trkpt lat="45.197817189618945" lon="7.076531555503607">
        <ele>3198.6900000000001</ele>
        <time>2022-08-07T06:32:45Z</time>
      </trkpt>
      <trkpt lat="45.197837138548493" lon="7.076595257967711">
        <ele>3200.1399999999999</ele>
        <time>2022-08-07T06:32:59Z</time>
      </trkpt>
      <trkpt lat="45.197863122448325" lon="7.076652590185404">
        <ele>3201.5799999999999</ele>
        <time>2022-08-07T06:33:14Z</time>
      </trkpt>
      <trkpt lat="45.197890615090728" lon="7.076748982071877">
        <ele>3202.6500000000001</ele>
        <time>2022-08-07T06:33:29Z</time>
      </trkpt>
      <trkpt lat="45.197911569848657" lon="7.076833555474877">
        <ele>3203.75</ele>
        <time>2022-08-07T06:33:44Z</time>
      </trkpt>
      <trkpt lat="45.197930596768856" lon="7.076781168580055">
        <ele>3205.8400000000001</ele>
        <time>2022-08-07T06:33:59Z</time>
      </trkpt>
      <trkpt lat="45.19792883656919" lon="7.076758285984397">
        <ele>3206.2399999999998</ele>
        <time>2022-08-07T06:34:17Z</time>
      </trkpt>
      <trkpt lat="45.197927746921778" lon="7.07674378529191">
        <ele>3206.04</ele>
        <time>2022-08-07T06:34:31Z</time>
      </trkpt>
      <trkpt lat="45.197948701679707" lon="7.076707240194082">
        <ele>3208.4499999999998</ele>
        <time>2022-08-07T06:34:47Z</time>
      </trkpt>
      <trkpt lat="45.197984492406249" lon="7.076685028150678">
        <ele>3210.9299999999998</ele>
        <time>2022-08-07T06:35:01Z</time>
      </trkpt>
      <trkpt lat="45.198002010583878" lon="7.076659211888909">
        <ele>3212.3400000000001</ele>
        <time>2022-08-07T06:35:17Z</time>
      </trkpt>
      <trkpt lat="45.198022462427616" lon="7.076620487496257">
        <ele>3214.0900000000001</ele>
        <time>2022-08-07T06:35:32Z</time>
      </trkpt>
      <trkpt lat="45.198022294789553" lon="7.076626438647509">
        <ele>3213.8200000000002</ele>
        <time>2022-08-07T06:35:54Z</time>
      </trkpt>
      <trkpt lat="45.198016259819269" lon="7.076626773923636">
        <ele>3215.2600000000002</ele>
        <time>2022-08-07T06:36:16Z</time>
      </trkpt>
      <trkpt lat="45.198022294789553" lon="7.076624678447843">
        <ele>3214.5700000000002</ele>
        <time>2022-08-07T06:36:17Z</time>
      </trkpt>
      <trkpt lat="45.198075352236629" lon="7.076594000682235">
        <ele>3216.1799999999998</ele>
        <time>2022-08-07T06:36:31Z</time>
      </trkpt>
      <trkpt lat="45.198093457147479" lon="7.076539937406778">
        <ele>3218.6399999999999</ele>
        <time>2022-08-07T06:36:44Z</time>
      </trkpt>
      <trkpt lat="45.198099659755826" lon="7.076502218842506">
        <ele>3220.1399999999999</ele>
        <time>2022-08-07T06:36:57Z</time>
      </trkpt>
      <trkpt lat="45.198107119649649" lon="7.076463075354695">
        <ele>3221.0700000000002</ele>
        <time>2022-08-07T06:37:16Z</time>
      </trkpt>
      <trkpt lat="45.198125811293721" lon="7.0764334872365">
        <ele>3222.4899999999998</ele>
        <time>2022-08-07T06:37:29Z</time>
      </trkpt>
      <trkpt lat="45.198162524029613" lon="7.076439522206783">
        <ele>3224.6999999999998</ele>
        <time>2022-08-07T06:37:43Z</time>
      </trkpt>
      <trkpt lat="45.198182305321097" lon="7.07644522190094">
        <ele>3226.3299999999999</ele>
        <time>2022-08-07T06:37:56Z</time>
      </trkpt>
      <trkpt lat="45.19819756038487" lon="7.076430302113295">
        <ele>3227.1599999999999</ele>
        <time>2022-08-07T06:38:10Z</time>
      </trkpt>
      <trkpt lat="45.198215413838625" lon="7.076427368447185">
        <ele>3227.75</ele>
        <time>2022-08-07T06:38:25Z</time>
      </trkpt>
      <trkpt lat="45.198239637538791" lon="7.076389649882913">
        <ele>3230.2199999999998</ele>
        <time>2022-08-07T06:38:42Z</time>
      </trkpt>
      <trkpt lat="45.19825916737318" lon="7.076373724266887">
        <ele>3231.5999999999999</ele>
        <time>2022-08-07T06:38:58Z</time>
      </trkpt>
      <trkpt lat="45.198291856795549" lon="7.076334748417139">
        <ele>3233.29</ele>
        <time>2022-08-07T06:39:16Z</time>
      </trkpt>
      <trkpt lat="45.198310045525432" lon="7.076326366513968">
        <ele>3234.71</ele>
        <time>2022-08-07T06:39:30Z</time>
      </trkpt>
      <trkpt lat="45.198329826816916" lon="7.076342878863215">
        <ele>3236.4099999999999</ele>
        <time>2022-08-07T06:39:45Z</time>
      </trkpt>
      <trkpt lat="45.198349356651306" lon="7.076366515830159">
        <ele>3237.7600000000002</ele>
        <time>2022-08-07T06:39:58Z</time>
      </trkpt>
      <trkpt lat="45.198375005275011" lon="7.076400211080909">
        <ele>3239.4400000000001</ele>
        <time>2022-08-07T06:40:14Z</time>
      </trkpt>
      <trkpt lat="45.198395876213908" lon="7.076376574113965">
        <ele>3240.8000000000002</ele>
        <time>2022-08-07T06:40:29Z</time>
      </trkpt>
      <trkpt lat="45.198417669162154" lon="7.076367437839508">
        <ele>3242.1100000000001</ele>
        <time>2022-08-07T06:40:44Z</time>
      </trkpt>
      <trkpt lat="45.198432002216578" lon="7.076384956017137">
        <ele>3243.3800000000001</ele>
        <time>2022-08-07T06:40:57Z</time>
      </trkpt>
      <trkpt lat="45.198446670547128" lon="7.076426278799772">
        <ele>3244.5500000000002</ele>
        <time>2022-08-07T06:41:09Z</time>
      </trkpt>
      <trkpt lat="45.198460752144456" lon="7.076431224122644">
        <ele>3245.23</ele>
        <time>2022-08-07T06:41:25Z</time>
      </trkpt>
      <trkpt lat="45.198477683588862" lon="7.076477240771055">
        <ele>3246.73</ele>
        <time>2022-08-07T06:41:39Z</time>
      </trkpt>
      <trkpt lat="45.198492016643286" lon="7.076451256871223">
        <ele>3248.02</ele>
        <time>2022-08-07T06:41:50Z</time>
      </trkpt>
      <trkpt lat="45.198506768792868" lon="7.076417477801442">
        <ele>3249.23</ele>
        <time>2022-08-07T06:42:05Z</time>
      </trkpt>
      <trkpt lat="45.198522778227925" lon="7.076390655711293">
        <ele>3250.77</ele>
        <time>2022-08-07T06:42:17Z</time>
      </trkpt>
      <trkpt lat="45.198529316112399" lon="7.07634505815804">
        <ele>3251.98</ele>
        <time>2022-08-07T06:42:28Z</time>
      </trkpt>
      <trkpt lat="45.198544319719076" lon="7.076327288523316">
        <ele>3252.77</ele>
        <time>2022-08-07T06:42:39Z</time>
      </trkpt>
      <trkpt lat="45.19855915568769" lon="7.07629032433033">
        <ele>3254.6599999999999</ele>
        <time>2022-08-07T06:42:52Z</time>
      </trkpt>
      <trkpt lat="45.198575081303716" lon="7.076244307681918">
        <ele>3255.96</ele>
        <time>2022-08-07T06:43:04Z</time>
      </trkpt>
      <trkpt lat="45.19858161918819" lon="7.076175911352038">
        <ele>3257.23</ele>
        <time>2022-08-07T06:43:16Z</time>
      </trkpt>
      <trkpt lat="45.19859435968101" lon="7.076104078441858">
        <ele>3258.7800000000002</ele>
        <time>2022-08-07T06:43:30Z</time>
      </trkpt>
      <trkpt lat="45.198609698563814" lon="7.076028725132346">
        <ele>3260.2600000000002</ele>
        <time>2022-08-07T06:43:44Z</time>
      </trkpt>
      <trkpt lat="45.19863928668201" lon="7.076009446755052">
        <ele>3261.5300000000002</ele>
        <time>2022-08-07T06:43:58Z</time>
      </trkpt>
      <trkpt lat="45.19865638576448" lon="7.076058648526669">
        <ele>3262.7600000000002</ele>
        <time>2022-08-07T06:44:11Z</time>
      </trkpt>
      <trkpt lat="45.198673903942108" lon="7.076059151440859">
        <ele>3263.8299999999999</ele>
        <time>2022-08-07T06:44:21Z</time>
      </trkpt>
      <trkpt lat="45.198699971660972" lon="7.07604892551899">
        <ele>3265.9200000000001</ele>
        <time>2022-08-07T06:44:34Z</time>
      </trkpt>
      <trkpt lat="45.19872578792274" lon="7.076072311028838">
        <ele>3267.2199999999998</ele>
        <time>2022-08-07T06:44:47Z</time>
      </trkpt>
      <trkpt lat="45.198740204796195" lon="7.076112292706966">
        <ele>3268.29</ele>
        <time>2022-08-07T06:44:59Z</time>
      </trkpt>
      <trkpt lat="45.198764763772488" lon="7.076133666560054">
        <ele>3269.75</ele>
        <time>2022-08-07T06:45:13Z</time>
      </trkpt>
      <trkpt lat="45.198781611397862" lon="7.076142551377416">
        <ele>3270.8899999999999</ele>
        <time>2022-08-07T06:45:27Z</time>
      </trkpt>
      <trkpt lat="45.198796028271317" lon="7.076187897473574">
        <ele>3272.1999999999998</ele>
        <time>2022-08-07T06:45:39Z</time>
      </trkpt>
      <trkpt lat="45.198806170374155" lon="7.076248330995441">
        <ele>3273.29</ele>
        <time>2022-08-07T06:45:50Z</time>
      </trkpt>
      <trkpt lat="45.198816312476993" lon="7.076301975175738">
        <ele>3274.4899999999998</ele>
        <time>2022-08-07T06:46:03Z</time>
      </trkpt>
      <trkpt lat="45.19883818924427" lon="7.076301807537675">
        <ele>3275.5100000000002</ele>
        <time>2022-08-07T06:46:16Z</time>
      </trkpt>
      <trkpt lat="45.198858054354787" lon="7.076289402320981">
        <ele>3277.1300000000001</ele>
        <time>2022-08-07T06:46:29Z</time>
      </trkpt>
      <trkpt lat="45.198855455964804" lon="7.076280433684588">
        <ele>3277.7600000000002</ele>
        <time>2022-08-07T06:46:38Z</time>
      </trkpt>
      <trkpt lat="45.198885463178158" lon="7.076197285205126">
        <ele>3279.4200000000001</ele>
        <time>2022-08-07T06:46:52Z</time>
      </trkpt>
      <trkpt lat="45.198922595009208" lon="7.076164511963725">
        <ele>3281.0799999999999</ele>
        <time>2022-08-07T06:47:08Z</time>
      </trkpt>
      <trkpt lat="45.198943382129073" lon="7.076180018484592">
        <ele>3282.1399999999999</ele>
        <time>2022-08-07T06:47:21Z</time>
      </trkpt>
      <trkpt lat="45.19895444624126" lon="7.076206421479583">
        <ele>3283.4299999999998</ele>
        <time>2022-08-07T06:47:33Z</time>
      </trkpt>
      <trkpt lat="45.198964001610875" lon="7.076274566352367">
        <ele>3285.1199999999999</ele>
        <time>2022-08-07T06:47:48Z</time>
      </trkpt>
      <trkpt lat="45.198990404605865" lon="7.076294180005789">
        <ele>3287.0799999999999</ele>
        <time>2022-08-07T06:48:03Z</time>
      </trkpt>
      <trkpt lat="45.199008928611875" lon="7.076268866658211">
        <ele>3288.1900000000001</ele>
        <time>2022-08-07T06:48:15Z</time>
      </trkpt>
      <trkpt lat="45.199042875319719" lon="7.07625956274569">
        <ele>3289.96</ele>
        <time>2022-08-07T06:48:30Z</time>
      </trkpt>
      <trkpt lat="45.199059890583158" lon="7.076308513060212">
        <ele>3291.3800000000001</ele>
        <time>2022-08-07T06:48:46Z</time>
      </trkpt>
      <trkpt lat="45.199082186445594" lon="7.076280685141683">
        <ele>3292.8699999999999</ele>
        <time>2022-08-07T06:49:00Z</time>
      </trkpt>
      <trkpt lat="45.199099369347095" lon="7.076294515281916">
        <ele>3293.98</ele>
        <time>2022-08-07T06:49:15Z</time>
      </trkpt>
      <trkpt lat="45.199114372953773" lon="7.076334580779076">
        <ele>3295.1999999999998</ele>
        <time>2022-08-07T06:49:29Z</time>
      </trkpt>
      <trkpt lat="45.199133902788162" lon="7.076358217746019">
        <ele>3296.29</ele>
        <time>2022-08-07T06:49:41Z</time>
      </trkpt>
      <trkpt lat="45.199166256934404" lon="7.076327791437507">
        <ele>3298.54</ele>
        <time>2022-08-07T06:49:56Z</time>
      </trkpt>
      <trkpt lat="45.199186373502016" lon="7.076351847499609">
        <ele>3299.8499999999999</ele>
        <time>2022-08-07T06:50:09Z</time>
      </trkpt>
      <trkpt lat="45.199201041832566" lon="7.076390739530325">
        <ele>3301.1500000000001</ele>
        <time>2022-08-07T06:50:22Z</time>
      </trkpt>
      <trkpt lat="45.199230127036572" lon="7.076367270201445">
        <ele>3302.9099999999999</ele>
        <time>2022-08-07T06:50:37Z</time>
      </trkpt>
      <trkpt lat="45.199249153956771" lon="7.076377496123314">
        <ele>3303.9400000000001</ele>
        <time>2022-08-07T06:50:49Z</time>
      </trkpt>
      <trkpt lat="45.199252255260944" lon="7.07642275840044">
        <ele>3304.9299999999998</ele>
        <time>2022-08-07T06:51:02Z</time>
      </trkpt>
      <trkpt lat="45.199286034330726" lon="7.076441869139671">
        <ele>3306.9099999999999</ele>
        <time>2022-08-07T06:51:20Z</time>
      </trkpt>
      <trkpt lat="45.199302295222878" lon="7.076438684016466">
        <ele>3307.7600000000002</ele>
        <time>2022-08-07T06:51:36Z</time>
      </trkpt>
      <trkpt lat="45.199296930804849" lon="7.076462907716632">
        <ele>3307.1599999999999</ele>
        <time>2022-08-07T06:51:51Z</time>
      </trkpt>
      <trkpt lat="45.199297433719039" lon="7.076458381488919">
        <ele>3306.1199999999999</ele>
        <time>2022-08-07T06:52:02Z</time>
      </trkpt>
      <trkpt lat="45.199299696832895" lon="7.076437510550022">
        <ele>3306.6599999999999</ele>
        <time>2022-08-07T06:52:38Z</time>
      </trkpt>
      <trkpt lat="45.199293829500675" lon="7.076428709551692">
        <ele>3307.1500000000001</ele>
        <time>2022-08-07T06:53:15Z</time>
      </trkpt>
      <trkpt lat="45.19929843954742" lon="7.076428458094597">
        <ele>3307.2800000000002</ele>
        <time>2022-08-07T06:53:53Z</time>
      </trkpt>
      <trkpt lat="45.199300618842244" lon="7.07643742673099">
        <ele>3307.4200000000001</ele>
        <time>2022-08-07T06:54:28Z</time>
      </trkpt>
      <trkpt lat="45.199297852814198" lon="7.076446395367384">
        <ele>3307.5799999999999</ele>
        <time>2022-08-07T06:55:03Z</time>
      </trkpt>
      <trkpt lat="45.199297517538071" lon="7.076448742300272">
        <ele>3307.54</ele>
        <time>2022-08-07T06:55:31Z</time>
      </trkpt>
      <trkpt lat="45.199302714318037" lon="7.07645301707089">
        <ele>3307.0100000000002</ele>
        <time>2022-08-07T06:56:08Z</time>
      </trkpt>
      <trkpt lat="45.199305647984147" lon="7.076450502499938">
        <ele>3308.8899999999999</ele>
        <time>2022-08-07T06:56:11Z</time>
      </trkpt>
      <trkpt lat="45.199308749288321" lon="7.076447401195765">
        <ele>3308.5700000000002</ele>
        <time>2022-08-07T06:56:33Z</time>
      </trkpt>
      <trkpt lat="45.199314532801509" lon="7.076450334861875">
        <ele>3308.5599999999999</ele>
        <time>2022-08-07T06:56:55Z</time>
      </trkpt>
      <trkpt lat="45.199312940239906" lon="7.076462237164378">
        <ele>3307.6500000000001</ele>
        <time>2022-08-07T06:57:13Z</time>
      </trkpt>
      <trkpt lat="45.199300954118371" lon="7.076465170830488">
        <ele>3307.79</ele>
        <time>2022-08-07T06:57:52Z</time>
      </trkpt>
      <trkpt lat="45.199301540851593" lon="7.076471876353025">
        <ele>3308.1799999999998</ele>
        <time>2022-08-07T06:58:31Z</time>
      </trkpt>
      <trkpt lat="45.199295254424214" lon="7.076463662087917">
        <ele>3308.6500000000001</ele>
        <time>2022-08-07T06:59:02Z</time>
      </trkpt>
      <trkpt lat="45.199294164776802" lon="7.076469529420137">
        <ele>3309.4699999999998</ele>
        <time>2022-08-07T06:59:34Z</time>
      </trkpt>
      <trkpt lat="45.199302127584815" lon="7.076465925201774">
        <ele>3309.7800000000002</ele>
        <time>2022-08-07T06:59:49Z</time>
      </trkpt>
      <trkpt lat="45.199306402355433" lon="7.07647648639977">
        <ele>3309.7399999999998</ele>
        <time>2022-08-07T07:00:05Z</time>
      </trkpt>
      <trkpt lat="45.199311431497335" lon="7.076470954343677">
        <ele>3309.5300000000002</ele>
        <time>2022-08-07T07:00:19Z</time>
      </trkpt>
      <trkpt lat="45.199309336021543" lon="7.076470199972391">
        <ele>3309.0300000000002</ele>
        <time>2022-08-07T07:00:35Z</time>
      </trkpt>
      <trkpt lat="45.199309503659606" lon="7.07647162489593">
        <ele>3310.5900000000001</ele>
        <time>2022-08-07T07:00:42Z</time>
      </trkpt>
      <trkpt lat="45.199372619390488" lon="7.076454861089587">
        <ele>3311.3499999999999</ele>
        <time>2022-08-07T07:00:59Z</time>
      </trkpt>
      <trkpt lat="45.199437076225877" lon="7.076464165002108">
        <ele>3312.3200000000002</ele>
        <time>2022-08-07T07:01:13Z</time>
      </trkpt>
      <trkpt lat="45.199506646022201" lon="7.076486125588417">
        <ele>3313.79</ele>
        <time>2022-08-07T07:01:25Z</time>
      </trkpt>
      <trkpt lat="45.199599182233214" lon="7.076510265469551">
        <ele>3316.54</ele>
        <time>2022-08-07T07:01:42Z</time>
      </trkpt>
      <trkpt lat="45.199602451175451" lon="7.076518479734659">
        <ele>3316.4299999999998</ele>
        <time>2022-08-07T07:01:54Z</time>
      </trkpt>
      <trkpt lat="45.19961116835475" lon="7.076508421450853">
        <ele>3316.21</ele>
        <time>2022-08-07T07:02:15Z</time>
      </trkpt>
      <trkpt lat="45.199616365134716" lon="7.076509846374393">
        <ele>3316.3499999999999</ele>
        <time>2022-08-07T07:02:40Z</time>
      </trkpt>
      <trkpt lat="45.199617622420192" lon="7.076510097831488">
        <ele>3316.3699999999999</ele>
        <time>2022-08-07T07:02:51Z</time>
      </trkpt>
      <trkpt lat="45.199624495580792" lon="7.076489562168717">
        <ele>3316.5</ele>
        <time>2022-08-07T07:03:01Z</time>
      </trkpt>
      <trkpt lat="45.199654586613178" lon="7.076466260477901">
        <ele>3317.5900000000001</ele>
        <time>2022-08-07T07:03:26Z</time>
      </trkpt>
      <trkpt lat="45.199754582718015" lon="7.076479252427816">
        <ele>3318.8699999999999</ele>
        <time>2022-08-07T07:03:43Z</time>
      </trkpt>
      <trkpt lat="45.199808981269598" lon="7.076490316540003">
        <ele>3319.9099999999999</ele>
        <time>2022-08-07T07:03:54Z</time>
      </trkpt>
      <trkpt lat="45.19985256716609" lon="7.076492579653859">
        <ele>3322.02</ele>
        <time>2022-08-07T07:04:09Z</time>
      </trkpt>
      <trkpt lat="45.19988332875073" lon="7.076505655422807">
        <ele>3323.54</ele>
        <time>2022-08-07T07:04:26Z</time>
      </trkpt>
      <trkpt lat="45.199907384812832" lon="7.076524514704943">
        <ele>3325.3000000000002</ele>
        <time>2022-08-07T07:04:40Z</time>
      </trkpt>
      <trkpt lat="45.199923561885953" lon="7.076539937406778">
        <ele>3326.1999999999998</ele>
        <time>2022-08-07T07:04:52Z</time>
      </trkpt>
      <trkpt lat="45.19995616748929" lon="7.076544631272554">
        <ele>3327.9699999999998</ele>
        <time>2022-08-07T07:05:05Z</time>
      </trkpt>
      <trkpt lat="45.19997519440949" lon="7.076561562716961">
        <ele>3330.04</ele>
        <time>2022-08-07T07:05:16Z</time>
      </trkpt>
      <trkpt lat="45.200008219107985" lon="7.076581511646509">
        <ele>3331.2800000000002</ele>
        <time>2022-08-07T07:05:29Z</time>
      </trkpt>
      <trkpt lat="45.200046524405479" lon="7.076571621000767">
        <ele>3332.6599999999999</ele>
        <time>2022-08-07T07:05:42Z</time>
      </trkpt>
      <trkpt lat="45.200112322345376" lon="7.076575644314289">
        <ele>3333.4299999999998</ele>
        <time>2022-08-07T07:05:57Z</time>
      </trkpt>
      <trkpt lat="45.200177868828177" lon="7.076610010117292">
        <ele>3335.04</ele>
        <time>2022-08-07T07:06:15Z</time>
      </trkpt>
      <trkpt lat="45.200262274593115" lon="7.076614117249847">
        <ele>3336.6500000000001</ele>
        <time>2022-08-07T07:06:32Z</time>
      </trkpt>
      <trkpt lat="45.200291946530342" lon="7.07658058963716">
        <ele>3338.3400000000001</ele>
        <time>2022-08-07T07:06:47Z</time>
      </trkpt>
      <trkpt lat="45.200325474143028" lon="7.076596515253186">
        <ele>3338.7399999999998</ele>
        <time>2022-08-07T07:06:55Z</time>
      </trkpt>
      <trkpt lat="45.20038322545588" lon="7.076631719246507">
        <ele>3339.6199999999999</ele>
        <time>2022-08-07T07:07:05Z</time>
      </trkpt>
      <trkpt lat="45.20040619187057" lon="7.076631048694253">
        <ele>3340.2600000000002</ele>
        <time>2022-08-07T07:07:13Z</time>
      </trkpt>
      <trkpt lat="45.200448269024491" lon="7.076643286272883">
        <ele>3340.9899999999998</ele>
        <time>2022-08-07T07:07:23Z</time>
      </trkpt>
      <trkpt lat="45.200466876849532" lon="7.076629959046841">
        <ele>3341.8000000000002</ele>
        <time>2022-08-07T07:07:29Z</time>
      </trkpt>
      <trkpt lat="45.200496213510633" lon="7.076636580750346">
        <ele>3342.71</ele>
        <time>2022-08-07T07:07:37Z</time>
      </trkpt>
      <trkpt lat="45.200495794415474" lon="7.076636245474219">
        <ele>3342.9899999999998</ele>
        <time>2022-08-07T07:07:44Z</time>
      </trkpt>
      <trkpt lat="45.200522700324655" lon="7.076634569093585">
        <ele>3344.3800000000001</ele>
        <time>2022-08-07T07:07:55Z</time>
      </trkpt>
      <trkpt lat="45.200547091662884" lon="7.076615877449513">
        <ele>3345.5300000000002</ele>
        <time>2022-08-07T07:08:06Z</time>
      </trkpt>
      <trkpt lat="45.200579110532999" lon="7.076619565486908">
        <ele>3346.29</ele>
        <time>2022-08-07T07:08:14Z</time>
      </trkpt>
      <trkpt lat="45.200611716136336" lon="7.076616128906608">
        <ele>3347.9899999999998</ele>
        <time>2022-08-07T07:08:27Z</time>
      </trkpt>
      <trkpt lat="45.20064951851964" lon="7.076623421162367">
        <ele>3348.6399999999999</ele>
        <time>2022-08-07T07:08:37Z</time>
      </trkpt>
      <trkpt lat="45.20069201476872" lon="7.076644795015454">
        <ele>3349.5799999999999</ele>
        <time>2022-08-07T07:08:47Z</time>
      </trkpt>
      <trkpt lat="45.200718166306615" lon="7.076644040644169">
        <ele>3350.3299999999999</ele>
        <time>2022-08-07T07:08:54Z</time>
      </trkpt>
      <trkpt lat="45.200741970911622" lon="7.076646639034152">
        <ele>3350.8200000000002</ele>
        <time>2022-08-07T07:09:01Z</time>
      </trkpt>
      <trkpt lat="45.200768876820803" lon="7.076658289879561">
        <ele>3351.48</ele>
        <time>2022-08-07T07:09:08Z</time>
      </trkpt>
      <trkpt lat="45.200776923447847" lon="7.076659379526973">
        <ele>3351.8099999999999</ele>
        <time>2022-08-07T07:09:14Z</time>
      </trkpt>
      <trkpt lat="45.20079854875803" lon="7.076653093099594">
        <ele>3352.7199999999998</ele>
        <time>2022-08-07T07:09:22Z</time>
      </trkpt>
      <trkpt lat="45.200806511566043" lon="7.076658289879561">
        <ele>3353.2399999999998</ele>
        <time>2022-08-07T07:09:30Z</time>
      </trkpt>
      <trkpt lat="45.200831070542336" lon="7.07664898596704">
        <ele>3354.21</ele>
        <time>2022-08-07T07:09:40Z</time>
      </trkpt>
      <trkpt lat="45.200853953137994" lon="7.076655440032482">
        <ele>3355.2399999999998</ele>
        <time>2022-08-07T07:09:47Z</time>
      </trkpt>
      <trkpt lat="45.200884798541665" lon="7.076644459739327">
        <ele>3356.75</ele>
        <time>2022-08-07T07:09:58Z</time>
      </trkpt>
      <trkpt lat="45.200918074697256" lon="7.076664995402098">
        <ele>3358.1300000000001</ele>
        <time>2022-08-07T07:10:12Z</time>
      </trkpt>
      <trkpt lat="45.200942801311612" lon="7.076679663732648">
        <ele>3359.04</ele>
        <time>2022-08-07T07:10:22Z</time>
      </trkpt>
      <trkpt lat="45.200975574553013" lon="7.076698271557689">
        <ele>3359.8800000000001</ele>
        <time>2022-08-07T07:10:32Z</time>
      </trkpt>
      <trkpt lat="45.201002145186067" lon="7.076705899089575">
        <ele>3360.7399999999998</ele>
        <time>2022-08-07T07:10:39Z</time>
      </trkpt>
      <trkpt lat="45.201018657535315" lon="7.076712939888239">
        <ele>3361.52</ele>
        <time>2022-08-07T07:10:45Z</time>
      </trkpt>
      <trkpt lat="45.201038774102926" lon="7.076718974858522">
        <ele>3362</ele>
        <time>2022-08-07T07:10:51Z</time>
      </trkpt>
      <trkpt lat="45.201055537909269" lon="7.076723081991077">
        <ele>3362.5999999999999</ele>
        <time>2022-08-07T07:11:07Z</time>
      </trkpt>
      <trkpt lat="45.201111612841487" lon="7.076756441965699">
        <ele>3363.3200000000002</ele>
        <time>2022-08-07T07:11:21Z</time>
      </trkpt>
      <trkpt lat="45.201156791299582" lon="7.076772283762693">
        <ele>3365.3200000000002</ele>
        <time>2022-08-07T07:11:34Z</time>
      </trkpt>
      <trkpt lat="45.201183948665857" lon="7.076773876324296">
        <ele>3367.1999999999998</ele>
        <time>2022-08-07T07:11:45Z</time>
      </trkpt>
      <trkpt lat="45.201224517077208" lon="7.076774882152677">
        <ele>3368.21</ele>
        <time>2022-08-07T07:11:56Z</time>
      </trkpt>
      <trkpt lat="45.201268857344985" lon="7.076784940436482">
        <ele>3369.0900000000001</ele>
        <time>2022-08-07T07:12:08Z</time>
      </trkpt>
      <trkpt lat="45.201301546767354" lon="7.076805979013443">
        <ele>3370.48</ele>
        <time>2022-08-07T07:12:23Z</time>
      </trkpt>
      <trkpt lat="45.201349658891559" lon="7.076821066439152">
        <ele>3371.5799999999999</ele>
        <time>2022-08-07T07:12:37Z</time>
      </trkpt>
      <trkpt lat="45.201393244788051" lon="7.076838752254844">
        <ele>3373</ele>
        <time>2022-08-07T07:12:51Z</time>
      </trkpt>
      <trkpt lat="45.201438423246145" lon="7.076860209926963">
        <ele>3374.5799999999999</ele>
        <time>2022-08-07T07:13:04Z</time>
      </trkpt>
      <trkpt lat="45.20144403912127" lon="7.076867753639817">
        <ele>3374.9200000000001</ele>
        <time>2022-08-07T07:13:16Z</time>
      </trkpt>
      <trkpt lat="45.201485780999064" lon="7.076877560466528">
        <ele>3376.3299999999999</ele>
        <time>2022-08-07T07:13:29Z</time>
      </trkpt>
      <trkpt lat="45.201509585604072" lon="7.076882673427463">
        <ele>3377.73</ele>
        <time>2022-08-07T07:13:43Z</time>
      </trkpt>
      <trkpt lat="45.201556021347642" lon="7.076902873814106">
        <ele>3379.8899999999999</ele>
        <time>2022-08-07T07:14:00Z</time>
      </trkpt>
      <trkpt lat="45.20158669911325" lon="7.076921984553337">
        <ele>3381.0100000000002</ele>
        <time>2022-08-07T07:14:12Z</time>
      </trkpt>
      <trkpt lat="45.201620142906904" lon="7.076921733096242">
        <ele>3382.5100000000002</ele>
        <time>2022-08-07T07:14:27Z</time>
      </trkpt>
      <trkpt lat="45.201650150120258" lon="7.07692994736135">
        <ele>3384.1199999999999</ele>
        <time>2022-08-07T07:14:40Z</time>
      </trkpt>
      <trkpt lat="45.201679905876517" lon="7.076931707561016">
        <ele>3385.3299999999999</ele>
        <time>2022-08-07T07:14:55Z</time>
      </trkpt>
      <trkpt lat="45.201696418225765" lon="7.076945286244154">
        <ele>3386.21</ele>
        <time>2022-08-07T07:15:05Z</time>
      </trkpt>
      <trkpt lat="45.201706644147635" lon="7.076944196596742">
        <ele>3389.2199999999998</ele>
        <time>2022-08-07T07:15:22Z</time>
      </trkpt>
      <trkpt lat="45.201709996908903" lon="7.076945370063186">
        <ele>3388.6300000000001</ele>
        <time>2022-08-07T07:15:23Z</time>
      </trkpt>
      <trkpt lat="45.201714439317584" lon="7.076949644833803">
        <ele>3387.8099999999999</ele>
        <time>2022-08-07T07:15:25Z</time>
      </trkpt>
      <trkpt lat="45.201755678281188" lon="7.076964983716607">
        <ele>3389.77</ele>
        <time>2022-08-07T07:15:39Z</time>
      </trkpt>
      <trkpt lat="45.201782081276178" lon="7.076979400590062">
        <ele>3391.46</ele>
        <time>2022-08-07T07:15:51Z</time>
      </trkpt>
      <trkpt lat="45.201810915023088" lon="7.077013598755002">
        <ele>3392.5100000000002</ele>
        <time>2022-08-07T07:16:04Z</time>
      </trkpt>
      <trkpt lat="45.201817620545626" lon="7.077020471915603">
        <ele>3393.0300000000002</ele>
        <time>2022-08-07T07:16:21Z</time>
      </trkpt>
      <trkpt lat="45.201863637194037" lon="7.07703254185617">
        <ele>3394.5799999999999</ele>
        <time>2022-08-07T07:16:35Z</time>
      </trkpt>
      <trkpt lat="45.201902026310563" lon="7.077053496614099">
        <ele>3396.5100000000002</ele>
        <time>2022-08-07T07:16:49Z</time>
      </trkpt>
      <trkpt lat="45.201936895027757" lon="7.077073529362679">
        <ele>3397.8200000000002</ele>
        <time>2022-08-07T07:17:01Z</time>
      </trkpt>
      <trkpt lat="45.201946366578341" lon="7.07707847468555">
        <ele>3397.3899999999999</ele>
        <time>2022-08-07T07:17:15Z</time>
      </trkpt>
      <trkpt lat="45.201950473710895" lon="7.077069925144315">
        <ele>3397.6500000000001</ele>
        <time>2022-08-07T07:17:29Z</time>
      </trkpt>
      <trkpt lat="45.201942678540945" lon="7.077076463028789">
        <ele>3397.6900000000001</ele>
        <time>2022-08-07T07:17:49Z</time>
      </trkpt>
      <trkpt lat="45.201936727389693" lon="7.0770706795156">
        <ele>3398.6700000000001</ele>
        <time>2022-08-07T07:18:07Z</time>
      </trkpt>
      <trkpt lat="45.201975787058473" lon="7.077104207128286">
        <ele>3400.29</ele>
        <time>2022-08-07T07:18:19Z</time>
      </trkpt>
      <trkpt lat="45.202027000486851" lon="7.077132454141974">
        <ele>3402.7600000000002</ele>
        <time>2022-08-07T07:18:28Z</time>
      </trkpt>
      <trkpt lat="45.202095983549953" lon="7.077170088887215">
        <ele>3405.3899999999999</ele>
        <time>2022-08-07T07:18:42Z</time>
      </trkpt>
      <trkpt lat="45.202133785933256" lon="7.077171765267849">
        <ele>3407.4299999999998</ele>
        <time>2022-08-07T07:18:52Z</time>
      </trkpt>
      <trkpt lat="45.202150885015726" lon="7.077176040038467">
        <ele>3408.4499999999998</ele>
        <time>2022-08-07T07:19:02Z</time>
      </trkpt>
      <trkpt lat="45.202169492840767" lon="7.077177548781037">
        <ele>3408.6999999999998</ele>
        <time>2022-08-07T07:19:16Z</time>
      </trkpt>
      <trkpt lat="45.202182484790683" lon="7.077179979532957">
        <ele>3409.5500000000002</ele>
        <time>2022-08-07T07:19:29Z</time>
      </trkpt>
      <trkpt lat="45.202185250818729" lon="7.077171765267849">
        <ele>3409.8200000000002</ele>
        <time>2022-08-07T07:19:44Z</time>
      </trkpt>
      <trkpt lat="45.202187011018395" lon="7.077174866572022">
        <ele>3409.8200000000002</ele>
        <time>2022-08-07T07:20:02Z</time>
      </trkpt>
      <trkpt lat="45.202199835330248" lon="7.077177213504911">
        <ele>3410.3099999999999</ele>
        <time>2022-08-07T07:20:16Z</time>
      </trkpt>
      <trkpt lat="45.202224981039762" lon="7.077182326465845">
        <ele>3411.8200000000002</ele>
        <time>2022-08-07T07:20:26Z</time>
      </trkpt>
      <trkpt lat="45.202246773988008" lon="7.077189451083541">
        <ele>3413.3699999999999</ele>
        <time>2022-08-07T07:20:37Z</time>
      </trkpt>
      <trkpt lat="45.2022644598037" lon="7.077197162434459">
        <ele>3414.48</ele>
        <time>2022-08-07T07:20:50Z</time>
      </trkpt>
      <trkpt lat="45.202285414561629" lon="7.077201269567013">
        <ele>3415.1300000000001</ele>
        <time>2022-08-07T07:20:57Z</time>
      </trkpt>
      <trkpt lat="45.2023059502244" lon="7.077224738895893">
        <ele>3416.7399999999998</ele>
        <time>2022-08-07T07:21:07Z</time>
      </trkpt>
      <trkpt lat="45.202314080670476" lon="7.077226247638464">
        <ele>3417.96</ele>
        <time>2022-08-07T07:21:19Z</time>
      </trkpt>
      <trkpt lat="45.202332939952612" lon="7.077239155769348">
        <ele>3418.6900000000001</ele>
        <time>2022-08-07T07:21:32Z</time>
      </trkpt>
      <trkpt lat="45.202345764264464" lon="7.077256087213755">
        <ele>3419.8899999999999</ele>
        <time>2022-08-07T07:21:45Z</time>
      </trkpt>
      <trkpt lat="45.202363366261125" lon="7.077267738059163">
        <ele>3421.0100000000002</ele>
        <time>2022-08-07T07:22:05Z</time>
      </trkpt>
      <trkpt lat="45.2023836504668" lon="7.077273773029447">
        <ele>3422.7399999999998</ele>
        <time>2022-08-07T07:22:18Z</time>
      </trkpt>
      <trkpt lat="45.202398234978318" lon="7.077286094427109">
        <ele>3423.6399999999999</ele>
        <time>2022-08-07T07:22:37Z</time>
      </trkpt>
      <trkpt lat="45.202420279383659" lon="7.077306713908911">
        <ele>3425.1300000000001</ele>
        <time>2022-08-07T07:22:55Z</time>
      </trkpt>
      <trkpt lat="45.202449867501855" lon="7.077321968972683">
        <ele>3426.0100000000002</ele>
        <time>2022-08-07T07:23:06Z</time>
      </trkpt>
      <trkpt lat="45.202469816431403" lon="7.077345689758658">
        <ele>3427.96</ele>
        <time>2022-08-07T07:23:20Z</time>
      </trkpt>
      <trkpt lat="45.202484736219049" lon="7.07737066783011">
        <ele>3429.0999999999999</ele>
        <time>2022-08-07T07:23:34Z</time>
      </trkpt>
      <trkpt lat="45.202499823644757" lon="7.077396651729941">
        <ele>3429.96</ele>
        <time>2022-08-07T07:23:48Z</time>
      </trkpt>
      <trkpt lat="45.202523376792669" lon="7.077408386394382">
        <ele>3431.5500000000002</ele>
        <time>2022-08-07T07:24:01Z</time>
      </trkpt>
      <trkpt lat="45.202541062608361" lon="7.077422300353646">
        <ele>3432.7399999999998</ele>
        <time>2022-08-07T07:24:13Z</time>
      </trkpt>
      <trkpt lat="45.202562268823385" lon="7.077431688085198">
        <ele>3433.6300000000001</ele>
        <time>2022-08-07T07:24:27Z</time>
      </trkpt>
      <trkpt lat="45.20257911644876" lon="7.077430514618754">
        <ele>3434.04</ele>
        <time>2022-08-07T07:24:41Z</time>
      </trkpt>
      <trkpt lat="45.202578948810697" lon="7.077387683093548">
        <ele>3435.7800000000002</ele>
        <time>2022-08-07T07:24:54Z</time>
      </trkpt>
      <trkpt lat="45.202568974345922" lon="7.077359016984701">
        <ele>3436.5300000000002</ele>
        <time>2022-08-07T07:25:08Z</time>
      </trkpt>
      <trkpt lat="45.20256738178432" lon="7.077321214601398">
        <ele>3437.71</ele>
        <time>2022-08-07T07:25:22Z</time>
      </trkpt>
      <trkpt lat="45.202562604099512" lon="7.077269246801734">
        <ele>3439.8899999999999</ele>
        <time>2022-08-07T07:25:37Z</time>
      </trkpt>
      <trkpt lat="45.202560508623719" lon="7.077238401398063">
        <ele>3441.7399999999998</ele>
        <time>2022-08-07T07:25:51Z</time>
      </trkpt>
      <trkpt lat="45.202549109235406" lon="7.07720554433763">
        <ele>3443.5300000000002</ele>
        <time>2022-08-07T07:26:08Z</time>
      </trkpt>
      <trkpt lat="45.202539972960949" lon="7.077156342566013">
        <ele>3445.1900000000001</ele>
        <time>2022-08-07T07:26:25Z</time>
      </trkpt>
      <trkpt lat="45.202539637684822" lon="7.077144104987383">
        <ele>3445.96</ele>
        <time>2022-08-07T07:26:42Z</time>
      </trkpt>
      <trkpt lat="45.202526729553938" lon="7.077094903215766">
        <ele>3448.0599999999999</ele>
        <time>2022-08-07T07:26:59Z</time>
      </trkpt>
      <trkpt lat="45.202528070658445" lon="7.077095322310925">
        <ele>3447.79</ele>
        <time>2022-08-07T07:27:10Z</time>
      </trkpt>
      <trkpt lat="45.202531339600682" lon="7.077095154672861">
        <ele>3446.6199999999999</ele>
        <time>2022-08-07T07:27:30Z</time>
      </trkpt>
      <trkpt lat="45.202541733160615" lon="7.077087694779038">
        <ele>3446.27</ele>
        <time>2022-08-07T07:28:03Z</time>
      </trkpt>
      <trkpt lat="45.202535698190331" lon="7.077087108045816">
        <ele>3447.0799999999999</ele>
        <time>2022-08-07T07:28:20Z</time>
      </trkpt>
      <trkpt lat="45.202528070658445" lon="7.077081324532628">
        <ele>3447.4499999999998</ele>
        <time>2022-08-07T07:28:40Z</time>
      </trkpt>
      <trkpt lat="45.202546427026391" lon="7.077111667022109">
        <ele>3448.46</ele>
        <time>2022-08-07T07:28:57Z</time>
      </trkpt>
      <trkpt lat="45.202564615756273" lon="7.077111918479204">
        <ele>3449.9000000000001</ele>
        <time>2022-08-07T07:29:11Z</time>
      </trkpt>
      <trkpt lat="45.202586995437741" lon="7.077127676457167">
        <ele>3451.8000000000002</ele>
        <time>2022-08-07T07:29:24Z</time>
      </trkpt>
      <trkpt lat="45.20259671844542" lon="7.077137567102909">
        <ele>3452.4099999999999</ele>
        <time>2022-08-07T07:29:38Z</time>
      </trkpt>
      <trkpt lat="45.202634101733565" lon="7.07716254517436">
        <ele>3454.7800000000002</ele>
        <time>2022-08-07T07:29:52Z</time>
      </trkpt>
      <trkpt lat="45.202652374282479" lon="7.077165395021439">
        <ele>3455.3699999999999</ele>
        <time>2022-08-07T07:30:05Z</time>
      </trkpt>
      <trkpt lat="45.202668802812696" lon="7.077180817723274">
        <ele>3456.7800000000002</ele>
        <time>2022-08-07T07:30:17Z</time>
      </trkpt>
      <trkpt lat="45.202688500285149" lon="7.077190708369017">
        <ele>3457.6300000000001</ele>
        <time>2022-08-07T07:30:31Z</time>
      </trkpt>
      <trkpt lat="45.202697971835732" lon="7.077199760824442">
        <ele>3459.1199999999999</ele>
        <time>2022-08-07T07:30:44Z</time>
      </trkpt>
      <trkpt lat="45.202710460871458" lon="7.077203532680869">
        <ele>3460.0799999999999</ele>
        <time>2022-08-07T07:30:56Z</time>
      </trkpt>
      <trkpt lat="45.202725296840072" lon="7.077207723632455">
        <ele>3461.0999999999999</ele>
        <time>2022-08-07T07:31:08Z</time>
      </trkpt>
      <trkpt lat="45.202744323760271" lon="7.077227756381035">
        <ele>3462.1700000000001</ele>
        <time>2022-08-07T07:31:25Z</time>
      </trkpt>
      <trkpt lat="45.202757650986314" lon="7.077237563207746">
        <ele>3463.5300000000002</ele>
        <time>2022-08-07T07:31:41Z</time>
      </trkpt>
      <trkpt lat="45.202760668471456" lon="7.077216943725944">
        <ele>3464.1300000000001</ele>
        <time>2022-08-07T07:31:52Z</time>
      </trkpt>
      <trkpt lat="45.202759746462107" lon="7.077199090272188">
        <ele>3464.79</ele>
        <time>2022-08-07T07:32:12Z</time>
      </trkpt>
      <trkpt lat="45.202749352902174" lon="7.077145781368017">
        <ele>3466.9299999999998</ele>
        <time>2022-08-07T07:32:24Z</time>
      </trkpt>
      <trkpt lat="45.202743904665112" lon="7.077123988419771">
        <ele>3467.9699999999998</ele>
        <time>2022-08-07T07:32:40Z</time>
      </trkpt>
      <trkpt lat="45.202743653208017" lon="7.077103368937969">
        <ele>3468.54</ele>
        <time>2022-08-07T07:32:53Z</time>
      </trkpt>
      <trkpt lat="45.20277407951653" lon="7.07712147384882">
        <ele>3470.3899999999999</ele>
        <time>2022-08-07T07:33:04Z</time>
      </trkpt>
      <trkpt lat="45.202793190255761" lon="7.077131951227784">
        <ele>3471.54</ele>
        <time>2022-08-07T07:33:18Z</time>
      </trkpt>
      <trkpt lat="45.202809115871787" lon="7.077140333130956">
        <ele>3472.0100000000002</ele>
        <time>2022-08-07T07:33:35Z</time>
      </trkpt>
      <trkpt lat="45.202823281288147" lon="7.07714787684381">
        <ele>3473.0900000000001</ele>
        <time>2022-08-07T07:33:47Z</time>
      </trkpt>
      <trkpt lat="45.202833255752921" lon="7.077147038653493">
        <ele>3473.1999999999998</ele>
        <time>2022-08-07T07:34:05Z</time>
      </trkpt>
      <trkpt lat="45.202852701768279" lon="7.077182494103909">
        <ele>3475.48</ele>
        <time>2022-08-07T07:34:20Z</time>
      </trkpt>
      <trkpt lat="45.202864268794656" lon="7.077177716419101">
        <ele>3476.6599999999999</ele>
        <time>2022-08-07T07:34:36Z</time>
      </trkpt>
      <trkpt lat="45.202876506373286" lon="7.077198922634125">
        <ele>3478.5500000000002</ele>
        <time>2022-08-07T07:34:51Z</time>
      </trkpt>
      <trkpt lat="45.202888492494822" lon="7.077217195183039">
        <ele>3479.1900000000001</ele>
        <time>2022-08-07T07:35:11Z</time>
      </trkpt>
      <trkpt lat="45.202914224937558" lon="7.077265307307243">
        <ele>3481.1900000000001</ele>
        <time>2022-08-07T07:35:26Z</time>
      </trkpt>
      <trkpt lat="45.202932748943567" lon="7.077305791899562">
        <ele>3482.4499999999998</ele>
        <time>2022-08-07T07:35:41Z</time>
      </trkpt>
      <trkpt lat="45.202957978472114" lon="7.077361028641462">
        <ele>3483.1399999999999</ele>
        <time>2022-08-07T07:35:57Z</time>
      </trkpt>
      <trkpt lat="45.202988237142563" lon="7.077390365302563">
        <ele>3484.0900000000001</ele>
        <time>2022-08-07T07:36:09Z</time>
      </trkpt>
      <trkpt lat="45.203025452792645" lon="7.077401094138622">
        <ele>3485.73</ele>
        <time>2022-08-07T07:36:24Z</time>
      </trkpt>
      <trkpt lat="45.203046994283795" lon="7.077410817146301">
        <ele>3486.8699999999999</ele>
        <time>2022-08-07T07:36:39Z</time>
      </trkpt>
      <trkpt lat="45.203081695362926" lon="7.077437555417419">
        <ele>3487.6399999999999</ele>
        <time>2022-08-07T07:36:53Z</time>
      </trkpt>
      <trkpt lat="45.203091753646731" lon="7.077437052503228">
        <ele>3488.5900000000001</ele>
        <time>2022-08-07T07:37:08Z</time>
      </trkpt>
      <trkpt lat="45.203077085316181" lon="7.077370751649141">
        <ele>3490.0799999999999</ele>
        <time>2022-08-07T07:37:23Z</time>
      </trkpt>
      <trkpt lat="45.203063422814012" lon="7.077325405552983">
        <ele>3491.7199999999998</ele>
        <time>2022-08-07T07:37:38Z</time>
      </trkpt>
      <trkpt lat="45.203045569360256" lon="7.077308725565672">
        <ele>3492.5900000000001</ele>
        <time>2022-08-07T07:37:51Z</time>
      </trkpt>
      <trkpt lat="45.203031906858087" lon="7.077286010608077">
        <ele>3493.6399999999999</ele>
        <time>2022-08-07T07:38:05Z</time>
      </trkpt>
      <trkpt lat="45.203051352873445" lon="7.077282909303904">
        <ele>3494.96</ele>
        <time>2022-08-07T07:38:23Z</time>
      </trkpt>
      <trkpt lat="45.203070715069771" lon="7.077291123569012">
        <ele>3496.4400000000001</ele>
        <time>2022-08-07T07:38:40Z</time>
      </trkpt>
      <trkpt lat="45.203088400885463" lon="7.077308725565672">
        <ele>3497.54</ele>
        <time>2022-08-07T07:38:54Z</time>
      </trkpt>
      <trkpt lat="45.203113127499819" lon="7.077313670888543">
        <ele>3498.9299999999998</ele>
        <time>2022-08-07T07:39:11Z</time>
      </trkpt>
      <trkpt lat="45.203138021752238" lon="7.077304618433118">
        <ele>3500.8600000000001</ele>
        <time>2022-08-07T07:39:29Z</time>
      </trkpt>
      <trkpt lat="45.203155875205994" lon="7.077304283156991">
        <ele>3501.8400000000001</ele>
        <time>2022-08-07T07:39:44Z</time>
      </trkpt>
      <trkpt lat="45.203171884641051" lon="7.07730470225215">
        <ele>3503.0500000000002</ele>
        <time>2022-08-07T07:40:00Z</time>
      </trkpt>
      <trkpt lat="45.203191665932536" lon="7.077311491593719">
        <ele>3503.7399999999998</ele>
        <time>2022-08-07T07:40:25Z</time>
      </trkpt>
      <trkpt lat="45.203211531043053" lon="7.077306546270847">
        <ele>3505.3600000000001</ele>
        <time>2022-08-07T07:40:39Z</time>
      </trkpt>
      <trkpt lat="45.203227791935205" lon="7.077314341440797">
        <ele>3507.04</ele>
        <time>2022-08-07T07:40:54Z</time>
      </trkpt>
      <trkpt lat="45.203234329819679" lon="7.077339068055153">
        <ele>3508.0900000000001</ele>
        <time>2022-08-07T07:41:08Z</time>
      </trkpt>
      <trkpt lat="45.203245310112834" lon="7.077356837689877">
        <ele>3508.7199999999998</ele>
        <time>2022-08-07T07:41:22Z</time>
      </trkpt>
      <trkpt lat="45.20325880497694" lon="7.077389610931277">
        <ele>3509.5100000000002</ele>
        <time>2022-08-07T07:41:36Z</time>
      </trkpt>
      <trkpt lat="45.203268527984619" lon="7.077424563467503">
        <ele>3511.9299999999998</ele>
        <time>2022-08-07T07:41:49Z</time>
      </trkpt>
      <trkpt lat="45.203260146081448" lon="7.077433029189706">
        <ele>3511.8800000000001</ele>
        <time>2022-08-07T07:42:06Z</time>
      </trkpt>
      <trkpt lat="45.20325637422502" lon="7.077418612316251">
        <ele>3512.1900000000001</ele>
        <time>2022-08-07T07:42:25Z</time>
      </trkpt>
      <trkpt lat="45.203264337033033" lon="7.077393131330609">
        <ele>3512.8899999999999</ele>
        <time>2022-08-07T07:42:45Z</time>
      </trkpt>
      <trkpt lat="45.20327003672719" lon="7.077399836853147">
        <ele>3512.8200000000002</ele>
        <time>2022-08-07T07:43:04Z</time>
      </trkpt>
      <trkpt lat="45.203283196315169" lon="7.077414086088538">
        <ele>3512.4099999999999</ele>
        <time>2022-08-07T07:43:20Z</time>
      </trkpt>
      <trkpt lat="45.203294176608324" lon="7.077423054724932">
        <ele>3513.5500000000002</ele>
        <time>2022-08-07T07:43:25Z</time>
      </trkpt>
      <trkpt lat="45.203327955678105" lon="7.077426491305232">
        <ele>3516.3899999999999</ele>
        <time>2022-08-07T07:43:46Z</time>
      </trkpt>
      <trkpt lat="45.203335918486118" lon="7.077458510175347">
        <ele>3517.8400000000001</ele>
        <time>2022-08-07T07:43:59Z</time>
      </trkpt>
      <trkpt lat="45.203349329531193" lon="7.07748256623745">
        <ele>3518.8200000000002</ele>
        <time>2022-08-07T07:44:16Z</time>
      </trkpt>
      <trkpt lat="45.203363411128521" lon="7.07749966531992">
        <ele>3520.3600000000001</ele>
        <time>2022-08-07T07:44:29Z</time>
      </trkpt>
      <trkpt lat="45.203386042267084" lon="7.077535120770335">
        <ele>3522.4000000000001</ele>
        <time>2022-08-07T07:44:44Z</time>
      </trkpt>
      <trkpt lat="45.203404733911157" lon="7.077555153518915">
        <ele>3523.5500000000002</ele>
        <time>2022-08-07T07:44:58Z</time>
      </trkpt>
      <trkpt lat="45.203435746952891" lon="7.077542329207063">
        <ele>3524.1599999999999</ele>
        <time>2022-08-07T07:45:18Z</time>
      </trkpt>
      <trkpt lat="45.203461898490787" lon="7.077532773837447">
        <ele>3524.48</ele>
        <time>2022-08-07T07:45:31Z</time>
      </trkpt>
      <trkpt lat="45.203513782471418" lon="7.077487092465162">
        <ele>3525.6599999999999</ele>
        <time>2022-08-07T07:45:49Z</time>
      </trkpt>
      <trkpt lat="45.203476399183273" lon="7.07747376523912">
        <ele>3528.7800000000002</ele>
        <time>2022-08-07T07:46:01Z</time>
      </trkpt>
      <trkpt lat="45.2034508343786" lon="7.077475022524595">
        <ele>3530.2399999999998</ele>
        <time>2022-08-07T07:46:15Z</time>
      </trkpt>
      <trkpt lat="45.203437674790621" lon="7.077432861551642">
        <ele>3531</ele>
        <time>2022-08-07T07:46:33Z</time>
      </trkpt>
      <trkpt lat="45.203437004238367" lon="7.077433448284864">
        <ele>3531.6700000000001</ele>
        <time>2022-08-07T07:46:50Z</time>
      </trkpt>
      <trkpt lat="45.203459886834025" lon="7.077433951199055">
        <ele>3532.79</ele>
        <time>2022-08-07T07:47:05Z</time>
      </trkpt>
      <trkpt lat="45.203413786366582" lon="7.077344097197056">
        <ele>3534.3699999999999</ele>
        <time>2022-08-07T07:47:19Z</time>
      </trkpt>
      <trkpt lat="45.203409846872091" lon="7.077313167974353">
        <ele>3535.3000000000002</ele>
        <time>2022-08-07T07:47:31Z</time>
      </trkpt>
      <trkpt lat="45.203422671183944" lon="7.077318113297224">
        <ele>3536.1700000000001</ele>
        <time>2022-08-07T07:47:49Z</time>
      </trkpt>
      <trkpt lat="45.203420072793961" lon="7.077311910688877">
        <ele>3535.98</ele>
        <time>2022-08-07T07:47:50Z</time>
      </trkpt>
      <trkpt lat="45.203385204076767" lon="7.077191630378366">
        <ele>3535.2399999999998</ele>
        <time>2022-08-07T07:48:03Z</time>
      </trkpt>
      <trkpt lat="45.203395094722509" lon="7.077158018946648">
        <ele>3535.8699999999999</ele>
        <time>2022-08-07T07:48:15Z</time>
      </trkpt>
      <trkpt lat="45.203396854922175" lon="7.077180482447147">
        <ele>3535.7199999999998</ele>
        <time>2022-08-07T07:48:25Z</time>
      </trkpt>
      <trkpt lat="45.203389981761575" lon="7.077225912362337">
        <ele>3535.8499999999999</ele>
        <time>2022-08-07T07:48:37Z</time>
      </trkpt>
      <trkpt lat="45.20341076888144" lon="7.077319286763668">
        <ele>3535.75</ele>
        <time>2022-08-07T07:48:47Z</time>
      </trkpt>
      <trkpt lat="45.203481847420335" lon="7.077392460778356">
        <ele>3537.3200000000002</ele>
        <time>2022-08-07T07:49:00Z</time>
      </trkpt>
      <trkpt lat="45.203487044200301" lon="7.077369913458824">
        <ele>3538.3299999999999</ele>
        <time>2022-08-07T07:49:12Z</time>
      </trkpt>
      <trkpt lat="45.20345133729279" lon="7.077318783849478">
        <ele>3538.9099999999999</ele>
        <time>2022-08-07T07:49:25Z</time>
      </trkpt>
      <trkpt lat="45.203491486608982" lon="7.077336888760328">
        <ele>3538.9200000000001</ele>
        <time>2022-08-07T07:49:43Z</time>
      </trkpt>
      <trkpt lat="45.203507328405976" lon="7.077318783849478">
        <ele>3540.5900000000001</ele>
        <time>2022-08-07T07:49:54Z</time>
      </trkpt>
      <trkpt lat="45.203489810228348" lon="7.077257428318262">
        <ele>3542.3099999999999</ele>
        <time>2022-08-07T07:50:07Z</time>
      </trkpt>
      <trkpt lat="45.203494839370251" lon="7.07722457125783">
        <ele>3542.29</ele>
        <time>2022-08-07T07:50:20Z</time>
      </trkpt>
      <trkpt lat="45.203489726409316" lon="7.077226750552654">
        <ele>3542.4699999999998</ele>
        <time>2022-08-07T07:50:43Z</time>
      </trkpt>
      <trkpt lat="45.203486708924174" lon="7.077245861291885">
        <ele>3541.8000000000002</ele>
        <time>2022-08-07T07:50:57Z</time>
      </trkpt>
      <trkpt lat="45.203464413061738" lon="7.0772192068398">
        <ele>3542.04</ele>
        <time>2022-08-07T07:51:14Z</time>
      </trkpt>
      <trkpt lat="45.203482517972589" lon="7.077260445803404">
        <ele>3542.9299999999998</ele>
        <time>2022-08-07T07:51:33Z</time>
      </trkpt>
      <trkpt lat="45.203483356162906" lon="7.077253656461835">
        <ele>3543.0500000000002</ele>
        <time>2022-08-07T07:51:49Z</time>
      </trkpt>
      <trkpt lat="45.203505400568247" lon="7.0772157702595">
        <ele>3542.5700000000002</ele>
        <time>2022-08-07T07:52:04Z</time>
      </trkpt>
      <trkpt lat="45.203527444973588" lon="7.077183332294226">
        <ele>3540.9299999999998</ele>
        <time>2022-08-07T07:52:16Z</time>
      </trkpt>
      <trkpt lat="45.203538257628679" lon="7.0771415065974">
        <ele>3540.0599999999999</ele>
        <time>2022-08-07T07:52:26Z</time>
      </trkpt>
      <trkpt lat="45.203544879332185" lon="7.077152905985713">
        <ele>3540.4400000000001</ele>
        <time>2022-08-07T07:52:50Z</time>
      </trkpt>
      <trkpt lat="45.203509842976928" lon="7.07704771310091">
        <ele>3540.6199999999999</ele>
        <time>2022-08-07T07:53:02Z</time>
      </trkpt>
      <trkpt lat="45.203522751107812" lon="7.07706774584949">
        <ele>3540.6500000000001</ele>
        <time>2022-08-07T07:53:14Z</time>
      </trkpt>
      <trkpt lat="45.203553093597293" lon="7.077169334515929">
        <ele>3539.9299999999998</ele>
        <time>2022-08-07T07:53:26Z</time>
      </trkpt>
      <trkpt lat="45.203539347276092" lon="7.07725633867085">
        <ele>3541.0799999999999</ele>
        <time>2022-08-07T07:53:40Z</time>
      </trkpt>
      <trkpt lat="45.203528786078095" lon="7.077244520187378">
        <ele>3540.6999999999998</ele>
        <time>2022-08-07T07:53:54Z</time>
      </trkpt>
      <trkpt lat="45.203521074727178" lon="7.077297912910581">
        <ele>3541.2399999999998</ele>
        <time>2022-08-07T07:54:10Z</time>
      </trkpt>
      <trkpt lat="45.203503556549549" lon="7.077286597341299">
        <ele>3542.0599999999999</ele>
        <time>2022-08-07T07:54:19Z</time>
      </trkpt>
      <trkpt lat="45.203502215445042" lon="7.077290201559663">
        <ele>3541.9899999999998</ele>
        <time>2022-08-07T07:54:38Z</time>
      </trkpt>
      <trkpt lat="45.203495258465409" lon="7.077290201559663">
        <ele>3542.1300000000001</ele>
        <time>2022-08-07T07:54:58Z</time>
      </trkpt>
      <trkpt lat="45.203491235151887" lon="7.077291961759329">
        <ele>3542.23</ele>
        <time>2022-08-07T07:55:22Z</time>
      </trkpt>
      <trkpt lat="45.203488552942872" lon="7.077291291207075">
        <ele>3542.5900000000001</ele>
        <time>2022-08-07T07:55:37Z</time>
      </trkpt>
      <trkpt lat="45.203485703095794" lon="7.077286345884204">
        <ele>3542.8699999999999</ele>
        <time>2022-08-07T07:55:59Z</time>
      </trkpt>
      <trkpt lat="45.203487128019333" lon="7.077283663675189">
        <ele>3542.4400000000001</ele>
        <time>2022-08-07T07:56:19Z</time>
      </trkpt>
      <trkpt lat="45.203497186303139" lon="7.077310904860497">
        <ele>3542.6500000000001</ele>
        <time>2022-08-07T07:56:31Z</time>
      </trkpt>
      <trkpt lat="45.203495677560568" lon="7.077306127175689">
        <ele>3542.3099999999999</ele>
        <time>2022-08-07T07:56:51Z</time>
      </trkpt>
      <trkpt lat="45.203489810228348" lon="7.077304953709245">
        <ele>3541.8299999999999</ele>
        <time>2022-08-07T07:57:14Z</time>
      </trkpt>
      <trkpt lat="45.203491151332855" lon="7.077294560149312">
        <ele>3538.7199999999998</ele>
        <time>2022-08-07T07:57:21Z</time>
      </trkpt>
      <trkpt lat="45.203491318970919" lon="7.077294643968344">
        <ele>3540.4200000000001</ele>
        <time>2022-08-07T07:57:22Z</time>
      </trkpt>
      <trkpt lat="45.203492911532521" lon="7.077294979244471">
        <ele>3544.6100000000001</ele>
        <time>2022-08-07T07:57:25Z</time>
      </trkpt>
      <trkpt lat="45.203494420275092" lon="7.077295398339629">
        <ele>3541.3499999999999</ele>
        <time>2022-08-07T07:57:28Z</time>
      </trkpt>
      <trkpt lat="45.203498192131519" lon="7.077296152710915">
        <ele>3542.1900000000001</ele>
        <time>2022-08-07T07:57:40Z</time>
      </trkpt>
      <trkpt lat="45.203502047806978" lon="7.077299002557993">
        <ele>3540.5799999999999</ele>
        <time>2022-08-07T07:57:51Z</time>
      </trkpt>
      <trkpt lat="45.203502466902137" lon="7.077299589291215">
        <ele>3541.21</ele>
        <time>2022-08-07T07:57:53Z</time>
      </trkpt>
      <trkpt lat="45.203509591519833" lon="7.077297829091549">
        <ele>3541.5599999999999</ele>
        <time>2022-08-07T07:58:10Z</time>
      </trkpt>
      <trkpt lat="45.203513447195292" lon="7.077294141054153">
        <ele>3540.98</ele>
        <time>2022-08-07T07:58:38Z</time>
      </trkpt>
      <trkpt lat="45.203512106090784" lon="7.077290788292885">
        <ele>3542.0100000000002</ele>
        <time>2022-08-07T07:58:54Z</time>
      </trkpt>
      <trkpt lat="45.203505400568247" lon="7.077304031699896">
        <ele>3541.5300000000002</ele>
        <time>2022-08-07T07:59:07Z</time>
      </trkpt>
      <trkpt lat="45.20351579412818" lon="7.07728517241776">
        <ele>3541.21</ele>
        <time>2022-08-07T07:59:21Z</time>
      </trkpt>
      <trkpt lat="45.203515123575926" lon="7.077275700867176">
        <ele>3540.8000000000002</ele>
        <time>2022-08-07T07:59:45Z</time>
      </trkpt>
      <trkpt lat="45.203509004786611" lon="7.077272934839129">
        <ele>3540.98</ele>
        <time>2022-08-07T08:00:22Z</time>
      </trkpt>
      <trkpt lat="45.203503556549549" lon="7.077268492430449">
        <ele>3541.2399999999998</ele>
        <time>2022-08-07T08:00:53Z</time>
      </trkpt>
      <trkpt lat="45.203495845198631" lon="7.077270755544305">
        <ele>3541.1199999999999</ele>
        <time>2022-08-07T08:01:39Z</time>
      </trkpt>
      <trkpt lat="45.203505316749215" lon="7.077262876555324">
        <ele>3541.3699999999999</ele>
        <time>2022-08-07T08:02:20Z</time>
      </trkpt>
      <trkpt lat="45.203501041978598" lon="7.077271426096559">
        <ele>3542.3099999999999</ele>
        <time>2022-08-07T08:02:24Z</time>
      </trkpt>
      <trkpt lat="45.20349140278995" lon="7.077279724180698">
        <ele>3541.9499999999998</ele>
        <time>2022-08-07T08:02:35Z</time>
      </trkpt>
      <trkpt lat="45.203487882390618" lon="7.077290369197726">
        <ele>3542.1599999999999</ele>
        <time>2022-08-07T08:02:52Z</time>
      </trkpt>
      <trkpt lat="45.203488385304809" lon="7.077303025871515">
        <ele>3542.8800000000001</ele>
        <time>2022-08-07T08:03:13Z</time>
      </trkpt>
      <trkpt lat="45.203484948724508" lon="7.077286262065172">
        <ele>3541.8299999999999</ele>
        <time>2022-08-07T08:03:22Z</time>
      </trkpt>
      <trkpt lat="45.203481847420335" lon="7.077288273721933">
        <ele>3542.9499999999998</ele>
        <time>2022-08-07T08:03:36Z</time>
      </trkpt>
      <trkpt lat="45.203474471345544" lon="7.077286597341299">
        <ele>3542.9099999999999</ele>
        <time>2022-08-07T08:03:51Z</time>
      </trkpt>
      <trkpt lat="45.203473968431354" lon="7.077289195731282">
        <ele>3542.6199999999999</ele>
        <time>2022-08-07T08:04:07Z</time>
      </trkpt>
      <trkpt lat="45.203477907925844" lon="7.077288441359997">
        <ele>3542.96</ele>
        <time>2022-08-07T08:04:25Z</time>
      </trkpt>
      <trkpt lat="45.203478746116161" lon="7.077279975637794">
        <ele>3542.3899999999999</ele>
        <time>2022-08-07T08:04:50Z</time>
      </trkpt>
      <trkpt lat="45.203480673953891" lon="7.077283579856157">
        <ele>3543.1500000000001</ele>
        <time>2022-08-07T08:05:12Z</time>
      </trkpt>
      <trkpt lat="45.203479919582605" lon="7.077283328399062">
        <ele>3542.6199999999999</ele>
        <time>2022-08-07T08:05:27Z</time>
      </trkpt>
      <trkpt lat="45.203503975644708" lon="7.077317778021097">
        <ele>3542.2600000000002</ele>
        <time>2022-08-07T08:05:41Z</time>
      </trkpt>
      <trkpt lat="45.203513195738196" lon="7.077373433858156">
        <ele>3540.8200000000002</ele>
        <time>2022-08-07T08:05:52Z</time>
      </trkpt>
      <trkpt lat="45.203465251252055" lon="7.07737997174263">
        <ele>3537.79</ele>
        <time>2022-08-07T08:06:04Z</time>
      </trkpt>
      <trkpt lat="45.203406997025013" lon="7.0773193705827">
        <ele>3535.8400000000001</ele>
        <time>2022-08-07T08:06:15Z</time>
      </trkpt>
      <trkpt lat="45.203382773324847" lon="7.077240077778697">
        <ele>3536.0999999999999</ele>
        <time>2022-08-07T08:06:27Z</time>
      </trkpt>
      <trkpt lat="45.203346144407988" lon="7.077168580144644">
        <ele>3536.1900000000001</ele>
        <time>2022-08-07T08:06:39Z</time>
      </trkpt>
      <trkpt lat="45.203319573774934" lon="7.077161204069853">
        <ele>3536.52</ele>
        <time>2022-08-07T08:06:51Z</time>
      </trkpt>
      <trkpt lat="45.203348072245717" lon="7.077170424163342">
        <ele>3536.5300000000002</ele>
        <time>2022-08-07T08:07:13Z</time>
      </trkpt>
      <trkpt lat="45.203378666192293" lon="7.077202191576362">
        <ele>3536.2600000000002</ele>
        <time>2022-08-07T08:07:29Z</time>
      </trkpt>
      <trkpt lat="45.20342736504972" lon="7.07729154266417">
        <ele>3536.4699999999998</ele>
        <time>2022-08-07T08:07:41Z</time>
      </trkpt>
      <trkpt lat="45.203482182696462" lon="7.077448619529605">
        <ele>3536.9400000000001</ele>
        <time>2022-08-07T08:08:05Z</time>
      </trkpt>
      <trkpt lat="45.203577484935522" lon="7.077042181044817">
        <ele>3537.1199999999999</ele>
        <time>2022-08-07T08:08:29Z</time>
      </trkpt>
      <trkpt lat="45.203694496303797" lon="7.077101776376367">
        <ele>3537.3600000000001</ele>
        <time>2022-08-07T08:09:21Z</time>
      </trkpt>
      <trkpt lat="45.203392161056399" lon="7.076771361753345">
        <ele>3537.6900000000001</ele>
        <time>2022-08-07T08:09:44Z</time>
      </trkpt>
      <trkpt lat="45.20336676388979" lon="7.077140836045146">
        <ele>3537.7600000000002</ele>
        <time>2022-08-07T08:09:59Z</time>
      </trkpt>
      <trkpt lat="45.203357962891459" lon="7.077246364206076">
        <ele>3537.6900000000001</ele>
        <time>2022-08-07T08:10:08Z</time>
      </trkpt>
      <trkpt lat="45.203378750011325" lon="7.077378630638123">
        <ele>3537.6700000000001</ele>
        <time>2022-08-07T08:10:14Z</time>
      </trkpt>
      <trkpt lat="45.203398698940873" lon="7.077526822686195">
        <ele>3537.5300000000002</ele>
        <time>2022-08-07T08:10:30Z</time>
      </trkpt>
      <trkpt lat="45.203268444165587" lon="7.07751777023077">
        <ele>3537.5900000000001</ele>
        <time>2022-08-07T08:11:29Z</time>
      </trkpt>
      <trkpt lat="45.2033955976367" lon="7.077195653691888">
        <ele>3536.5799999999999</ele>
        <time>2022-08-07T08:11:46Z</time>
      </trkpt>
      <trkpt lat="45.203367182984948" lon="7.077222475782037">
        <ele>3536.6300000000001</ele>
        <time>2022-08-07T08:12:03Z</time>
      </trkpt>
      <trkpt lat="45.203366428613663" lon="7.077222978696227">
        <ele>3536.6399999999999</ele>
        <time>2022-08-07T08:12:04Z</time>
      </trkpt>
      <trkpt lat="45.203357711434364" lon="7.077222475782037">
        <ele>3536.9299999999998</ele>
        <time>2022-08-07T08:12:09Z</time>
      </trkpt>
      <trkpt lat="45.203350419178605" lon="7.077215267345309">
        <ele>3536.8699999999999</ele>
        <time>2022-08-07T08:12:25Z</time>
      </trkpt>
      <trkpt lat="45.203362992033362" lon="7.077214596793056">
        <ele>3536.8000000000002</ele>
        <time>2022-08-07T08:12:36Z</time>
      </trkpt>
      <trkpt lat="45.203354693949223" lon="7.077239826321602">
        <ele>3536.98</ele>
        <time>2022-08-07T08:12:45Z</time>
      </trkpt>
      <trkpt lat="45.203368356451392" lon="7.077221972867847">
        <ele>3536.75</ele>
        <time>2022-08-07T08:13:10Z</time>
      </trkpt>
      <trkpt lat="45.203371876850724" lon="7.077221302315593">
        <ele>3536.6100000000001</ele>
        <time>2022-08-07T08:13:27Z</time>
      </trkpt>
      <trkpt lat="45.203404314815998" lon="7.077280059456825">
        <ele>3536.5500000000002</ele>
        <time>2022-08-07T08:13:37Z</time>
      </trkpt>
      <trkpt lat="45.203403979539871" lon="7.077309060841799">
        <ele>3536.0900000000001</ele>
        <time>2022-08-07T08:13:50Z</time>
      </trkpt>
      <trkpt lat="45.20341856405139" lon="7.07729883491993">
        <ele>3536.0300000000002</ele>
        <time>2022-08-07T08:14:01Z</time>
      </trkpt>
      <trkpt lat="45.203403644263744" lon="7.077287351712585">
        <ele>3536.6199999999999</ele>
        <time>2022-08-07T08:14:14Z</time>
      </trkpt>
      <trkpt lat="45.203398112207651" lon="7.077286848798394">
        <ele>3536.5799999999999</ele>
        <time>2022-08-07T08:14:30Z</time>
      </trkpt>
      <trkpt lat="45.203404566273093" lon="7.077286429703236">
        <ele>3536.6199999999999</ele>
        <time>2022-08-07T08:14:48Z</time>
      </trkpt>
      <trkpt lat="45.203430214896798" lon="7.077318532392383">
        <ele>3537.02</ele>
        <time>2022-08-07T08:14:59Z</time>
      </trkpt>
      <trkpt lat="45.203426526859403" lon="7.07733454182744">
        <ele>3537.5900000000001</ele>
        <time>2022-08-07T08:15:11Z</time>
      </trkpt>
      <trkpt lat="45.203408421948552" lon="7.077316269278526">
        <ele>3537.23</ele>
        <time>2022-08-07T08:15:15Z</time>
      </trkpt>
      <trkpt lat="45.203372044488788" lon="7.07721283659339">
        <ele>3537.23</ele>
        <time>2022-08-07T08:15:27Z</time>
      </trkpt>
      <trkpt lat="45.203346479684114" lon="7.077156594023109">
        <ele>3537.1599999999999</ele>
        <time>2022-08-07T08:15:39Z</time>
      </trkpt>
      <trkpt lat="45.203350922092795" lon="7.077172352001071">
        <ele>3536.73</ele>
        <time>2022-08-07T08:15:53Z</time>
      </trkpt>
      <trkpt lat="45.203363075852394" lon="7.077184841036797">
        <ele>3536.7199999999998</ele>
        <time>2022-08-07T08:16:08Z</time>
      </trkpt>
      <trkpt lat="45.20336776971817" lon="7.07720797508955">
        <ele>3537.1999999999998</ele>
        <time>2022-08-07T08:16:25Z</time>
      </trkpt>
      <trkpt lat="45.20336533896625" lon="7.077231695875526">
        <ele>3536.2399999999998</ele>
        <time>2022-08-07T08:16:38Z</time>
      </trkpt>
      <trkpt lat="45.203354191035032" lon="7.077225325629115">
        <ele>3536.5900000000001</ele>
        <time>2022-08-07T08:16:54Z</time>
      </trkpt>
      <trkpt lat="45.203348910436034" lon="7.077220799401403">
        <ele>3536.6999999999998</ele>
        <time>2022-08-07T08:17:19Z</time>
      </trkpt>
      <trkpt lat="45.203346312046051" lon="7.077220967039466">
        <ele>3536.6399999999999</ele>
        <time>2022-08-07T08:17:42Z</time>
      </trkpt>
      <trkpt lat="45.203347485512495" lon="7.077211830765009">
        <ele>3537.0900000000001</ele>
        <time>2022-08-07T08:18:00Z</time>
      </trkpt>
      <trkpt lat="45.203348910436034" lon="7.07714737392962">
        <ele>3537.7199999999998</ele>
        <time>2022-08-07T08:18:11Z</time>
      </trkpt>
      <trkpt lat="45.203356621786952" lon="7.077148463577032">
        <ele>3537.0500000000002</ele>
        <time>2022-08-07T08:18:28Z</time>
      </trkpt>
      <trkpt lat="45.203365003690124" lon="7.077147457748652">
        <ele>3537.9099999999999</ele>
        <time>2022-08-07T08:18:41Z</time>
      </trkpt>
      <trkpt lat="45.203380761668086" lon="7.077196827158332">
        <ele>3537.5700000000002</ele>
        <time>2022-08-07T08:19:07Z</time>
      </trkpt>
      <trkpt lat="45.203406913205981" lon="7.077290201559663">
        <ele>3537.21</ele>
        <time>2022-08-07T08:19:17Z</time>
      </trkpt>
      <trkpt lat="45.203428957611322" lon="7.077358262613416">
        <ele>3536.8200000000002</ele>
        <time>2022-08-07T08:19:27Z</time>
      </trkpt>
      <trkpt lat="45.203466257080436" lon="7.077433532103896">
        <ele>3534.4699999999998</ele>
        <time>2022-08-07T08:19:40Z</time>
      </trkpt>
      <trkpt lat="45.203480254858732" lon="7.077482314780355">
        <ele>3531.9099999999999</ele>
        <time>2022-08-07T08:19:51Z</time>
      </trkpt>
      <trkpt lat="45.20351872779429" lon="7.077475609257817">
        <ele>3530.6799999999998</ele>
        <time>2022-08-07T08:19:57Z</time>
      </trkpt>
      <trkpt lat="45.203532725572586" lon="7.077494049444795">
        <ele>3528.73</ele>
        <time>2022-08-07T08:20:02Z</time>
      </trkpt>
      <trkpt lat="45.203447733074427" lon="7.077514417469502">
        <ele>3527.0799999999999</ele>
        <time>2022-08-07T08:20:14Z</time>
      </trkpt>
      <trkpt lat="45.203397106379271" lon="7.077519027516246">
        <ele>3526.1100000000001</ele>
        <time>2022-08-07T08:20:28Z</time>
      </trkpt>
      <trkpt lat="45.203387048095465" lon="7.077522883191705">
        <ele>3525.5100000000002</ele>
        <time>2022-08-07T08:20:49Z</time>
      </trkpt>
      <trkpt lat="45.203372295945883" lon="7.077507460489869">
        <ele>3524.52</ele>
        <time>2022-08-07T08:21:09Z</time>
      </trkpt>
      <trkpt lat="45.203351676464081" lon="7.077492624521256">
        <ele>3521.96</ele>
        <time>2022-08-07T08:21:25Z</time>
      </trkpt>
      <trkpt lat="45.2033472340554" lon="7.077476195991039">
        <ele>3521.4499999999998</ele>
        <time>2022-08-07T08:21:42Z</time>
      </trkpt>
      <trkpt lat="45.203320244327188" lon="7.077449206262827">
        <ele>3520.0500000000002</ele>
        <time>2022-08-07T08:21:55Z</time>
      </trkpt>
      <trkpt lat="45.20330423489213" lon="7.077412074431777">
        <ele>3518.3400000000001</ele>
        <time>2022-08-07T08:22:11Z</time>
      </trkpt>
      <trkpt lat="45.203296188265085" lon="7.077382151037455">
        <ele>3516.98</ele>
        <time>2022-08-07T08:22:29Z</time>
      </trkpt>
      <trkpt lat="45.203277245163918" lon="7.077342923730612">
        <ele>3515.0500000000002</ele>
        <time>2022-08-07T08:22:51Z</time>
      </trkpt>
      <trkpt lat="45.203262576833367" lon="7.077367734164">
        <ele>3513.5999999999999</ele>
        <time>2022-08-07T08:23:03Z</time>
      </trkpt>
      <trkpt lat="45.203241789713502" lon="7.077335128560662">
        <ele>3511.73</ele>
        <time>2022-08-07T08:23:23Z</time>
      </trkpt>
      <trkpt lat="45.203228546306491" lon="7.077317778021097">
        <ele>3511.27</ele>
        <time>2022-08-07T08:23:38Z</time>
      </trkpt>
      <trkpt lat="45.203202730044723" lon="7.077302690595388">
        <ele>3509.2399999999998</ele>
        <time>2022-08-07T08:23:52Z</time>
      </trkpt>
      <trkpt lat="45.203175405040383" lon="7.077283747494221">
        <ele>3507.3899999999999</ele>
        <time>2022-08-07T08:24:08Z</time>
      </trkpt>
      <trkpt lat="45.203170208260417" lon="7.077282490208745">
        <ele>3505.8000000000002</ele>
        <time>2022-08-07T08:24:23Z</time>
      </trkpt>
      <trkpt lat="45.203179344534874" lon="7.077265810221434">
        <ele>3505.2399999999998</ele>
        <time>2022-08-07T08:24:39Z</time>
      </trkpt>
      <trkpt lat="45.203153528273106" lon="7.077261200174689">
        <ele>3504.0700000000002</ele>
        <time>2022-08-07T08:24:53Z</time>
      </trkpt>
      <trkpt lat="45.203114720061421" lon="7.077258015051484">
        <ele>3501.79</ele>
        <time>2022-08-07T08:25:08Z</time>
      </trkpt>
      <trkpt lat="45.203083036467433" lon="7.077230606228113">
        <ele>3499.2399999999998</ele>
        <time>2022-08-07T08:25:22Z</time>
      </trkpt>
      <trkpt lat="45.203049089759588" lon="7.077221805229783">
        <ele>3498.3499999999999</ele>
        <time>2022-08-07T08:25:33Z</time>
      </trkpt>
      <trkpt lat="45.203053196892142" lon="7.077261535450816">
        <ele>3497.1900000000001</ele>
        <time>2022-08-07T08:25:47Z</time>
      </trkpt>
      <trkpt lat="45.20306970924139" lon="7.077252650633454">
        <ele>3497.27</ele>
        <time>2022-08-07T08:26:01Z</time>
      </trkpt>
      <trkpt lat="45.203106254339218" lon="7.077313922345638">
        <ele>3494.6500000000001</ele>
        <time>2022-08-07T08:26:17Z</time>
      </trkpt>
      <trkpt lat="45.203111032024026" lon="7.077320879325271">
        <ele>3494.2399999999998</ele>
        <time>2022-08-07T08:26:18Z</time>
      </trkpt>
      <trkpt lat="45.20312150940299" lon="7.07734334282577">
        <ele>3493.2600000000002</ele>
        <time>2022-08-07T08:26:20Z</time>
      </trkpt>
      <trkpt lat="45.203083204105496" lon="7.077320041134954">
        <ele>3489.8299999999999</ele>
        <time>2022-08-07T08:26:30Z</time>
      </trkpt>
      <trkpt lat="45.203022016212344" lon="7.077263295650482">
        <ele>3487.8400000000001</ele>
        <time>2022-08-07T08:26:43Z</time>
      </trkpt>
      <trkpt lat="45.202970718964934" lon="7.077217446640134">
        <ele>3486.1500000000001</ele>
        <time>2022-08-07T08:26:56Z</time>
      </trkpt>
      <trkpt lat="45.202927468344569" lon="7.077203616499901">
        <ele>3485.6500000000001</ele>
        <time>2022-08-07T08:27:08Z</time>
      </trkpt>
      <trkpt lat="45.202913889661431" lon="7.077181655913591">
        <ele>3485.0900000000001</ele>
        <time>2022-08-07T08:27:22Z</time>
      </trkpt>
      <trkpt lat="45.202892683446407" lon="7.077169418334961">
        <ele>3483.8299999999999</ele>
        <time>2022-08-07T08:27:34Z</time>
      </trkpt>
      <trkpt lat="45.202878434211016" lon="7.077162126079202">
        <ele>3482.5900000000001</ele>
        <time>2022-08-07T08:27:49Z</time>
      </trkpt>
      <trkpt lat="45.202854461967945" lon="7.077136561274529">
        <ele>3481.5599999999999</ele>
        <time>2022-08-07T08:28:03Z</time>
      </trkpt>
      <trkpt lat="45.202817497774959" lon="7.077141925692558">
        <ele>3478.4499999999998</ele>
        <time>2022-08-07T08:28:15Z</time>
      </trkpt>
      <trkpt lat="45.202792938798666" lon="7.077127927914262">
        <ele>3476.4899999999998</ele>
        <time>2022-08-07T08:28:27Z</time>
      </trkpt>
      <trkpt lat="45.202771984040737" lon="7.077109320089221">
        <ele>3475.8400000000001</ele>
        <time>2022-08-07T08:28:39Z</time>
      </trkpt>
      <trkpt lat="45.202752705663443" lon="7.077106051146984">
        <ele>3475.1399999999999</ele>
        <time>2022-08-07T08:28:50Z</time>
      </trkpt>
      <trkpt lat="45.202744575217366" lon="7.077116528525949">
        <ele>3472.79</ele>
        <time>2022-08-07T08:29:03Z</time>
      </trkpt>
      <trkpt lat="45.202770978212357" lon="7.077180230990052">
        <ele>3470.23</ele>
        <time>2022-08-07T08:29:17Z</time>
      </trkpt>
      <trkpt lat="45.202787239104509" lon="7.077208226546645">
        <ele>3469.3099999999999</ele>
        <time>2022-08-07T08:29:34Z</time>
      </trkpt>
      <trkpt lat="45.202756058424711" lon="7.077209400013089">
        <ele>3467.5</ele>
        <time>2022-08-07T08:29:48Z</time>
      </trkpt>
      <trkpt lat="45.202723871916533" lon="7.077192468568683">
        <ele>3465.5700000000002</ele>
        <time>2022-08-07T08:30:03Z</time>
      </trkpt>
      <trkpt lat="45.20270274952054" lon="7.077176962047815">
        <ele>3464.0999999999999</ele>
        <time>2022-08-07T08:30:20Z</time>
      </trkpt>
      <trkpt lat="45.202700821682811" lon="7.077172603458166">
        <ele>3463.3800000000001</ele>
        <time>2022-08-07T08:30:36Z</time>
      </trkpt>
      <trkpt lat="45.202697552740574" lon="7.077164053916931">
        <ele>3463.5700000000002</ele>
        <time>2022-08-07T08:30:47Z</time>
      </trkpt>
      <trkpt lat="45.202677184715867" lon="7.077153408899903">
        <ele>3462.5300000000002</ele>
        <time>2022-08-07T08:31:01Z</time>
      </trkpt>
      <trkpt lat="45.202638544142246" lon="7.077135723084211">
        <ele>3460.0500000000002</ele>
        <time>2022-08-07T08:31:13Z</time>
      </trkpt>
      <trkpt lat="45.202600071206689" lon="7.077117869630456">
        <ele>3458.3499999999999</ele>
        <time>2022-08-07T08:31:26Z</time>
      </trkpt>
      <trkpt lat="45.202568303793669" lon="7.077096160501242">
        <ele>3455.3200000000002</ele>
        <time>2022-08-07T08:31:39Z</time>
      </trkpt>
      <trkpt lat="45.20254785194993" lon="7.077103620395064">
        <ele>3453.6799999999998</ele>
        <time>2022-08-07T08:31:50Z</time>
      </trkpt>
      <trkpt lat="45.202568052336574" lon="7.077179057523608">
        <ele>3450.5799999999999</ele>
        <time>2022-08-07T08:32:05Z</time>
      </trkpt>
      <trkpt lat="45.202582301571965" lon="7.077258853241801">
        <ele>3447.8299999999999</ele>
        <time>2022-08-07T08:32:21Z</time>
      </trkpt>
      <trkpt lat="45.202590599656105" lon="7.077312329784036">
        <ele>3445.6100000000001</ele>
        <time>2022-08-07T08:32:34Z</time>
      </trkpt>
      <trkpt lat="45.202594287693501" lon="7.07733890041709">
        <ele>3444.9899999999998</ele>
        <time>2022-08-07T08:32:47Z</time>
      </trkpt>
      <trkpt lat="45.202598478645086" lon="7.07741123624146">
        <ele>3442.4299999999998</ele>
        <time>2022-08-07T08:33:02Z</time>
      </trkpt>
      <trkpt lat="45.202575847506523" lon="7.077424395829439">
        <ele>3440.7800000000002</ele>
        <time>2022-08-07T08:33:13Z</time>
      </trkpt>
      <trkpt lat="45.202535865828395" lon="7.077396735548973">
        <ele>3439.23</ele>
        <time>2022-08-07T08:33:27Z</time>
      </trkpt>
      <trkpt lat="45.202504685148597" lon="7.077372847124934">
        <ele>3437.6900000000001</ele>
        <time>2022-08-07T08:33:40Z</time>
      </trkpt>
      <trkpt lat="45.202460344880819" lon="7.077338146045804">
        <ele>3434.75</ele>
        <time>2022-08-07T08:33:55Z</time>
      </trkpt>
      <trkpt lat="45.202407790347934" lon="7.077288525179029">
        <ele>3432.3800000000001</ele>
        <time>2022-08-07T08:34:12Z</time>
      </trkpt>
      <trkpt lat="45.202371245250106" lon="7.077257093042135">
        <ele>3429.75</ele>
        <time>2022-08-07T08:34:26Z</time>
      </trkpt>
      <trkpt lat="45.202351128682494" lon="7.077224235981703">
        <ele>3428.1399999999999</ele>
        <time>2022-08-07T08:34:41Z</time>
      </trkpt>
      <trkpt lat="45.202319948002696" lon="7.077235300093889">
        <ele>3425.8499999999999</ele>
        <time>2022-08-07T08:34:50Z</time>
      </trkpt>
      <trkpt lat="45.202280217781663" lon="7.077213255688548">
        <ele>3423.9200000000001</ele>
        <time>2022-08-07T08:35:00Z</time>
      </trkpt>
      <trkpt lat="45.202240068465471" lon="7.077193977311254">
        <ele>3421.6599999999999</ele>
        <time>2022-08-07T08:35:11Z</time>
      </trkpt>
      <trkpt lat="45.202199751511216" lon="7.077171262353659">
        <ele>3418.4499999999998</ele>
        <time>2022-08-07T08:35:23Z</time>
      </trkpt>
      <trkpt lat="45.202190615236759" lon="7.077163383364677">
        <ele>3417.5700000000002</ele>
        <time>2022-08-07T08:35:33Z</time>
      </trkpt>
      <trkpt lat="45.202185502275825" lon="7.077171094715595">
        <ele>3417.25</ele>
        <time>2022-08-07T08:35:50Z</time>
      </trkpt>
      <trkpt lat="45.202173013240099" lon="7.077168663963676">
        <ele>3417.21</ele>
        <time>2022-08-07T08:36:08Z</time>
      </trkpt>
      <trkpt lat="45.202115848660469" lon="7.077164640650153">
        <ele>3415</ele>
        <time>2022-08-07T08:36:18Z</time>
      </trkpt>
      <trkpt lat="45.202069412916899" lon="7.077147122472525">
        <ele>3413.2399999999998</ele>
        <time>2022-08-07T08:36:32Z</time>
      </trkpt>
      <trkpt lat="45.202045189216733" lon="7.077139494940639">
        <ele>3412.0700000000002</ele>
        <time>2022-08-07T08:36:48Z</time>
      </trkpt>
      <trkpt lat="45.201988779008389" lon="7.077127425000072">
        <ele>3409.5799999999999</ele>
        <time>2022-08-07T08:37:04Z</time>
      </trkpt>
      <trkpt lat="45.201941085979342" lon="7.077102949842811">
        <ele>3407.9099999999999</ele>
        <time>2022-08-07T08:37:18Z</time>
      </trkpt>
      <trkpt lat="45.201878054067492" lon="7.077077887952328">
        <ele>3405.5700000000002</ele>
        <time>2022-08-07T08:37:31Z</time>
      </trkpt>
      <trkpt lat="45.201836731284857" lon="7.077055424451828">
        <ele>3403.4099999999999</ele>
        <time>2022-08-07T08:37:45Z</time>
      </trkpt>
      <trkpt lat="45.201799180358648" lon="7.077026506885886">
        <ele>3400.0999999999999</ele>
        <time>2022-08-07T08:37:54Z</time>
      </trkpt>
      <trkpt lat="45.201750062406063" lon="7.077001193538308">
        <ele>3398.5999999999999</ele>
        <time>2022-08-07T08:38:09Z</time>
      </trkpt>
      <trkpt lat="45.201714271679521" lon="7.07697780802846">
        <ele>3396.4699999999998</ele>
        <time>2022-08-07T08:38:22Z</time>
      </trkpt>
      <trkpt lat="45.201666578650475" lon="7.076947130262852">
        <ele>3394.0900000000001</ele>
        <time>2022-08-07T08:38:36Z</time>
      </trkpt>
      <trkpt lat="45.201627686619759" lon="7.076919972896576">
        <ele>3391.6999999999998</ele>
        <time>2022-08-07T08:38:48Z</time>
      </trkpt>
      <trkpt lat="45.201593153178692" lon="7.07689767703414">
        <ele>3389.8800000000001</ele>
        <time>2022-08-07T08:39:01Z</time>
      </trkpt>
      <trkpt lat="45.201543867588043" lon="7.076878314837813">
        <ele>3387.46</ele>
        <time>2022-08-07T08:39:14Z</time>
      </trkpt>
      <trkpt lat="45.201484272256494" lon="7.076855516061187">
        <ele>3384.3899999999999</ele>
        <time>2022-08-07T08:39:25Z</time>
      </trkpt>
      <trkpt lat="45.201416462659836" lon="7.076842440292239">
        <ele>3382.5799999999999</ele>
        <time>2022-08-07T08:39:37Z</time>
      </trkpt>
      <trkpt lat="45.201345887035131" lon="7.076817713677883">
        <ele>3379.71</ele>
        <time>2022-08-07T08:39:49Z</time>
      </trkpt>
      <trkpt lat="45.201270198449492" lon="7.076786449179053">
        <ele>3377.54</ele>
        <time>2022-08-07T08:40:01Z</time>
      </trkpt>
      <trkpt lat="45.20120800472796" lon="7.076765159144998">
        <ele>3375.9099999999999</ele>
        <time>2022-08-07T08:40:13Z</time>
      </trkpt>
      <trkpt lat="45.201155701652169" lon="7.076734397560358">
        <ele>3373.8499999999999</ele>
        <time>2022-08-07T08:40:24Z</time>
      </trkpt>
      <trkpt lat="45.201077414676547" lon="7.076707407832146">
        <ele>3371.8400000000001</ele>
        <time>2022-08-07T08:40:35Z</time>
      </trkpt>
      <trkpt lat="45.201012790203094" lon="7.076691566035152">
        <ele>3370.5300000000002</ele>
        <time>2022-08-07T08:40:47Z</time>
      </trkpt>
      <trkpt lat="45.200941795483232" lon="7.076668683439493">
        <ele>3368.5599999999999</ele>
        <time>2022-08-07T08:41:03Z</time>
      </trkpt>
      <trkpt lat="45.200876500457525" lon="7.076647644862533">
        <ele>3365.5100000000002</ele>
        <time>2022-08-07T08:41:17Z</time>
      </trkpt>
      <trkpt lat="45.200822269544005" lon="7.076636916026473">
        <ele>3362.9699999999998</ele>
        <time>2022-08-07T08:41:30Z</time>
      </trkpt>
      <trkpt lat="45.200751191005111" lon="7.076634988188744">
        <ele>3361.3099999999999</ele>
        <time>2022-08-07T08:41:42Z</time>
      </trkpt>
      <trkpt lat="45.200668629258871" lon="7.076616883277893">
        <ele>3358.9000000000001</ele>
        <time>2022-08-07T08:41:54Z</time>
      </trkpt>
      <trkpt lat="45.200590761378407" lon="7.076595425605774">
        <ele>3356.54</ele>
        <time>2022-08-07T08:42:06Z</time>
      </trkpt>
      <trkpt lat="45.200536279007792" lon="7.076604645699263">
        <ele>3353.8899999999999</ele>
        <time>2022-08-07T08:42:19Z</time>
      </trkpt>
      <trkpt lat="45.200468804687262" lon="7.0766079146415">
        <ele>3352.5300000000002</ele>
        <time>2022-08-07T08:42:32Z</time>
      </trkpt>
      <trkpt lat="45.200367383658886" lon="7.076585451141">
        <ele>3351.1500000000001</ele>
        <time>2022-08-07T08:42:44Z</time>
      </trkpt>
      <trkpt lat="45.200285157188773" lon="7.076580002903938">
        <ele>3348.6100000000001</ele>
        <time>2022-08-07T08:42:58Z</time>
      </trkpt>
      <trkpt lat="45.200259760022163" lon="7.076584026217461">
        <ele>3347.52</ele>
        <time>2022-08-07T08:43:02Z</time>
      </trkpt>
      <trkpt lat="45.200231848284602" lon="7.076588971540332">
        <ele>3346.6999999999998</ele>
        <time>2022-08-07T08:43:05Z</time>
      </trkpt>
      <trkpt lat="45.200086925178766" lon="7.076554521918297">
        <ele>3343.8000000000002</ele>
        <time>2022-08-07T08:43:21Z</time>
      </trkpt>
      <trkpt lat="45.200025402009487" lon="7.076555108651519">
        <ele>3342.3299999999999</ele>
        <time>2022-08-07T08:43:34Z</time>
      </trkpt>
      <trkpt lat="45.199988689273596" lon="7.076549157500267">
        <ele>3340.9499999999998</ele>
        <time>2022-08-07T08:43:46Z</time>
      </trkpt>
      <trkpt lat="45.19995516166091" lon="7.076530633494258">
        <ele>3338.75</ele>
        <time>2022-08-07T08:43:59Z</time>
      </trkpt>
      <trkpt lat="45.199913503602147" lon="7.076521078124642">
        <ele>3336.2800000000002</ele>
        <time>2022-08-07T08:44:14Z</time>
      </trkpt>
      <trkpt lat="45.199866816401482" lon="7.076498866081238">
        <ele>3333.8600000000001</ele>
        <time>2022-08-07T08:44:27Z</time>
      </trkpt>
      <trkpt lat="45.199799342080951" lon="7.076494507491589">
        <ele>3330.9499999999998</ele>
        <time>2022-08-07T08:44:39Z</time>
      </trkpt>
      <trkpt lat="45.199790960177779" lon="7.076491490006447">
        <ele>3330.5</ele>
        <time>2022-08-07T08:44:40Z</time>
      </trkpt>
      <trkpt lat="45.199659112840891" lon="7.076481012627482">
        <ele>3329.6300000000001</ele>
        <time>2022-08-07T08:44:55Z</time>
      </trkpt>
      <trkpt lat="45.199630530551076" lon="7.07647304981947">
        <ele>3329.27</ele>
        <time>2022-08-07T08:44:58Z</time>
      </trkpt>
      <trkpt lat="45.199541430920362" lon="7.076441450044513">
        <ele>3326.1599999999999</ele>
        <time>2022-08-07T08:45:09Z</time>
      </trkpt>
      <trkpt lat="45.19944503903389" lon="7.076416639611125">
        <ele>3323.0799999999999</ele>
        <time>2022-08-07T08:45:21Z</time>
      </trkpt>
      <trkpt lat="45.199358873069286" lon="7.076407335698605">
        <ele>3323.1900000000001</ele>
        <time>2022-08-07T08:45:33Z</time>
      </trkpt>
      <trkpt lat="45.199335990473628" lon="7.076404821127653">
        <ele>3322.8899999999999</ele>
        <time>2022-08-07T08:45:45Z</time>
      </trkpt>
      <trkpt lat="45.199326686561108" lon="7.076404066756368">
        <ele>3323.29</ele>
        <time>2022-08-07T08:46:05Z</time>
      </trkpt>
      <trkpt lat="45.199322830885649" lon="7.076406916603446">
        <ele>3321.8299999999999</ele>
        <time>2022-08-07T08:46:19Z</time>
      </trkpt>
      <trkpt lat="45.199320400133729" lon="7.076411442831159">
        <ele>3321.54</ele>
        <time>2022-08-07T08:46:37Z</time>
      </trkpt>
      <trkpt lat="45.199304558336735" lon="7.076390320435166">
        <ele>3321.7600000000002</ele>
        <time>2022-08-07T08:46:53Z</time>
      </trkpt>
      <trkpt lat="45.199312940239906" lon="7.076392667368054">
        <ele>3321.3699999999999</ele>
        <time>2022-08-07T08:47:04Z</time>
      </trkpt>
      <trkpt lat="45.199324758723378" lon="7.076394930481911">
        <ele>3321.7199999999998</ele>
        <time>2022-08-07T08:47:22Z</time>
      </trkpt>
      <trkpt lat="45.199334314092994" lon="7.076398702338338">
        <ele>3321.5799999999999</ele>
        <time>2022-08-07T08:47:37Z</time>
      </trkpt>
      <trkpt lat="45.199324423447251" lon="7.076403144747019">
        <ele>3321.8800000000001</ele>
        <time>2022-08-07T08:47:56Z</time>
      </trkpt>
      <trkpt lat="45.199351077899337" lon="7.076417561620474">
        <ele>3322.3000000000002</ele>
        <time>2022-08-07T08:48:09Z</time>
      </trkpt>
      <trkpt lat="45.199361136183143" lon="7.076410939916968">
        <ele>3322.1599999999999</ele>
        <time>2022-08-07T08:48:21Z</time>
      </trkpt>
      <trkpt lat="45.199362142011523" lon="7.076394595205784">
        <ele>3321.25</ele>
        <time>2022-08-07T08:48:39Z</time>
      </trkpt>
      <trkpt lat="45.199365662410855" lon="7.076387889683247">
        <ele>3320.6799999999998</ele>
        <time>2022-08-07T08:49:00Z</time>
      </trkpt>
      <trkpt lat="45.199363818392158" lon="7.076388811692596">
        <ele>3321.5100000000002</ele>
        <time>2022-08-07T08:49:18Z</time>
      </trkpt>
      <trkpt lat="45.199356777593493" lon="7.076396942138672">
        <ele>3320.4899999999998</ele>
        <time>2022-08-07T08:49:41Z</time>
      </trkpt>
      <trkpt lat="45.199349904432893" lon="7.076406916603446">
        <ele>3320.2199999999998</ele>
        <time>2022-08-07T08:50:04Z</time>
      </trkpt>
      <trkpt lat="45.199355268850923" lon="7.07640272565186">
        <ele>3321.6999999999998</ele>
        <time>2022-08-07T08:50:25Z</time>
      </trkpt>
      <trkpt lat="45.1993478089571" lon="7.076414879411459">
        <ele>3322.0900000000001</ele>
        <time>2022-08-07T08:50:48Z</time>
      </trkpt>
      <trkpt lat="45.199337834492326" lon="7.076425775885582">
        <ele>3322.0999999999999</ele>
        <time>2022-08-07T08:50:58Z</time>
      </trkpt>
      <trkpt lat="45.199298355728388" lon="7.076426027342677">
        <ele>3321.3000000000002</ele>
        <time>2022-08-07T08:51:11Z</time>
      </trkpt>
      <trkpt lat="45.199271785095334" lon="7.076398534700275">
        <ele>3318</ele>
        <time>2022-08-07T08:51:19Z</time>
      </trkpt>
      <trkpt lat="45.199251333251595" lon="7.076361989602447">
        <ele>3317.1500000000001</ele>
        <time>2022-08-07T08:51:30Z</time>
      </trkpt>
      <trkpt lat="45.199230294674635" lon="7.076376155018807">
        <ele>3316.1500000000001</ele>
        <time>2022-08-07T08:51:35Z</time>
      </trkpt>
      <trkpt lat="45.199195258319378" lon="7.07638705149293">
        <ele>3312.8299999999999</ele>
        <time>2022-08-07T08:51:44Z</time>
      </trkpt>
      <trkpt lat="45.19916214980185" lon="7.076345812529326">
        <ele>3311.8400000000001</ele>
        <time>2022-08-07T08:51:57Z</time>
      </trkpt>
      <trkpt lat="45.199126861989498" lon="7.076366348192096">
        <ele>3308.5700000000002</ele>
        <time>2022-08-07T08:52:07Z</time>
      </trkpt>
      <trkpt lat="45.199099285528064" lon="7.076306417584419">
        <ele>3307.4099999999999</ele>
        <time>2022-08-07T08:52:19Z</time>
      </trkpt>
      <trkpt lat="45.199064332991838" lon="7.076316140592098">
        <ele>3304.8000000000002</ele>
        <time>2022-08-07T08:52:30Z</time>
      </trkpt>
      <trkpt lat="45.199032397940755" lon="7.076251935213804">
        <ele>3302.6700000000001</ele>
        <time>2022-08-07T08:52:41Z</time>
      </trkpt>
      <trkpt lat="45.199000714346766" lon="7.076306166127324">
        <ele>3299.7800000000002</ele>
        <time>2022-08-07T08:52:54Z</time>
      </trkpt>
      <trkpt lat="45.198961403220892" lon="7.076265178620815">
        <ele>3297.8899999999999</ele>
        <time>2022-08-07T08:53:04Z</time>
      </trkpt>
      <trkpt lat="45.19894078373909" lon="7.076185969635844">
        <ele>3295.1900000000001</ele>
        <time>2022-08-07T08:53:16Z</time>
      </trkpt>
      <trkpt lat="45.198887893930078" lon="7.076175827533007">
        <ele>3293.0999999999999</ele>
        <time>2022-08-07T08:53:28Z</time>
      </trkpt>
      <trkpt lat="45.19886844791472" lon="7.076239613816142">
        <ele>3291.1300000000001</ele>
        <time>2022-08-07T08:53:39Z</time>
      </trkpt>
      <trkpt lat="45.198838356882334" lon="7.076305914670229">
        <ele>3289.0999999999999</ele>
        <time>2022-08-07T08:53:53Z</time>
      </trkpt>
      <trkpt lat="45.198805164545774" lon="7.076287977397442">
        <ele>3286.8499999999999</ele>
        <time>2022-08-07T08:54:05Z</time>
      </trkpt>
      <trkpt lat="45.198789574205875" lon="7.076243301853538">
        <ele>3287.1500000000001</ele>
        <time>2022-08-07T08:54:14Z</time>
      </trkpt>
      <trkpt lat="45.198756884783506" lon="7.076131654903293">
        <ele>3284.0500000000002</ele>
        <time>2022-08-07T08:54:28Z</time>
      </trkpt>
      <trkpt lat="45.1987140532583" lon="7.076094187796116">
        <ele>3280.9699999999998</ele>
        <time>2022-08-07T08:54:38Z</time>
      </trkpt>
      <trkpt lat="45.198677759617567" lon="7.076037861406803">
        <ele>3278.29</ele>
        <time>2022-08-07T08:54:50Z</time>
      </trkpt>
      <trkpt lat="45.198637191206217" lon="7.076029814779759">
        <ele>3275.1700000000001</ele>
        <time>2022-08-07T08:54:59Z</time>
      </trkpt>
      <trkpt lat="45.198608776554465" lon="7.076031742617488">
        <ele>3272.1799999999998</ele>
        <time>2022-08-07T08:55:09Z</time>
      </trkpt>
      <trkpt lat="45.198589079082012" lon="7.076120087876916">
        <ele>3271.3299999999999</ele>
        <time>2022-08-07T08:55:17Z</time>
      </trkpt>
      <trkpt lat="45.198574829846621" lon="7.07625855691731">
        <ele>3268.9000000000001</ele>
        <time>2022-08-07T08:55:29Z</time>
      </trkpt>
      <trkpt lat="45.19856259226799" lon="7.076317146420479">
        <ele>3267.3499999999999</ele>
        <time>2022-08-07T08:55:40Z</time>
      </trkpt>
      <trkpt lat="45.198544235900044" lon="7.076379088684917">
        <ele>3265.5500000000002</ele>
        <time>2022-08-07T08:55:50Z</time>
      </trkpt>
      <trkpt lat="45.198511127382517" lon="7.076439270749688">
        <ele>3262.5599999999999</ele>
        <time>2022-08-07T08:56:02Z</time>
      </trkpt>
      <trkpt lat="45.19847609102726" lon="7.076469110324979">
        <ele>3260.5</ele>
        <time>2022-08-07T08:56:14Z</time>
      </trkpt>
      <trkpt lat="45.198436444625258" lon="7.076421082019806">
        <ele>3257.8099999999999</ele>
        <time>2022-08-07T08:56:26Z</time>
      </trkpt>
      <trkpt lat="45.198400989174843" lon="7.076374897733331">
        <ele>3255.3899999999999</ele>
        <time>2022-08-07T08:56:38Z</time>
      </trkpt>
      <trkpt lat="45.198371149599552" lon="7.076400630176067">
        <ele>3252.8699999999999</ele>
        <time>2022-08-07T08:56:50Z</time>
      </trkpt>
      <trkpt lat="45.198326474055648" lon="7.076352601870894">
        <ele>3250.4200000000001</ele>
        <time>2022-08-07T08:57:03Z</time>
      </trkpt>
      <trkpt lat="45.198303926736116" lon="7.076332652941346">
        <ele>3248.6799999999998</ele>
        <time>2022-08-07T08:57:14Z</time>
      </trkpt>
      <trkpt lat="45.198267633095384" lon="7.076360732316971">
        <ele>3246.1399999999999</ele>
        <time>2022-08-07T08:57:24Z</time>
      </trkpt>
      <trkpt lat="45.198240475729108" lon="7.076401133090258">
        <ele>3244.4099999999999</ele>
        <time>2022-08-07T08:57:35Z</time>
      </trkpt>
      <trkpt lat="45.198205355554819" lon="7.076464248821139">
        <ele>3241.3099999999999</ele>
        <time>2022-08-07T08:57:48Z</time>
      </trkpt>
      <trkpt lat="45.198187083005905" lon="7.07648335956037">
        <ele>3239.3000000000002</ele>
        <time>2022-08-07T08:57:59Z</time>
      </trkpt>
      <trkpt lat="45.198162188753486" lon="7.076462572440505">
        <ele>3238.6300000000001</ele>
        <time>2022-08-07T08:58:12Z</time>
      </trkpt>
      <trkpt lat="45.198117513209581" lon="7.076455447822809">
        <ele>3235.8000000000002</ele>
        <time>2022-08-07T08:58:25Z</time>
      </trkpt>
      <trkpt lat="45.198096390813589" lon="7.076493501663208">
        <ele>3233.7600000000002</ele>
        <time>2022-08-07T08:58:36Z</time>
      </trkpt>
      <trkpt lat="45.198056912049651" lon="7.076483694836497">
        <ele>3231.8200000000002</ele>
        <time>2022-08-07T08:58:47Z</time>
      </trkpt>
      <trkpt lat="45.198041489347816" lon="7.076575979590416">
        <ele>3230.1900000000001</ele>
        <time>2022-08-07T08:59:00Z</time>
      </trkpt>
      <trkpt lat="45.198028665035963" lon="7.076602969318628">
        <ele>3227.7199999999998</ele>
        <time>2022-08-07T08:59:12Z</time>
      </trkpt>
      <trkpt lat="45.198019193485379" lon="7.076621660962701">
        <ele>3226.8899999999999</ele>
        <time>2022-08-07T08:59:23Z</time>
      </trkpt>
      <trkpt lat="45.19798843190074" lon="7.076681088656187">
        <ele>3223.8600000000001</ele>
        <time>2022-08-07T08:59:36Z</time>
      </trkpt>
      <trkpt lat="45.197959179058671" lon="7.076711766421795">
        <ele>3222.0500000000002</ele>
        <time>2022-08-07T08:59:49Z</time>
      </trkpt>
      <trkpt lat="45.197943756356835" lon="7.076727524399757">
        <ele>3220.71</ele>
        <time>2022-08-07T09:00:00Z</time>
      </trkpt>
      <trkpt lat="45.197940990328789" lon="7.076748982071877">
        <ele>3220.3499999999999</ele>
        <time>2022-08-07T09:00:03Z</time>
      </trkpt>
      <trkpt lat="45.197938224300742" lon="7.076777061447501">
        <ele>3220.0700000000002</ele>
        <time>2022-08-07T09:00:05Z</time>
      </trkpt>
      <trkpt lat="45.197911988943815" lon="7.076803296804428">
        <ele>3217.8800000000001</ele>
        <time>2022-08-07T09:00:11Z</time>
      </trkpt>
      <trkpt lat="45.19786873832345" lon="7.076661810278893">
        <ele>3216.5</ele>
        <time>2022-08-07T09:00:22Z</time>
      </trkpt>
      <trkpt lat="45.197829427197576" lon="7.076567178592086">
        <ele>3213.6900000000001</ele>
        <time>2022-08-07T09:00:34Z</time>
      </trkpt>
      <trkpt lat="45.197789529338479" lon="7.076466763392091">
        <ele>3211.1300000000001</ele>
        <time>2022-08-07T09:00:47Z</time>
      </trkpt>
      <trkpt lat="45.197751140221953" lon="7.076428374275565">
        <ele>3209.3000000000002</ele>
        <time>2022-08-07T09:00:57Z</time>
      </trkpt>
      <trkpt lat="45.197729431092739" lon="7.076400881633163">
        <ele>3207.7600000000002</ele>
        <time>2022-08-07T09:01:02Z</time>
      </trkpt>
      <trkpt lat="45.19772264175117" lon="7.076377328485251">
        <ele>3207.2600000000002</ele>
        <time>2022-08-07T09:01:04Z</time>
      </trkpt>
      <trkpt lat="45.197690119966865" lon="7.076249923557043">
        <ele>3205.2600000000002</ele>
        <time>2022-08-07T09:01:17Z</time>
      </trkpt>
      <trkpt lat="45.197671093046665" lon="7.07618186250329">
        <ele>3204.0500000000002</ele>
        <time>2022-08-07T09:01:25Z</time>
      </trkpt>
      <trkpt lat="45.197621723636985" lon="7.075998885557056">
        <ele>3202.21</ele>
        <time>2022-08-07T09:01:39Z</time>
      </trkpt>
      <trkpt lat="45.197562966495752" lon="7.075835941359401">
        <ele>3200.1900000000001</ele>
        <time>2022-08-07T09:01:51Z</time>
      </trkpt>
      <trkpt lat="45.197514938190579" lon="7.075732341036201">
        <ele>3198.9000000000001</ele>
        <time>2022-08-07T09:02:04Z</time>
      </trkpt>
      <trkpt lat="45.197465484961867" lon="7.075714487582445">
        <ele>3196.2600000000002</ele>
        <time>2022-08-07T09:02:18Z</time>
      </trkpt>
      <trkpt lat="45.197419552132487" lon="7.075659334659576">
        <ele>3193.2399999999998</ele>
        <time>2022-08-07T09:02:28Z</time>
      </trkpt>
      <trkpt lat="45.197375882416964" lon="7.075577359646559">
        <ele>3190.79</ele>
        <time>2022-08-07T09:02:39Z</time>
      </trkpt>
      <trkpt lat="45.197374038398266" lon="7.075570654124022">
        <ele>3190.8299999999999</ele>
        <time>2022-08-07T09:02:40Z</time>
      </trkpt>
      <trkpt lat="45.197334391996264" lon="7.075503095984459">
        <ele>3188.9099999999999</ele>
        <time>2022-08-07T09:02:52Z</time>
      </trkpt>
      <trkpt lat="45.197284435853362" lon="7.075458001345396">
        <ele>3185.5700000000002</ele>
        <time>2022-08-07T09:03:01Z</time>
      </trkpt>
      <trkpt lat="45.197220565751195" lon="7.075412990525365">
        <ele>3182.6999999999998</ele>
        <time>2022-08-07T09:03:13Z</time>
      </trkpt>
      <trkpt lat="45.197158372029662" lon="7.075370326638222">
        <ele>3179.98</ele>
        <time>2022-08-07T09:03:24Z</time>
      </trkpt>
      <trkpt lat="45.197108332067728" lon="7.075311318039894">
        <ele>3177.6100000000001</ele>
        <time>2022-08-07T09:03:36Z</time>
      </trkpt>
      <trkpt lat="45.197050999850035" lon="7.075240239501">
        <ele>3175.1500000000001</ele>
        <time>2022-08-07T09:03:48Z</time>
      </trkpt>
      <trkpt lat="45.196987967938185" lon="7.075159940868616">
        <ele>3173.5599999999999</ele>
        <time>2022-08-07T09:04:00Z</time>
      </trkpt>
      <trkpt lat="45.196916051208973" lon="7.075067907571793">
        <ele>3171.1999999999998</ele>
        <time>2022-08-07T09:04:12Z</time>
      </trkpt>
      <trkpt lat="45.196858551353216" lon="7.07502817735076">
        <ele>3167.9200000000001</ele>
        <time>2022-08-07T09:04:23Z</time>
      </trkpt>
      <trkpt lat="45.19683281891048" lon="7.075026920065284">
        <ele>3166.9099999999999</ele>
        <time>2022-08-07T09:04:33Z</time>
      </trkpt>
      <trkpt lat="45.19678738899529" lon="7.07500378601253">
        <ele>3163.8800000000001</ele>
        <time>2022-08-07T09:04:41Z</time>
      </trkpt>
      <trkpt lat="45.196715891361237" lon="7.074953326955438">
        <ele>3160.98</ele>
        <time>2022-08-07T09:04:54Z</time>
      </trkpt>
      <trkpt lat="45.196684878319502" lon="7.074859533458948">
        <ele>3160.0599999999999</ele>
        <time>2022-08-07T09:05:07Z</time>
      </trkpt>
      <trkpt lat="45.196688733994961" lon="7.074857521802187">
        <ele>3159.0700000000002</ele>
        <time>2022-08-07T09:05:18Z</time>
      </trkpt>
      <trkpt lat="45.196704156696796" lon="7.07486598752439">
        <ele>3159.1900000000001</ele>
        <time>2022-08-07T09:05:59Z</time>
      </trkpt>
      <trkpt lat="45.196712035685778" lon="7.074866658076644">
        <ele>3159.5700000000002</ele>
        <time>2022-08-07T09:06:49Z</time>
      </trkpt>
      <trkpt lat="45.19671069458127" lon="7.074868083000183">
        <ele>3159.1300000000001</ele>
        <time>2022-08-07T09:07:40Z</time>
      </trkpt>
      <trkpt lat="45.196709102019668" lon="7.074865819886327">
        <ele>3158.8299999999999</ele>
        <time>2022-08-07T09:08:38Z</time>
      </trkpt>
      <trkpt lat="45.196716813370585" lon="7.07485618069768">
        <ele>3158.2800000000002</ele>
        <time>2022-08-07T09:09:41Z</time>
      </trkpt>
      <trkpt lat="45.196719076484442" lon="7.074844613671303">
        <ele>3158.25</ele>
        <time>2022-08-07T09:10:11Z</time>
      </trkpt>
      <trkpt lat="45.196707425639033" lon="7.074834890663624">
        <ele>3157.4299999999998</ele>
        <time>2022-08-07T09:11:04Z</time>
      </trkpt>
      <trkpt lat="45.19670432433486" lon="7.074829526245594">
        <ele>3157.3000000000002</ele>
        <time>2022-08-07T09:11:55Z</time>
      </trkpt>
      <trkpt lat="45.196702564135194" lon="7.074825000017881">
        <ele>3157.2199999999998</ele>
        <time>2022-08-07T09:12:40Z</time>
      </trkpt>
      <trkpt lat="45.196710024029016" lon="7.074831202626228">
        <ele>3158.3499999999999</ele>
        <time>2022-08-07T09:13:18Z</time>
      </trkpt>
      <trkpt lat="45.196710107848048" lon="7.07483765669167">
        <ele>3158.0599999999999</ele>
        <time>2022-08-07T09:13:34Z</time>
      </trkpt>
      <trkpt lat="45.196710443124175" lon="7.074847379699349">
        <ele>3156.6900000000001</ele>
        <time>2022-08-07T09:13:43Z</time>
      </trkpt>
      <trkpt lat="45.196701977401972" lon="7.074836315587163">
        <ele>3157.4200000000001</ele>
        <time>2022-08-07T09:14:17Z</time>
      </trkpt>
      <trkpt lat="45.196714382618666" lon="7.074849894270301">
        <ele>3157.5100000000002</ele>
        <time>2022-08-07T09:14:33Z</time>
      </trkpt>
      <trkpt lat="45.196717819198966" lon="7.074850481003523">
        <ele>3157.4400000000001</ele>
        <time>2022-08-07T09:14:47Z</time>
      </trkpt>
      <trkpt lat="45.196714801713824" lon="7.074846960604191">
        <ele>3157.5700000000002</ele>
        <time>2022-08-07T09:15:05Z</time>
      </trkpt>
      <trkpt lat="45.196694433689117" lon="7.074875459074974">
        <ele>3156.0300000000002</ele>
        <time>2022-08-07T09:15:19Z</time>
      </trkpt>
      <trkpt lat="45.196696948260069" lon="7.074884260073304">
        <ele>3155.6599999999999</ele>
        <time>2022-08-07T09:15:47Z</time>
      </trkpt>
      <trkpt lat="45.19669946283102" lon="7.07490898668766">
        <ele>3155.4400000000001</ele>
        <time>2022-08-07T09:15:50Z</time>
      </trkpt>
      <trkpt lat="45.196698792278767" lon="7.074992470443249">
        <ele>3154.0599999999999</ele>
        <time>2022-08-07T09:15:56Z</time>
      </trkpt>
      <trkpt lat="45.196694936603308" lon="7.075128592550755">
        <ele>3150.5300000000002</ele>
        <time>2022-08-07T09:16:05Z</time>
      </trkpt>
      <trkpt lat="45.196695607155561" lon="7.075145523995161">
        <ele>3150.2600000000002</ele>
        <time>2022-08-07T09:16:06Z</time>
      </trkpt>
      <trkpt lat="45.196696612983942" lon="7.075281981378794">
        <ele>3147.5799999999999</ele>
        <time>2022-08-07T09:16:17Z</time>
      </trkpt>
      <trkpt lat="45.196682866662741" lon="7.075372003018856">
        <ele>3144.3899999999999</ele>
        <time>2022-08-07T09:16:31Z</time>
      </trkpt>
      <trkpt lat="45.196679010987282" lon="7.07539807073772">
        <ele>3143.8200000000002</ele>
        <time>2022-08-07T09:16:34Z</time>
      </trkpt>
      <trkpt lat="45.196684626862407" lon="7.075521452352405">
        <ele>3140.5799999999999</ele>
        <time>2022-08-07T09:16:45Z</time>
      </trkpt>
      <trkpt lat="45.196651853621006" lon="7.075590770691633">
        <ele>3137.7399999999998</ele>
        <time>2022-08-07T09:16:56Z</time>
      </trkpt>
      <trkpt lat="45.196642884984612" lon="7.075700322166085">
        <ele>3134.8600000000001</ele>
        <time>2022-08-07T09:17:08Z</time>
      </trkpt>
      <trkpt lat="45.196608854457736" lon="7.075740974396467">
        <ele>3132.6199999999999</ele>
        <time>2022-08-07T09:17:17Z</time>
      </trkpt>
      <trkpt lat="45.196599047631025" lon="7.075821105390787">
        <ele>3130.21</ele>
        <time>2022-08-07T09:17:28Z</time>
      </trkpt>
      <trkpt lat="45.196574991568923" lon="7.075859075412154">
        <ele>3128.25</ele>
        <time>2022-08-07T09:17:37Z</time>
      </trkpt>
      <trkpt lat="45.196558898314834" lon="7.075968878343701">
        <ele>3125.1599999999999</ele>
        <time>2022-08-07T09:17:48Z</time>
      </trkpt>
      <trkpt lat="45.196532746776938" lon="7.076088320463896">
        <ele>3122.21</ele>
        <time>2022-08-07T09:18:01Z</time>
      </trkpt>
      <trkpt lat="45.196545822545886" lon="7.076163422316313">
        <ele>3120.6799999999998</ele>
        <time>2022-08-07T09:18:08Z</time>
      </trkpt>
      <trkpt lat="45.196548169478774" lon="7.076325612142682">
        <ele>3117.7199999999998</ele>
        <time>2022-08-07T09:18:22Z</time>
      </trkpt>
      <trkpt lat="45.196540290489793" lon="7.076343130320311">
        <ele>3117.2399999999998</ele>
        <time>2022-08-07T09:18:24Z</time>
      </trkpt>
      <trkpt lat="45.196531154215336" lon="7.076368778944016">
        <ele>3116.8400000000001</ele>
        <time>2022-08-07T09:18:26Z</time>
      </trkpt>
      <trkpt lat="45.196525873616338" lon="7.076424350962043">
        <ele>3116.3400000000001</ele>
        <time>2022-08-07T09:18:30Z</time>
      </trkpt>
      <trkpt lat="45.196484299376607" lon="7.076600790023804">
        <ele>3113.4000000000001</ele>
        <time>2022-08-07T09:18:43Z</time>
      </trkpt>
      <trkpt lat="45.196474911645055" lon="7.076780665665865">
        <ele>3110.5799999999999</ele>
        <time>2022-08-07T09:18:57Z</time>
      </trkpt>
      <trkpt lat="45.196461668238044" lon="7.076926426962018">
        <ele>3108.02</ele>
        <time>2022-08-07T09:19:11Z</time>
      </trkpt>
      <trkpt lat="45.196450185030699" lon="7.077024495229125">
        <ele>3105.9499999999998</ele>
        <time>2022-08-07T09:19:22Z</time>
      </trkpt>
      <trkpt lat="45.196457477286458" lon="7.07720554433763">
        <ele>3102.9400000000001</ele>
        <time>2022-08-07T09:19:37Z</time>
      </trkpt>
      <trkpt lat="45.196441635489464" lon="7.0773003436625">
        <ele>3100.8200000000002</ele>
        <time>2022-08-07T09:19:48Z</time>
      </trkpt>
      <trkpt lat="45.196430068463087" lon="7.077362285926938">
        <ele>3098.73</ele>
        <time>2022-08-07T09:19:59Z</time>
      </trkpt>
      <trkpt lat="45.196398636326194" lon="7.077422216534615">
        <ele>3096</ele>
        <time>2022-08-07T09:20:09Z</time>
      </trkpt>
      <trkpt lat="45.196376675739884" lon="7.077473178505898">
        <ele>3092.9099999999999</ele>
        <time>2022-08-07T09:20:19Z</time>
      </trkpt>
      <trkpt lat="45.196305178105831" lon="7.077373769134283">
        <ele>3089.9299999999998</ele>
        <time>2022-08-07T09:20:32Z</time>
      </trkpt>
      <trkpt lat="45.196253042668104" lon="7.077325489372015">
        <ele>3088.1399999999999</ele>
        <time>2022-08-07T09:20:44Z</time>
      </trkpt>
      <trkpt lat="45.196214653551579" lon="7.077315011993051">
        <ele>3087.3000000000002</ele>
        <time>2022-08-07T09:20:55Z</time>
      </trkpt>
      <trkpt lat="45.196214653551579" lon="7.077327752485871">
        <ele>3087.1999999999998</ele>
        <time>2022-08-07T09:20:56Z</time>
      </trkpt>
      <trkpt lat="45.196223706007004" lon="7.077475441619754">
        <ele>3083.8400000000001</ele>
        <time>2022-08-07T09:21:08Z</time>
      </trkpt>
      <trkpt lat="45.196220688521862" lon="7.077610893175006">
        <ele>3081.29</ele>
        <time>2022-08-07T09:21:18Z</time>
      </trkpt>
      <trkpt lat="45.196230243891478" lon="7.077815411612392">
        <ele>3078.4099999999999</ele>
        <time>2022-08-07T09:21:32Z</time>
      </trkpt>
      <trkpt lat="45.196225717663765" lon="7.077922448515892">
        <ele>3075.75</ele>
        <time>2022-08-07T09:21:40Z</time>
      </trkpt>
      <trkpt lat="45.19622010178864" lon="7.07799956202507">
        <ele>3073.9299999999998</ele>
        <time>2022-08-07T09:21:46Z</time>
      </trkpt>
      <trkpt lat="45.196221023797989" lon="7.078119674697518">
        <ele>3070.9200000000001</ele>
        <time>2022-08-07T09:21:55Z</time>
      </trkpt>
      <trkpt lat="45.196219850331545" lon="7.078284798189998">
        <ele>3067.8000000000002</ele>
        <time>2022-08-07T09:22:07Z</time>
      </trkpt>
      <trkpt lat="45.196222616359591" lon="7.078308016061783">
        <ele>3067.1199999999999</ele>
        <time>2022-08-07T09:22:09Z</time>
      </trkpt>
      <trkpt lat="45.196237452328205" lon="7.078475989401341">
        <ele>3064.02</ele>
        <time>2022-08-07T09:22:22Z</time>
      </trkpt>
      <trkpt lat="45.196218341588974" lon="7.078577158972621">
        <ele>3061.4200000000001</ele>
        <time>2022-08-07T09:22:33Z</time>
      </trkpt>
      <trkpt lat="45.196219515055418" lon="7.078605405986309">
        <ele>3060.5500000000002</ele>
        <time>2022-08-07T09:22:35Z</time>
      </trkpt>
      <trkpt lat="45.196281876415014" lon="7.07876767963171">
        <ele>3058.8200000000002</ele>
        <time>2022-08-07T09:22:49Z</time>
      </trkpt>
      <trkpt lat="45.196284390985966" lon="7.078792490065098">
        <ele>3058.25</ele>
        <time>2022-08-07T09:22:52Z</time>
      </trkpt>
      <trkpt lat="45.196323031559587" lon="7.078934144228697">
        <ele>3055.0599999999999</ele>
        <time>2022-08-07T09:23:05Z</time>
      </trkpt>
      <trkpt lat="45.196285145357251" lon="7.078937413170934">
        <ele>3053.52</ele>
        <time>2022-08-07T09:23:14Z</time>
      </trkpt>
      <trkpt lat="45.19624357111752" lon="7.078940514475107">
        <ele>3051.3699999999999</ele>
        <time>2022-08-07T09:23:25Z</time>
      </trkpt>
      <trkpt lat="45.196197051554918" lon="7.078910423442721">
        <ele>3048.8800000000001</ele>
        <time>2022-08-07T09:23:32Z</time>
      </trkpt>
      <trkpt lat="45.196112394332886" lon="7.078855773434043">
        <ele>3045.6599999999999</ele>
        <time>2022-08-07T09:23:44Z</time>
      </trkpt>
      <trkpt lat="45.196036202833056" lon="7.078806487843394">
        <ele>3042.3800000000001</ele>
        <time>2022-08-07T09:23:57Z</time>
      </trkpt>
      <trkpt lat="45.195986665785313" lon="7.078788718208671">
        <ele>3039.5700000000002</ele>
        <time>2022-08-07T09:24:06Z</time>
      </trkpt>
      <trkpt lat="45.195959089323878" lon="7.078768853098154">
        <ele>3038.1799999999998</ele>
        <time>2022-08-07T09:24:10Z</time>
      </trkpt>
      <trkpt lat="45.195902762934566" lon="7.078697606921196">
        <ele>3035.48</ele>
        <time>2022-08-07T09:24:21Z</time>
      </trkpt>
      <trkpt lat="45.195865798741579" lon="7.078684279695153">
        <ele>3033.0999999999999</ele>
        <time>2022-08-07T09:24:32Z</time>
      </trkpt>
      <trkpt lat="45.19582967273891" lon="7.078644884750247">
        <ele>3031.1199999999999</ele>
        <time>2022-08-07T09:24:39Z</time>
      </trkpt>
      <trkpt lat="45.19575641490519" lon="7.07855025306344">
        <ele>3028.27</ele>
        <time>2022-08-07T09:24:53Z</time>
      </trkpt>
      <trkpt lat="45.195712493732572" lon="7.078531896695495">
        <ele>3025.8200000000002</ele>
        <time>2022-08-07T09:25:04Z</time>
      </trkpt>
      <trkpt lat="45.195666309446096" lon="7.078440450131893">
        <ele>3022.8099999999999</ele>
        <time>2022-08-07T09:25:16Z</time>
      </trkpt>
      <trkpt lat="45.195615431293845" lon="7.078378675505519">
        <ele>3020.96</ele>
        <time>2022-08-07T09:25:24Z</time>
      </trkpt>
      <trkpt lat="45.195576790720224" lon="7.078266609460115">
        <ele>3019.96</ele>
        <time>2022-08-07T09:25:35Z</time>
      </trkpt>
      <trkpt lat="45.195524236187339" lon="7.078157141804695">
        <ele>3018.4200000000001</ele>
        <time>2022-08-07T09:25:47Z</time>
      </trkpt>
      <trkpt lat="45.195453325286508" lon="7.078035017475486">
        <ele>3015.23</ele>
        <time>2022-08-07T09:26:01Z</time>
      </trkpt>
      <trkpt lat="45.195417031645775" lon="7.077980870380998">
        <ele>3013.9400000000001</ele>
        <time>2022-08-07T09:26:08Z</time>
      </trkpt>
      <trkpt lat="45.195340756326914" lon="7.077868552878499">
        <ele>3010.5999999999999</ele>
        <time>2022-08-07T09:26:21Z</time>
      </trkpt>
      <trkpt lat="45.195293733850121" lon="7.077791774645448">
        <ele>3007.5</ele>
        <time>2022-08-07T09:26:34Z</time>
      </trkpt>
      <trkpt lat="45.195242436602712" lon="7.077738298103213">
        <ele>3005.02</ele>
        <time>2022-08-07T09:26:46Z</time>
      </trkpt>
      <trkpt lat="45.195219218730927" lon="7.077711978927255">
        <ele>3003.71</ele>
        <time>2022-08-07T09:26:57Z</time>
      </trkpt>
      <trkpt lat="45.195181835442781" lon="7.07766680046916">
        <ele>3001.6900000000001</ele>
        <time>2022-08-07T09:27:10Z</time>
      </trkpt>
      <trkpt lat="45.195129364728928" lon="7.07762279547751">
        <ele>2999.4200000000001</ele>
        <time>2022-08-07T09:27:23Z</time>
      </trkpt>
      <trkpt lat="45.1950737927109" lon="7.077527828514576">
        <ele>2997.1199999999999</ele>
        <time>2022-08-07T09:27:35Z</time>
      </trkpt>
      <trkpt lat="45.195037415251136" lon="7.077462617307901">
        <ele>2995.2600000000002</ele>
        <time>2022-08-07T09:27:46Z</time>
      </trkpt>
      <trkpt lat="45.19497555680573" lon="7.077409056946635">
        <ele>2992.02</ele>
        <time>2022-08-07T09:27:58Z</time>
      </trkpt>
      <trkpt lat="45.194900957867503" lon="7.077276790514588">
        <ele>2989.9899999999998</ele>
        <time>2022-08-07T09:28:11Z</time>
      </trkpt>
      <trkpt lat="45.194854270666838" lon="7.077178219333291">
        <ele>2987.77</ele>
        <time>2022-08-07T09:28:25Z</time>
      </trkpt>
      <trkpt lat="45.194817893207073" lon="7.077147206291556">
        <ele>2985.1599999999999</ele>
        <time>2022-08-07T09:28:37Z</time>
      </trkpt>
      <trkpt lat="45.194764584302902" lon="7.077080989256501">
        <ele>2982.4000000000001</ele>
        <time>2022-08-07T09:28:49Z</time>
      </trkpt>
      <trkpt lat="45.19471169449389" lon="7.076975964009762">
        <ele>2980.3499999999999</ele>
        <time>2022-08-07T09:29:02Z</time>
      </trkpt>
      <trkpt lat="45.194707084447145" lon="7.076965570449829">
        <ele>2980.3600000000001</ele>
        <time>2022-08-07T09:29:03Z</time>
      </trkpt>
      <trkpt lat="45.19469266757369" lon="7.0769411791116">
        <ele>2979.5599999999999</ele>
        <time>2022-08-07T09:29:05Z</time>
      </trkpt>
      <trkpt lat="45.194659642875195" lon="7.076797680929303">
        <ele>2979.1199999999999</ele>
        <time>2022-08-07T09:29:18Z</time>
      </trkpt>
      <trkpt lat="45.19465402700007" lon="7.076779073104262">
        <ele>2978.7399999999998</ele>
        <time>2022-08-07T09:29:20Z</time>
      </trkpt>
      <trkpt lat="45.194641118869185" lon="7.076628198847175">
        <ele>2978.5</ele>
        <time>2022-08-07T09:29:32Z</time>
      </trkpt>
      <trkpt lat="45.194594012573361" lon="7.076502973213792">
        <ele>2976.9699999999998</ele>
        <time>2022-08-07T09:29:45Z</time>
      </trkpt>
      <trkpt lat="45.194540200755" lon="7.076445892453194">
        <ele>2974.21</ele>
        <time>2022-08-07T09:29:57Z</time>
      </trkpt>
      <trkpt lat="45.194500219076872" lon="7.076407251879573">
        <ele>2972.8299999999999</ele>
        <time>2022-08-07T09:30:03Z</time>
      </trkpt>
      <trkpt lat="45.194447580724955" lon="7.076346650719643">
        <ele>2971.52</ele>
        <time>2022-08-07T09:30:09Z</time>
      </trkpt>
      <trkpt lat="45.19443609751761" lon="7.07631966099143">
        <ele>2971.1999999999998</ele>
        <time>2022-08-07T09:30:11Z</time>
      </trkpt>
      <trkpt lat="45.194387650117278" lon="7.076140707358718">
        <ele>2972.3800000000001</ele>
        <time>2022-08-07T09:30:25Z</time>
      </trkpt>
      <trkpt lat="45.194308441132307" lon="7.076047332957387">
        <ele>2970.52</ele>
        <time>2022-08-07T09:30:37Z</time>
      </trkpt>
      <trkpt lat="45.194273991510272" lon="7.076015649363399">
        <ele>2969.25</ele>
        <time>2022-08-07T09:30:44Z</time>
      </trkpt>
      <trkpt lat="45.194227639585733" lon="7.075960244983435">
        <ele>2968.1900000000001</ele>
        <time>2022-08-07T09:30:50Z</time>
      </trkpt>
      <trkpt lat="45.194130996242166" lon="7.075816998258233">
        <ele>2966.6799999999998</ele>
        <time>2022-08-07T09:31:03Z</time>
      </trkpt>
      <trkpt lat="45.194052290171385" lon="7.075744159519672">
        <ele>2964.6799999999998</ele>
        <time>2022-08-07T09:31:15Z</time>
      </trkpt>
      <trkpt lat="45.194003842771053" lon="7.075705267488957">
        <ele>2962.2399999999998</ele>
        <time>2022-08-07T09:31:23Z</time>
      </trkpt>
      <trkpt lat="45.193929160013795" lon="7.075658412650228">
        <ele>2959.21</ele>
        <time>2022-08-07T09:31:35Z</time>
      </trkpt>
      <trkpt lat="45.193865709006786" lon="7.075630920007825">
        <ele>2956.4400000000001</ele>
        <time>2022-08-07T09:31:48Z</time>
      </trkpt>
      <trkpt lat="45.193798234686255" lon="7.075606528669596">
        <ele>2953.3800000000001</ele>
        <time>2022-08-07T09:32:00Z</time>
      </trkpt>
      <trkpt lat="45.193754062056541" lon="7.075615413486958">
        <ele>2950.6199999999999</ele>
        <time>2022-08-07T09:32:12Z</time>
      </trkpt>
      <trkpt lat="45.193672841414809" lon="7.075575264170766">
        <ele>2947.8099999999999</ele>
        <time>2022-08-07T09:32:22Z</time>
      </trkpt>
      <trkpt lat="45.193591704592109" lon="7.07555590197444">
        <ele>2944.5700000000002</ele>
        <time>2022-08-07T09:32:31Z</time>
      </trkpt>
      <trkpt lat="45.193491624668241" lon="7.075475854799151">
        <ele>2942.1599999999999</ele>
        <time>2022-08-07T09:32:42Z</time>
      </trkpt>
      <trkpt lat="45.193409146741033" lon="7.075455235317349">
        <ele>2940.0100000000002</ele>
        <time>2022-08-07T09:32:53Z</time>
      </trkpt>
      <trkpt lat="45.1933210529387" lon="7.07537854090333">
        <ele>2938.3400000000001</ele>
        <time>2022-08-07T09:33:05Z</time>
      </trkpt>
      <trkpt lat="45.193224996328354" lon="7.075341660529375">
        <ele>2935.3099999999999</ele>
        <time>2022-08-07T09:33:18Z</time>
      </trkpt>
      <trkpt lat="45.19315735436976" lon="7.075324477627873">
        <ele>2933.27</ele>
        <time>2022-08-07T09:33:28Z</time>
      </trkpt>
      <trkpt lat="45.193091556429863" lon="7.075284831225872">
        <ele>2931.23</ele>
        <time>2022-08-07T09:33:39Z</time>
      </trkpt>
      <trkpt lat="45.193047467619181" lon="7.075286926701665">
        <ele>2928.3299999999999</ele>
        <time>2022-08-07T09:33:49Z</time>
      </trkpt>
      <trkpt lat="45.192961720749736" lon="7.075271336361766">
        <ele>2925.3000000000002</ele>
        <time>2022-08-07T09:34:01Z</time>
      </trkpt>
      <trkpt lat="45.192878572270274" lon="7.075233198702335">
        <ele>2922.73</ele>
        <time>2022-08-07T09:34:14Z</time>
      </trkpt>
      <trkpt lat="45.192811097949743" lon="7.075242670252919">
        <ele>2919.5100000000002</ele>
        <time>2022-08-07T09:34:26Z</time>
      </trkpt>
      <trkpt lat="45.192749071866274" lon="7.075230851769447">
        <ele>2916.4299999999998</ele>
        <time>2022-08-07T09:34:36Z</time>
      </trkpt>
      <trkpt lat="45.192689979448915" lon="7.075214758515358">
        <ele>2914.3899999999999</ele>
        <time>2022-08-07T09:34:47Z</time>
      </trkpt>
      <trkpt lat="45.192637844011188" lon="7.075218446552753">
        <ele>2912.0500000000002</ele>
        <time>2022-08-07T09:35:00Z</time>
      </trkpt>
      <trkpt lat="45.192588558420539" lon="7.07522758282721">
        <ele>2910.1100000000001</ele>
        <time>2022-08-07T09:35:08Z</time>
      </trkpt>
      <trkpt lat="45.192489065229893" lon="7.075173938646913">
        <ele>2907.0700000000002</ele>
        <time>2022-08-07T09:35:22Z</time>
      </trkpt>
      <trkpt lat="45.192480264231563" lon="7.075169580057263">
        <ele>2906.79</ele>
        <time>2022-08-07T09:35:23Z</time>
      </trkpt>
      <trkpt lat="45.192380351945758" lon="7.075116438791156">
        <ele>2903.4699999999998</ele>
        <time>2022-08-07T09:35:36Z</time>
      </trkpt>
      <trkpt lat="45.1923091057688" lon="7.075077882036567">
        <ele>2899.9899999999998</ele>
        <time>2022-08-07T09:35:46Z</time>
      </trkpt>
      <trkpt lat="45.19229494035244" lon="7.075070673599839">
        <ele>2899.2800000000002</ele>
        <time>2022-08-07T09:35:48Z</time>
      </trkpt>
      <trkpt lat="45.192198045551777" lon="7.075035301968455">
        <ele>2896.2600000000002</ele>
        <time>2022-08-07T09:36:00Z</time>
      </trkpt>
      <trkpt lat="45.192131157964468" lon="7.075011413544416">
        <ele>2894</ele>
        <time>2022-08-07T09:36:09Z</time>
      </trkpt>
      <trkpt lat="45.192039292305708" lon="7.075006468221545">
        <ele>2890.5700000000002</ele>
        <time>2022-08-07T09:36:15Z</time>
      </trkpt>
      <trkpt lat="45.192019259557128" lon="7.075009904801846">
        <ele>2890.0700000000002</ele>
        <time>2022-08-07T09:36:16Z</time>
      </trkpt>
      <trkpt lat="45.191996041685343" lon="7.075009485706687">
        <ele>2889.2800000000002</ele>
        <time>2022-08-07T09:36:17Z</time>
      </trkpt>
      <trkpt lat="45.191973242908716" lon="7.075011245906353">
        <ele>2888.46</ele>
        <time>2022-08-07T09:36:18Z</time>
      </trkpt>
      <trkpt lat="45.191950863227248" lon="7.075017699971795">
        <ele>2886.8600000000001</ele>
        <time>2022-08-07T09:36:19Z</time>
      </trkpt>
      <trkpt lat="45.191931584849954" lon="7.075024908408523">
        <ele>2886.25</ele>
        <time>2022-08-07T09:36:20Z</time>
      </trkpt>
      <trkpt lat="45.191846257075667" lon="7.07505701109767">
        <ele>2883.9899999999998</ele>
        <time>2022-08-07T09:36:25Z</time>
      </trkpt>
      <trkpt lat="45.191829660907388" lon="7.07505508325994">
        <ele>2883.5500000000002</ele>
        <time>2022-08-07T09:36:26Z</time>
      </trkpt>
      <trkpt lat="45.19181608222425" lon="7.075054412707686">
        <ele>2883.2800000000002</ele>
        <time>2022-08-07T09:36:27Z</time>
      </trkpt>
      <trkpt lat="45.191804766654968" lon="7.075060028582811">
        <ele>2882.9499999999998</ele>
        <time>2022-08-07T09:36:28Z</time>
      </trkpt>
      <trkpt lat="45.19179018214345" lon="7.075068326666951">
        <ele>2882.4000000000001</ele>
        <time>2022-08-07T09:36:29Z</time>
      </trkpt>
      <trkpt lat="45.191771574318409" lon="7.07507411018014">
        <ele>2881.75</ele>
        <time>2022-08-07T09:36:30Z</time>
      </trkpt>
      <trkpt lat="45.191753804683685" lon="7.075074529275298">
        <ele>2881.1199999999999</ele>
        <time>2022-08-07T09:36:31Z</time>
      </trkpt>
      <trkpt lat="45.191737208515406" lon="7.075071260333061">
        <ele>2880.5300000000002</ele>
        <time>2022-08-07T09:36:32Z</time>
      </trkpt>
      <trkpt lat="45.191721869632602" lon="7.07506631501019">
        <ele>2879.9499999999998</ele>
        <time>2022-08-07T09:36:33Z</time>
      </trkpt>
      <trkpt lat="45.191707368940115" lon="7.075058771297336">
        <ele>2879.4400000000001</ele>
        <time>2022-08-07T09:36:34Z</time>
      </trkpt>
      <trkpt lat="45.191692365333438" lon="7.075048377737403">
        <ele>2878.9099999999999</ele>
        <time>2022-08-07T09:36:35Z</time>
      </trkpt>
      <trkpt lat="45.191677864640951" lon="7.075036559253931">
        <ele>2878.6999999999998</ele>
        <time>2022-08-07T09:36:36Z</time>
      </trkpt>
      <trkpt lat="45.191664872691035" lon="7.075023064389825">
        <ele>2878.4099999999999</ele>
        <time>2022-08-07T09:36:37Z</time>
      </trkpt>
      <trkpt lat="45.191650707274675" lon="7.075010742992163">
        <ele>2878.2600000000002</ele>
        <time>2022-08-07T09:36:38Z</time>
      </trkpt>
      <trkpt lat="45.191636709496379" lon="7.075001774355769">
        <ele>2878.1599999999999</ele>
        <time>2022-08-07T09:36:39Z</time>
      </trkpt>
      <trkpt lat="45.19151802174747" lon="7.074936982244253">
        <ele>2874.8800000000001</ele>
        <time>2022-08-07T09:36:48Z</time>
      </trkpt>
      <trkpt lat="45.191416013985872" lon="7.074901275336742">
        <ele>2871.6500000000001</ele>
        <time>2022-08-07T09:36:56Z</time>
      </trkpt>
      <trkpt lat="45.191356921568513" lon="7.074902532622218">
        <ele>2868.5100000000002</ele>
        <time>2022-08-07T09:37:01Z</time>
      </trkpt>
      <trkpt lat="45.191352730616927" lon="7.074916865676642">
        <ele>2868.1700000000001</ele>
        <time>2022-08-07T09:37:02Z</time>
      </trkpt>
      <trkpt lat="45.191345354542136" lon="7.074931366369128">
        <ele>2867.6500000000001</ele>
        <time>2022-08-07T09:37:03Z</time>
      </trkpt>
      <trkpt lat="45.191335128620267" lon="7.07494025118649">
        <ele>2867.2399999999998</ele>
        <time>2022-08-07T09:37:04Z</time>
      </trkpt>
      <trkpt lat="45.191324483603239" lon="7.074940921738744">
        <ele>2866.73</ele>
        <time>2022-08-07T09:37:05Z</time>
      </trkpt>
      <trkpt lat="45.191313084214926" lon="7.074936144053936">
        <ele>2866.3699999999999</ele>
        <time>2022-08-07T09:37:06Z</time>
      </trkpt>
      <trkpt lat="45.191302271559834" lon="7.074930025264621">
        <ele>2865.8600000000001</ele>
        <time>2022-08-07T09:37:07Z</time>
      </trkpt>
      <trkpt lat="45.191291710361838" lon="7.074925666674972">
        <ele>2865.7399999999998</ele>
        <time>2022-08-07T09:37:08Z</time>
      </trkpt>
      <trkpt lat="45.191282154992223" lon="7.07492214627564">
        <ele>2865.27</ele>
        <time>2022-08-07T09:37:09Z</time>
      </trkpt>
      <trkpt lat="45.191271593794227" lon="7.074919547885656">
        <ele>2864.6199999999999</ele>
        <time>2022-08-07T09:37:10Z</time>
      </trkpt>
      <trkpt lat="45.191259607672691" lon="7.074915859848261">
        <ele>2864.3400000000001</ele>
        <time>2022-08-07T09:37:11Z</time>
      </trkpt>
      <trkpt lat="45.19123706035316" lon="7.074903286993504">
        <ele>2863.6100000000001</ele>
        <time>2022-08-07T09:37:13Z</time>
      </trkpt>
      <trkpt lat="45.191133879125118" lon="7.074860455468297">
        <ele>2860.1100000000001</ele>
        <time>2022-08-07T09:37:23Z</time>
      </trkpt>
      <trkpt lat="45.191082330420613" lon="7.074836399406195">
        <ele>2859.1900000000001</ele>
        <time>2022-08-07T09:37:38Z</time>
      </trkpt>
      <trkpt lat="45.191088784486055" lon="7.074824497103691">
        <ele>2858.4000000000001</ele>
        <time>2022-08-07T09:37:52Z</time>
      </trkpt>
      <trkpt lat="45.191091801971197" lon="7.074836064130068">
        <ele>2857.3200000000002</ele>
        <time>2022-08-07T09:38:29Z</time>
      </trkpt>
      <trkpt lat="45.191094065085053" lon="7.074839668348432">
        <ele>2857.25</ele>
        <time>2022-08-07T09:38:55Z</time>
      </trkpt>
      <trkpt lat="45.191092137247324" lon="7.074841763824225">
        <ele>2857.1300000000001</ele>
        <time>2022-08-07T09:39:31Z</time>
      </trkpt>
      <trkpt lat="45.191099429503083" lon="7.074837321415544">
        <ele>2856.7800000000002</ele>
        <time>2022-08-07T09:39:48Z</time>
      </trkpt>
      <trkpt lat="45.191105799749494" lon="7.074844446033239">
        <ele>2856.7399999999998</ele>
        <time>2022-08-07T09:40:12Z</time>
      </trkpt>
      <trkpt lat="45.191119713708758" lon="7.07477948628366">
        <ele>2856.79</ele>
        <time>2022-08-07T09:40:15Z</time>
      </trkpt>
      <trkpt lat="45.191113008186221" lon="7.074809577316046">
        <ele>2856.23</ele>
        <time>2022-08-07T09:40:35Z</time>
      </trkpt>
      <trkpt lat="45.191102866083384" lon="7.074816953390837">
        <ele>2856.4899999999998</ele>
        <time>2022-08-07T09:41:01Z</time>
      </trkpt>
      <trkpt lat="45.191098842769861" lon="7.074810499325395">
        <ele>2856.6300000000001</ele>
        <time>2022-08-07T09:41:26Z</time>
      </trkpt>
      <trkpt lat="45.191095154732466" lon="7.074807230383158">
        <ele>2855.9499999999998</ele>
        <time>2022-08-07T09:41:39Z</time>
      </trkpt>
      <trkpt lat="45.191093143075705" lon="7.074791556224227">
        <ele>2855.6799999999998</ele>
        <time>2022-08-07T09:42:10Z</time>
      </trkpt>
      <trkpt lat="45.191090125590563" lon="7.074794908985496">
        <ele>2855.9899999999998</ele>
        <time>2022-08-07T09:42:42Z</time>
      </trkpt>
      <trkpt lat="45.191079983487725" lon="7.074806978926063">
        <ele>2855.2399999999998</ele>
        <time>2022-08-07T09:43:21Z</time>
      </trkpt>
      <trkpt lat="45.191075960174203" lon="7.074809661135078">
        <ele>2854.9899999999998</ele>
        <time>2022-08-07T09:43:59Z</time>
      </trkpt>
      <trkpt lat="45.191077468916774" lon="7.074804715812206">
        <ele>2855.9699999999998</ele>
        <time>2022-08-07T09:44:35Z</time>
      </trkpt>
      <trkpt lat="45.19108459353447" lon="7.074804212898016">
        <ele>2855.6599999999999</ele>
        <time>2022-08-07T09:45:20Z</time>
      </trkpt>
      <trkpt lat="45.191091215237975" lon="7.074802368879318">
        <ele>2855.0700000000002</ele>
        <time>2022-08-07T09:45:56Z</time>
      </trkpt>
      <trkpt lat="45.191093645989895" lon="7.0747912209481">
        <ele>2854.1999999999998</ele>
        <time>2022-08-07T09:46:32Z</time>
      </trkpt>
      <trkpt lat="45.191093729808927" lon="7.07478241994977">
        <ele>2853.5599999999999</ele>
        <time>2022-08-07T09:47:11Z</time>
      </trkpt>
      <trkpt lat="45.191088113933802" lon="7.074794070795178">
        <ele>2853.48</ele>
        <time>2022-08-07T09:47:37Z</time>
      </trkpt>
      <trkpt lat="45.191085180267692" lon="7.074794322252274">
        <ele>2854.4299999999998</ele>
        <time>2022-08-07T09:47:52Z</time>
      </trkpt>
      <trkpt lat="45.191089622676373" lon="7.074822401627898">
        <ele>2854.4499999999998</ele>
        <time>2022-08-07T09:48:06Z</time>
      </trkpt>
      <trkpt lat="45.191078642383218" lon="7.07481904886663">
        <ele>2854.4400000000001</ele>
        <time>2022-08-07T09:48:20Z</time>
      </trkpt>
      <trkpt lat="45.191064393147826" lon="7.074838578701019">
        <ele>2853.9200000000001</ele>
        <time>2022-08-07T09:48:33Z</time>
      </trkpt>
      <trkpt lat="45.191017538309097" lon="7.074818713590503">
        <ele>2853.4099999999999</ele>
        <time>2022-08-07T09:48:51Z</time>
      </trkpt>
      <trkpt lat="45.191004713997245" lon="7.074806224554777">
        <ele>2853.6900000000001</ele>
        <time>2022-08-07T09:49:02Z</time>
      </trkpt>
      <trkpt lat="45.191005216911435" lon="7.074802368879318">
        <ele>2853.8299999999999</ele>
        <time>2022-08-07T09:49:18Z</time>
      </trkpt>
      <trkpt lat="45.191011670976877" lon="7.074808655306697">
        <ele>2854.0900000000001</ele>
        <time>2022-08-07T09:49:41Z</time>
      </trkpt>
      <trkpt lat="45.191009072586894" lon="7.074805554002523">
        <ele>2853.7800000000002</ele>
        <time>2022-08-07T09:50:13Z</time>
      </trkpt>
      <trkpt lat="45.191014520823956" lon="7.074838411062956">
        <ele>2854.0500000000002</ele>
        <time>2022-08-07T09:50:30Z</time>
      </trkpt>
      <trkpt lat="45.190997589379549" lon="7.074917871505022">
        <ele>2850.7600000000002</ele>
        <time>2022-08-07T09:50:41Z</time>
      </trkpt>
      <trkpt lat="45.190959619358182" lon="7.074902448803186">
        <ele>2849.9099999999999</ele>
        <time>2022-08-07T09:50:45Z</time>
      </trkpt>
      <trkpt lat="45.190950147807598" lon="7.074894737452269">
        <ele>2849.6599999999999</ele>
        <time>2022-08-07T09:50:46Z</time>
      </trkpt>
      <trkpt lat="45.190940592437983" lon="7.074888199567795">
        <ele>2849.6300000000001</ele>
        <time>2022-08-07T09:50:47Z</time>
      </trkpt>
      <trkpt lat="45.190930617973208" lon="7.074882499873638">
        <ele>2849.29</ele>
        <time>2022-08-07T09:50:48Z</time>
      </trkpt>
      <trkpt lat="45.190920811146498" lon="7.074874201789498">
        <ele>2848.8099999999999</ele>
        <time>2022-08-07T09:50:49Z</time>
      </trkpt>
      <trkpt lat="45.19085300154984" lon="7.074854420498014">
        <ele>2845.96</ele>
        <time>2022-08-07T09:51:02Z</time>
      </trkpt>
      <trkpt lat="45.19084176979959" lon="7.074864646419883">
        <ele>2845.5700000000002</ele>
        <time>2022-08-07T09:51:13Z</time>
      </trkpt>
      <trkpt lat="45.190839590504766" lon="7.074944190680981">
        <ele>2843.4499999999998</ele>
        <time>2022-08-07T09:51:24Z</time>
      </trkpt>
      <trkpt lat="45.190842188894749" lon="7.074994063004851">
        <ele>2842.02</ele>
        <time>2022-08-07T09:51:37Z</time>
      </trkpt>
      <trkpt lat="45.190850235521793" lon="7.075009737163782">
        <ele>2841.98</ele>
        <time>2022-08-07T09:51:39Z</time>
      </trkpt>
      <trkpt lat="45.190859539434314" lon="7.075017197057605">
        <ele>2841.8299999999999</ele>
        <time>2022-08-07T09:51:40Z</time>
      </trkpt>
      <trkpt lat="45.190869094803929" lon="7.07502524368465">
        <ele>2841.3400000000001</ele>
        <time>2022-08-07T09:51:41Z</time>
      </trkpt>
      <trkpt lat="45.190878482535481" lon="7.075033541768789">
        <ele>2840.8099999999999</ele>
        <time>2022-08-07T09:51:42Z</time>
      </trkpt>
      <trkpt lat="45.190887032076716" lon="7.075042678043246">
        <ele>2840.3400000000001</ele>
        <time>2022-08-07T09:51:43Z</time>
      </trkpt>
      <trkpt lat="45.190895246341825" lon="7.075051227584481">
        <ele>2840.0300000000002</ele>
        <time>2022-08-07T09:51:44Z</time>
      </trkpt>
      <trkpt lat="45.190954674035311" lon="7.075135298073292">
        <ele>2837.4400000000001</ele>
        <time>2022-08-07T09:51:57Z</time>
      </trkpt>
      <trkpt lat="45.191023573279381" lon="7.075233701616526">
        <ele>2834.3800000000001</ele>
        <time>2022-08-07T09:52:11Z</time>
      </trkpt>
      <trkpt lat="45.191096579656005" lon="7.075357334688306">
        <ele>2831.9099999999999</ele>
        <time>2022-08-07T09:52:26Z</time>
      </trkpt>
      <trkpt lat="45.191150056198239" lon="7.075477950274944">
        <ele>2828.7399999999998</ele>
        <time>2022-08-07T09:52:41Z</time>
      </trkpt>
      <trkpt lat="45.191139075905085" lon="7.075532851740718">
        <ele>2825.5300000000002</ele>
        <time>2022-08-07T09:52:54Z</time>
      </trkpt>
      <trkpt lat="45.191090041771531" lon="7.07550217397511">
        <ele>2824.3099999999999</ele>
        <time>2022-08-07T09:53:00Z</time>
      </trkpt>
      <trkpt lat="45.190997002646327" lon="7.075478620827198">
        <ele>2821.4899999999998</ele>
        <time>2022-08-07T09:53:13Z</time>
      </trkpt>
      <trkpt lat="45.190951572731137" lon="7.075468562543392">
        <ele>2820.3400000000001</ele>
        <time>2022-08-07T09:53:19Z</time>
      </trkpt>
      <trkpt lat="45.190894911065698" lon="7.075454900041223">
        <ele>2819.3000000000002</ele>
        <time>2022-08-07T09:53:30Z</time>
      </trkpt>
      <trkpt lat="45.19090480171144" lon="7.075472082942724">
        <ele>2818.5799999999999</ele>
        <time>2022-08-07T09:53:40Z</time>
      </trkpt>
      <trkpt lat="45.190940340980887" lon="7.075499491766095">
        <ele>2816.8800000000001</ele>
        <time>2022-08-07T09:53:52Z</time>
      </trkpt>
      <trkpt lat="45.190924750640988" lon="7.075527152046561">
        <ele>2815.4899999999998</ele>
        <time>2022-08-07T09:54:03Z</time>
      </trkpt>
      <trkpt lat="45.190923912450671" lon="7.075581215322018">
        <ele>2813.7600000000002</ele>
        <time>2022-08-07T09:54:16Z</time>
      </trkpt>
      <trkpt lat="45.190943526104093" lon="7.075607450678945">
        <ele>2812.5500000000002</ele>
        <time>2022-08-07T09:54:20Z</time>
      </trkpt>
      <trkpt lat="45.19096540287137" lon="7.075632764026523">
        <ele>2811.7600000000002</ele>
        <time>2022-08-07T09:54:23Z</time>
      </trkpt>
      <trkpt lat="45.190973617136478" lon="7.075642319396138">
        <ele>2811.6799999999998</ele>
        <time>2022-08-07T09:54:24Z</time>
      </trkpt>
      <trkpt lat="45.191000523045659" lon="7.075712895020843">
        <ele>2808.8499999999999</ele>
        <time>2022-08-07T09:54:35Z</time>
      </trkpt>
      <trkpt lat="45.190986273810267" lon="7.075730245560408">
        <ele>2807.8600000000001</ele>
        <time>2022-08-07T09:54:50Z</time>
      </trkpt>
      <trkpt lat="45.190976802259684" lon="7.075728820636869">
        <ele>2807.6799999999998</ele>
        <time>2022-08-07T09:54:51Z</time>
      </trkpt>
      <trkpt lat="45.190966241061687" lon="7.075724378228188">
        <ele>2807.29</ele>
        <time>2022-08-07T09:54:52Z</time>
      </trkpt>
      <trkpt lat="45.190941682085395" lon="7.075707530602813">
        <ele>2806.77</ele>
        <time>2022-08-07T09:54:56Z</time>
      </trkpt>
      <trkpt lat="45.190931456163526" lon="7.075701495632529">
        <ele>2806.4899999999998</ele>
        <time>2022-08-07T09:54:57Z</time>
      </trkpt>
      <trkpt lat="45.190921062603593" lon="7.075694119557738">
        <ele>2806.21</ele>
        <time>2022-08-07T09:54:58Z</time>
      </trkpt>
      <trkpt lat="45.190849062055349" lon="7.075658077374101">
        <ele>2804.46</ele>
        <time>2022-08-07T09:55:06Z</time>
      </trkpt>
      <trkpt lat="45.190838752314448" lon="7.075652712956071">
        <ele>2804.4400000000001</ele>
        <time>2022-08-07T09:55:07Z</time>
      </trkpt>
      <trkpt lat="45.19072693772614" lon="7.075596218928695">
        <ele>2802.5799999999999</ele>
        <time>2022-08-07T09:55:18Z</time>
      </trkpt>
      <trkpt lat="45.190635407343507" lon="7.075548358261585">
        <ele>2800.6399999999999</ele>
        <time>2022-08-07T09:55:31Z</time>
      </trkpt>
      <trkpt lat="45.190607160329819" lon="7.075541485100985">
        <ele>2800.0900000000001</ele>
        <time>2022-08-07T09:55:34Z</time>
      </trkpt>
      <trkpt lat="45.190512277185917" lon="7.075419193133712">
        <ele>2799.3600000000001</ele>
        <time>2022-08-07T09:55:46Z</time>
      </trkpt>
      <trkpt lat="45.190440863370895" lon="7.075334703549743">
        <ele>2799.0999999999999</ele>
        <time>2022-08-07T09:55:56Z</time>
      </trkpt>
      <trkpt lat="45.190363330766559" lon="7.075288016349077">
        <ele>2799.0300000000002</ele>
        <time>2022-08-07T09:56:09Z</time>
      </trkpt>
      <trkpt lat="45.190338687971234" lon="7.075268402695656">
        <ele>2794.0500000000002</ele>
        <time>2022-08-07T09:56:12Z</time>
      </trkpt>
      <trkpt lat="45.190331563353539" lon="7.075261864811182">
        <ele>2793.98</ele>
        <time>2022-08-07T09:56:13Z</time>
      </trkpt>
      <trkpt lat="45.190310105681419" lon="7.075244262814522">
        <ele>2793.5799999999999</ele>
        <time>2022-08-07T09:56:16Z</time>
      </trkpt>
      <trkpt lat="45.190296024084091" lon="7.075223727151752">
        <ele>2793.0599999999999</ele>
        <time>2022-08-07T09:56:18Z</time>
      </trkpt>
      <trkpt lat="45.190288983285427" lon="7.075210232287645">
        <ele>2792.8000000000002</ele>
        <time>2022-08-07T09:56:19Z</time>
      </trkpt>
      <trkpt lat="45.190223855897784" lon="7.075105542317033">
        <ele>2789.3600000000001</ele>
        <time>2022-08-07T09:56:32Z</time>
      </trkpt>
      <trkpt lat="45.19016794860363" lon="7.075101099908352">
        <ele>2786.9699999999998</ele>
        <time>2022-08-07T09:56:44Z</time>
      </trkpt>
      <trkpt lat="45.190158812329173" lon="7.075175363570452">
        <ele>2785.0599999999999</ele>
        <time>2022-08-07T09:56:51Z</time>
      </trkpt>
      <trkpt lat="45.190144814550877" lon="7.075297236442566">
        <ele>2782.2199999999998</ele>
        <time>2022-08-07T09:57:02Z</time>
      </trkpt>
      <trkpt lat="45.190130649134517" lon="7.07541081123054">
        <ele>2780.3299999999999</ele>
        <time>2022-08-07T09:57:12Z</time>
      </trkpt>
      <trkpt lat="45.190136013552547" lon="7.075422713533044">
        <ele>2780.0799999999999</ele>
        <time>2022-08-07T09:57:13Z</time>
      </trkpt>
      <trkpt lat="45.190152944996953" lon="7.075487254187465">
        <ele>2778.96</ele>
        <time>2022-08-07T09:57:18Z</time>
      </trkpt>
      <trkpt lat="45.190162416547537" lon="7.075547520071268">
        <ele>2777.8699999999999</ele>
        <time>2022-08-07T09:57:23Z</time>
      </trkpt>
      <trkpt lat="45.190168870612979" lon="7.075559925287962">
        <ele>2777.5700000000002</ele>
        <time>2022-08-07T09:57:24Z</time>
      </trkpt>
      <trkpt lat="45.190141880884767" lon="7.07560820505023">
        <ele>2775.75</ele>
        <time>2022-08-07T09:57:34Z</time>
      </trkpt>
      <trkpt lat="45.19010148011148" lon="7.075605522841215">
        <ele>2774.8200000000002</ele>
        <time>2022-08-07T09:57:39Z</time>
      </trkpt>
      <trkpt lat="45.190064683556557" lon="7.075587334111333">
        <ele>2773.1799999999998</ele>
        <time>2022-08-07T09:57:48Z</time>
      </trkpt>
      <trkpt lat="45.190011458471417" lon="7.075525727123022">
        <ele>2771.9200000000001</ele>
        <time>2022-08-07T09:57:55Z</time>
      </trkpt>
      <trkpt lat="45.190003998577595" lon="7.075511813163757">
        <ele>2771.8299999999999</ele>
        <time>2022-08-07T09:57:56Z</time>
      </trkpt>
      <trkpt lat="45.189998969435692" lon="7.075495887547731">
        <ele>2771.5999999999999</ele>
        <time>2022-08-07T09:57:57Z</time>
      </trkpt>
      <trkpt lat="45.189995532855392" lon="7.07547920756042">
        <ele>2771.3099999999999</ele>
        <time>2022-08-07T09:57:58Z</time>
      </trkpt>
      <trkpt lat="45.189991174265742" lon="7.075463449582458">
        <ele>2771</ele>
        <time>2022-08-07T09:57:59Z</time>
      </trkpt>
      <trkpt lat="45.1899847202003" lon="7.075449116528034">
        <ele>2770.96</ele>
        <time>2022-08-07T09:58:00Z</time>
      </trkpt>
      <trkpt lat="45.18997834995389" lon="7.075432604178786">
        <ele>2770.9200000000001</ele>
        <time>2022-08-07T09:58:01Z</time>
      </trkpt>
      <trkpt lat="45.189973656088114" lon="7.075415840372443">
        <ele>2770.6100000000001</ele>
        <time>2022-08-07T09:58:02Z</time>
      </trkpt>
      <trkpt lat="45.189970387145877" lon="7.075399495661259">
        <ele>2770.5599999999999</ele>
        <time>2022-08-07T09:58:03Z</time>
      </trkpt>
      <trkpt lat="45.189966866746545" lon="7.075384659692645">
        <ele>2770.3899999999999</ele>
        <time>2022-08-07T09:58:04Z</time>
      </trkpt>
      <trkpt lat="45.189961921423674" lon="7.07537074573338">
        <ele>2770.1999999999998</ele>
        <time>2022-08-07T09:58:05Z</time>
      </trkpt>
      <trkpt lat="45.189956640824676" lon="7.075356999412179">
        <ele>2770.1300000000001</ele>
        <time>2022-08-07T09:58:06Z</time>
      </trkpt>
      <trkpt lat="45.189882293343544" lon="7.075220039114356">
        <ele>2767.21</ele>
        <time>2022-08-07T09:58:20Z</time>
      </trkpt>
      <trkpt lat="45.189858404919505" lon="7.075235797092319">
        <ele>2765.8899999999999</ele>
        <time>2022-08-07T09:58:30Z</time>
      </trkpt>
      <trkpt lat="45.189838875085115" lon="7.075297068804503">
        <ele>2764.5799999999999</ele>
        <time>2022-08-07T09:58:39Z</time>
      </trkpt>
      <trkpt lat="45.189838372170925" lon="7.075324561446905">
        <ele>2764.25</ele>
        <time>2022-08-07T09:58:44Z</time>
      </trkpt>
      <trkpt lat="45.189837198704481" lon="7.075353311374784">
        <ele>2764.0900000000001</ele>
        <time>2022-08-07T09:58:46Z</time>
      </trkpt>
      <trkpt lat="45.189836863428354" lon="7.075368147343397">
        <ele>2764</ele>
        <time>2022-08-07T09:58:47Z</time>
      </trkpt>
      <trkpt lat="45.189828900620341" lon="7.075544418767095">
        <ele>2761.27</ele>
        <time>2022-08-07T09:59:00Z</time>
      </trkpt>
      <trkpt lat="45.189829235896468" lon="7.075676685199142">
        <ele>2759.1100000000001</ele>
        <time>2022-08-07T09:59:12Z</time>
      </trkpt>
      <trkpt lat="45.189828649163246" lon="7.07577190361917">
        <ele>2757.0599999999999</ele>
        <time>2022-08-07T09:59:24Z</time>
      </trkpt>
      <trkpt lat="45.189813310280442" lon="7.075810125097632">
        <ele>2755.6599999999999</ele>
        <time>2022-08-07T09:59:33Z</time>
      </trkpt>
      <trkpt lat="45.189818171784282" lon="7.075909785926342">
        <ele>2753.4400000000001</ele>
        <time>2022-08-07T09:59:45Z</time>
      </trkpt>
      <trkpt lat="45.189821273088455" lon="7.075921017676592">
        <ele>2753.3699999999999</ele>
        <time>2022-08-07T09:59:46Z</time>
      </trkpt>
      <trkpt lat="45.189842311665416" lon="7.07604699768126">
        <ele>2750.73</ele>
        <time>2022-08-07T09:59:59Z</time>
      </trkpt>
      <trkpt lat="45.189817836508155" lon="7.076083039864898">
        <ele>2748.4899999999998</ele>
        <time>2022-08-07T10:00:09Z</time>
      </trkpt>
      <trkpt lat="45.189737621694803" lon="7.076068455353379">
        <ele>2746.25</ele>
        <time>2022-08-07T10:00:20Z</time>
      </trkpt>
      <trkpt lat="45.189674757421017" lon="7.076044231653214">
        <ele>2743.79</ele>
        <time>2022-08-07T10:00:30Z</time>
      </trkpt>
      <trkpt lat="45.189587166532874" lon="7.076020427048206">
        <ele>2741.0599999999999</ele>
        <time>2022-08-07T10:00:42Z</time>
      </trkpt>
      <trkpt lat="45.189512399956584" lon="7.075988743454218">
        <ele>2738.8600000000001</ele>
        <time>2022-08-07T10:00:54Z</time>
      </trkpt>
      <trkpt lat="45.189433190971613" lon="7.075940044596791">
        <ele>2735.8200000000002</ele>
        <time>2022-08-07T10:01:07Z</time>
      </trkpt>
      <trkpt lat="45.189391365274787" lon="7.07595412619412">
        <ele>2734.04</ele>
        <time>2022-08-07T10:01:17Z</time>
      </trkpt>
      <trkpt lat="45.189357670024037" lon="7.075993521139026">
        <ele>2731.1900000000001</ele>
        <time>2022-08-07T10:01:30Z</time>
      </trkpt>
      <trkpt lat="45.189307713881135" lon="7.076077340170741">
        <ele>2728.3400000000001</ele>
        <time>2022-08-07T10:01:44Z</time>
      </trkpt>
      <trkpt lat="45.189304193481803" lon="7.076173480600119">
        <ele>2726.27</ele>
        <time>2022-08-07T10:01:55Z</time>
      </trkpt>
      <trkpt lat="45.189292542636395" lon="7.076239362359047">
        <ele>2724.4899999999998</ele>
        <time>2022-08-07T10:02:06Z</time>
      </trkpt>
      <trkpt lat="45.189212579280138" lon="7.076229639351368">
        <ele>2722.3600000000001</ele>
        <time>2022-08-07T10:02:17Z</time>
      </trkpt>
      <trkpt lat="45.189151642844081" lon="7.076257802546024">
        <ele>2719.3499999999999</ele>
        <time>2022-08-07T10:02:27Z</time>
      </trkpt>
      <trkpt lat="45.189106548205018" lon="7.07627372816205">
        <ele>2717.5900000000001</ele>
        <time>2022-08-07T10:02:38Z</time>
      </trkpt>
      <trkpt lat="45.189095064997673" lon="7.076285211369395">
        <ele>2717.0900000000001</ele>
        <time>2022-08-07T10:02:41Z</time>
      </trkpt>
      <trkpt lat="45.188998421654105" lon="7.076242044568062">
        <ele>2713.8400000000001</ele>
        <time>2022-08-07T10:02:54Z</time>
      </trkpt>
      <trkpt lat="45.188944274559617" lon="7.076229136437178">
        <ele>2711.3400000000001</ele>
        <time>2022-08-07T10:03:08Z</time>
      </trkpt>
      <trkpt lat="45.188913512974977" lon="7.076211282983422">
        <ele>2709.79</ele>
        <time>2022-08-07T10:03:21Z</time>
      </trkpt>
      <trkpt lat="45.188853666186333" lon="7.076236428692937">
        <ele>2707.1100000000001</ele>
        <time>2022-08-07T10:03:31Z</time>
      </trkpt>
      <trkpt lat="45.188799267634749" lon="7.076220754534006">
        <ele>2704.02</ele>
        <time>2022-08-07T10:03:40Z</time>
      </trkpt>
      <trkpt lat="45.188771607354283" lon="7.076176330447197">
        <ele>2703.0100000000002</ele>
        <time>2022-08-07T10:03:48Z</time>
      </trkpt>
      <trkpt lat="45.188750568777323" lon="7.076113382354379">
        <ele>2701.9499999999998</ele>
        <time>2022-08-07T10:03:53Z</time>
      </trkpt>
      <trkpt lat="45.188723243772984" lon="7.075991593301296">
        <ele>2700.2600000000002</ele>
        <time>2022-08-07T10:04:06Z</time>
      </trkpt>
      <trkpt lat="45.188683094456792" lon="7.076024785637856">
        <ele>2699.25</ele>
        <time>2022-08-07T10:04:20Z</time>
      </trkpt>
      <trkpt lat="45.188661552965641" lon="7.076085638254881">
        <ele>2698.5500000000002</ele>
        <time>2022-08-07T10:04:25Z</time>
      </trkpt>
      <trkpt lat="45.188646465539932" lon="7.07614422775805">
        <ele>2697.5900000000001</ele>
        <time>2022-08-07T10:04:30Z</time>
      </trkpt>
      <trkpt lat="45.188590977340937" lon="7.07625369541347">
        <ele>2694.6599999999999</ele>
        <time>2022-08-07T10:04:42Z</time>
      </trkpt>
      <trkpt lat="45.188585361465812" lon="7.076328210532665">
        <ele>2694.6599999999999</ele>
        <time>2022-08-07T10:04:48Z</time>
      </trkpt>
      <trkpt lat="45.188549822196364" lon="7.076450083404779">
        <ele>2692.4299999999998</ele>
        <time>2022-08-07T10:05:00Z</time>
      </trkpt>
      <trkpt lat="45.18852710723877" lon="7.076544295996428">
        <ele>2690.8400000000001</ele>
        <time>2022-08-07T10:05:08Z</time>
      </trkpt>
      <trkpt lat="45.188448987901211" lon="7.076657870784402">
        <ele>2687.8499999999999</ele>
        <time>2022-08-07T10:05:22Z</time>
      </trkpt>
      <trkpt lat="45.188386291265488" lon="7.076755771413446">
        <ele>2684.8299999999999</ele>
        <time>2022-08-07T10:05:36Z</time>
      </trkpt>
      <trkpt lat="45.188310267403722" lon="7.076783934608102">
        <ele>2683.25</ele>
        <time>2022-08-07T10:05:48Z</time>
      </trkpt>
      <trkpt lat="45.18824421800673" lon="7.076836405321956">
        <ele>2681.0799999999999</ele>
        <time>2022-08-07T10:06:00Z</time>
      </trkpt>
      <trkpt lat="45.188177581876516" lon="7.076876806095243">
        <ele>2678.8499999999999</ele>
        <time>2022-08-07T10:06:11Z</time>
      </trkpt>
      <trkpt lat="45.188137935474515" lon="7.076978143304586">
        <ele>2675.6700000000001</ele>
        <time>2022-08-07T10:06:23Z</time>
      </trkpt>
      <trkpt lat="45.188098205253482" lon="7.076999852433801">
        <ele>2674.2600000000002</ele>
        <time>2022-08-07T10:06:35Z</time>
      </trkpt>
      <trkpt lat="45.188123099505901" lon="7.077075205743313">
        <ele>2671.6500000000001</ele>
        <time>2022-08-07T10:06:46Z</time>
      </trkpt>
      <trkpt lat="45.188112035393715" lon="7.077108481898904">
        <ele>2670.7399999999998</ele>
        <time>2022-08-07T10:07:01Z</time>
      </trkpt>
      <trkpt lat="45.188053697347641" lon="7.077151229605079">
        <ele>2669.04</ele>
        <time>2022-08-07T10:07:12Z</time>
      </trkpt>
      <trkpt lat="45.188024779781699" lon="7.077165646478534">
        <ele>2667.79</ele>
        <time>2022-08-07T10:07:20Z</time>
      </trkpt>
      <trkpt lat="45.187970045953989" lon="7.077204706147313">
        <ele>2666.1100000000001</ele>
        <time>2022-08-07T10:07:32Z</time>
      </trkpt>
      <trkpt lat="45.187921179458499" lon="7.077188193798065">
        <ele>2664.7600000000002</ele>
        <time>2022-08-07T10:07:43Z</time>
      </trkpt>
      <trkpt lat="45.187917072325945" lon="7.077182326465845">
        <ele>2664.73</ele>
        <time>2022-08-07T10:07:44Z</time>
      </trkpt>
      <trkpt lat="45.187855213880539" lon="7.077098004519939">
        <ele>2661.6199999999999</ele>
        <time>2022-08-07T10:07:56Z</time>
      </trkpt>
      <trkpt lat="45.187788913026452" lon="7.077049305662513">
        <ele>2658.7600000000002</ele>
        <time>2022-08-07T10:08:07Z</time>
      </trkpt>
      <trkpt lat="45.187718253582716" lon="7.076951405033469">
        <ele>2655.9000000000001</ele>
        <time>2022-08-07T10:08:22Z</time>
      </trkpt>
      <trkpt lat="45.187687994912267" lon="7.07701058126986">
        <ele>2654.04</ele>
        <time>2022-08-07T10:08:36Z</time>
      </trkpt>
      <trkpt lat="45.187675505876541" lon="7.077106470242143">
        <ele>2651.4000000000001</ele>
        <time>2022-08-07T10:08:48Z</time>
      </trkpt>
      <trkpt lat="45.187661675736308" lon="7.077207723632455">
        <ele>2648.3699999999999</ele>
        <time>2022-08-07T10:08:59Z</time>
      </trkpt>
      <trkpt lat="45.187687911093235" lon="7.077366057783365">
        <ele>2646.1999999999998</ele>
        <time>2022-08-07T10:09:16Z</time>
      </trkpt>
      <trkpt lat="45.187657317146659" lon="7.07737703807652">
        <ele>2644.5300000000002</ele>
        <time>2022-08-07T10:09:27Z</time>
      </trkpt>
      <trkpt lat="45.187611719593406" lon="7.077352646738291">
        <ele>2642.5100000000002</ele>
        <time>2022-08-07T10:09:38Z</time>
      </trkpt>
      <trkpt lat="45.187538545578718" lon="7.077250387519598">
        <ele>2640.1999999999998</ele>
        <time>2022-08-07T10:09:52Z</time>
      </trkpt>
      <trkpt lat="45.187509208917618" lon="7.077308474108577">
        <ele>2638.6999999999998</ele>
        <time>2022-08-07T10:10:03Z</time>
      </trkpt>
      <trkpt lat="45.187512477859855" lon="7.077298751100898">
        <ele>2637.2600000000002</ele>
        <time>2022-08-07T10:10:14Z</time>
      </trkpt>
      <trkpt lat="45.187522536143661" lon="7.077293805778027">
        <ele>2637.5900000000001</ele>
        <time>2022-08-07T10:10:35Z</time>
      </trkpt>
      <trkpt lat="45.187520021572709" lon="7.077291291207075">
        <ele>2638.23</ele>
        <time>2022-08-07T10:10:48Z</time>
      </trkpt>
      <trkpt lat="45.187517423182726" lon="7.077308557927609">
        <ele>2637.1399999999999</ele>
        <time>2022-08-07T10:10:52Z</time>
      </trkpt>
      <trkpt lat="45.187525553628802" lon="7.077454989776015">
        <ele>2635.4299999999998</ele>
        <time>2022-08-07T10:11:01Z</time>
      </trkpt>
      <trkpt lat="45.187508873641491" lon="7.077588932588697">
        <ele>2632.04</ele>
        <time>2022-08-07T10:11:14Z</time>
      </trkpt>
      <trkpt lat="45.187503090128303" lon="7.07761206664145">
        <ele>2631.4400000000001</ele>
        <time>2022-08-07T10:11:16Z</time>
      </trkpt>
      <trkpt lat="45.187501246109605" lon="7.077734777703881">
        <ele>2628.6199999999999</ele>
        <time>2022-08-07T10:11:28Z</time>
      </trkpt>
      <trkpt lat="45.18745556473732" lon="7.07776352763176">
        <ele>2625.5500000000002</ele>
        <time>2022-08-07T10:11:37Z</time>
      </trkpt>
      <trkpt lat="45.187449529767036" lon="7.077753720805049">
        <ele>2625.0999999999999</ele>
        <time>2022-08-07T10:11:38Z</time>
      </trkpt>
      <trkpt lat="45.187351880595088" lon="7.077634194865823">
        <ele>2621.77</ele>
        <time>2022-08-07T10:11:52Z</time>
      </trkpt>
      <trkpt lat="45.187308881431818" lon="7.077631261199713">
        <ele>2619.5</ele>
        <time>2022-08-07T10:12:02Z</time>
      </trkpt>
      <trkpt lat="45.187307959422469" lon="7.077670153230429">
        <ele>2619.0700000000002</ele>
        <time>2022-08-07T10:12:05Z</time>
      </trkpt>
      <trkpt lat="45.187318101525307" lon="7.077720277011395">
        <ele>2617.8499999999999</ele>
        <time>2022-08-07T10:12:09Z</time>
      </trkpt>
      <trkpt lat="45.187320951372385" lon="7.077770484611392">
        <ele>2616.8499999999999</ele>
        <time>2022-08-07T10:12:13Z</time>
      </trkpt>
      <trkpt lat="45.187329249456525" lon="7.077919263392687">
        <ele>2614.1900000000001</ele>
        <time>2022-08-07T10:12:26Z</time>
      </trkpt>
      <trkpt lat="45.187338972464204" lon="7.077974835410714">
        <ele>2612.96</ele>
        <time>2022-08-07T10:12:38Z</time>
      </trkpt>
      <trkpt lat="45.187334781512618" lon="7.077985983341932">
        <ele>2612.1700000000001</ele>
        <time>2022-08-07T10:12:51Z</time>
      </trkpt>
      <trkpt lat="45.187335116788745" lon="7.077977852895856">
        <ele>2612.3299999999999</ele>
        <time>2022-08-07T10:13:13Z</time>
      </trkpt>
      <trkpt lat="45.187336374074221" lon="7.077977517619729">
        <ele>2613.02</ele>
        <time>2022-08-07T10:13:19Z</time>
      </trkpt>
      <trkpt lat="45.18733587116003" lon="7.077981708571315">
        <ele>2612.1500000000001</ele>
        <time>2022-08-07T10:13:37Z</time>
      </trkpt>
      <trkpt lat="45.187335284426808" lon="7.077978607267141">
        <ele>2611.5500000000002</ele>
        <time>2022-08-07T10:13:58Z</time>
      </trkpt>
      <trkpt lat="45.187335116788745" lon="7.077969890087843">
        <ele>2611.7199999999998</ele>
        <time>2022-08-07T10:14:32Z</time>
      </trkpt>
      <trkpt lat="45.187303852289915" lon="7.07797416485846">
        <ele>2610.96</ele>
        <time>2022-08-07T10:14:47Z</time>
      </trkpt>
      <trkpt lat="45.187268732115626" lon="7.077922699972987">
        <ele>2609.8699999999999</ele>
        <time>2022-08-07T10:14:58Z</time>
      </trkpt>
      <trkpt lat="45.187245933339" lon="7.077982630580664">
        <ele>2607.1799999999998</ele>
        <time>2022-08-07T10:15:09Z</time>
      </trkpt>
      <trkpt lat="45.187260685488582" lon="7.078123362734914">
        <ele>2604.6300000000001</ele>
        <time>2022-08-07T10:15:25Z</time>
      </trkpt>
      <trkpt lat="45.187293877825141" lon="7.078234506770968">
        <ele>2603.1500000000001</ele>
        <time>2022-08-07T10:15:37Z</time>
      </trkpt>
      <trkpt lat="45.187261020764709" lon="7.078269710764289">
        <ele>2601.8000000000002</ele>
        <time>2022-08-07T10:15:49Z</time>
      </trkpt>
      <trkpt lat="45.18730066716671" lon="7.078335341066122">
        <ele>2600.1399999999999</ele>
        <time>2022-08-07T10:16:02Z</time>
      </trkpt>
      <trkpt lat="45.187247106805444" lon="7.078346069902182">
        <ele>2597.9400000000001</ele>
        <time>2022-08-07T10:16:13Z</time>
      </trkpt>
      <trkpt lat="45.187219362705946" lon="7.078390913084149">
        <ele>2596.7399999999998</ele>
        <time>2022-08-07T10:16:24Z</time>
      </trkpt>
      <trkpt lat="45.187278036028147" lon="7.078468110412359">
        <ele>2594.6599999999999</ele>
        <time>2022-08-07T10:16:38Z</time>
      </trkpt>
      <trkpt lat="45.18723520450294" lon="7.078496441245079">
        <ele>2592.3899999999999</ele>
        <time>2022-08-07T10:16:48Z</time>
      </trkpt>
      <trkpt lat="45.187194552272558" lon="7.078498620539904">
        <ele>2591.5999999999999</ele>
        <time>2022-08-07T10:16:58Z</time>
      </trkpt>
      <trkpt lat="45.18715700134635" lon="7.078552935272455">
        <ele>2588.96</ele>
        <time>2022-08-07T10:17:10Z</time>
      </trkpt>
      <trkpt lat="45.187127413228154" lon="7.078559556975961">
        <ele>2588.46</ele>
        <time>2022-08-07T10:17:20Z</time>
      </trkpt>
      <trkpt lat="45.187096400186419" lon="7.078575985506177">
        <ele>2587</ele>
        <time>2022-08-07T10:17:31Z</time>
      </trkpt>
      <trkpt lat="45.187106961384416" lon="7.078627618029714">
        <ele>2586.1100000000001</ele>
        <time>2022-08-07T10:17:41Z</time>
      </trkpt>
      <trkpt lat="45.187110900878906" lon="7.078648153692484">
        <ele>2585.8499999999999</ele>
        <time>2022-08-07T10:17:57Z</time>
      </trkpt>
      <trkpt lat="45.187066728249192" lon="7.078653434291482">
        <ele>2583.77</ele>
        <time>2022-08-07T10:18:08Z</time>
      </trkpt>
      <trkpt lat="45.187023393809795" lon="7.078628707677126">
        <ele>2582.0100000000002</ele>
        <time>2022-08-07T10:18:20Z</time>
      </trkpt>
      <trkpt lat="45.186965558677912" lon="7.078627198934555">
        <ele>2579.3800000000001</ele>
        <time>2022-08-07T10:18:31Z</time>
      </trkpt>
      <trkpt lat="45.186889953911304" lon="7.078552264720202">
        <ele>2577.73</ele>
        <time>2022-08-07T10:18:42Z</time>
      </trkpt>
      <trkpt lat="45.186850894242525" lon="7.078570034354925">
        <ele>2575.3000000000002</ele>
        <time>2022-08-07T10:18:55Z</time>
      </trkpt>
      <trkpt lat="45.186901269480586" lon="7.078727865591645">
        <ele>2572.6900000000001</ele>
        <time>2022-08-07T10:19:10Z</time>
      </trkpt>
      <trkpt lat="45.186898922547698" lon="7.078808331862092">
        <ele>2569.9299999999998</ele>
        <time>2022-08-07T10:19:24Z</time>
      </trkpt>
      <trkpt lat="45.186833878979087" lon="7.078777402639389">
        <ele>2568.0100000000002</ele>
        <time>2022-08-07T10:19:36Z</time>
      </trkpt>
      <trkpt lat="45.186773110181093" lon="7.078718645498157">
        <ele>2566.1900000000001</ele>
        <time>2022-08-07T10:19:49Z</time>
      </trkpt>
      <trkpt lat="45.186753077432513" lon="7.078753262758255">
        <ele>2564.4499999999998</ele>
        <time>2022-08-07T10:19:59Z</time>
      </trkpt>
      <trkpt lat="45.186744024977088" lon="7.078850073739886">
        <ele>2562.5100000000002</ele>
        <time>2022-08-07T10:20:11Z</time>
      </trkpt>
      <trkpt lat="45.186744946986437" lon="7.078954176977277">
        <ele>2559.8899999999999</ele>
        <time>2022-08-07T10:20:23Z</time>
      </trkpt>
      <trkpt lat="45.186777636408806" lon="7.079060543328524">
        <ele>2556.8099999999999</ele>
        <time>2022-08-07T10:20:35Z</time>
      </trkpt>
      <trkpt lat="45.186795154586434" lon="7.079167328774929">
        <ele>2555</ele>
        <time>2022-08-07T10:20:48Z</time>
      </trkpt>
      <trkpt lat="45.186793645843863" lon="7.079240251332521">
        <ele>2552.9200000000001</ele>
        <time>2022-08-07T10:20:59Z</time>
      </trkpt>
      <trkpt lat="45.186789035797119" lon="7.079290542751551">
        <ele>2550.7600000000002</ele>
        <time>2022-08-07T10:21:11Z</time>
      </trkpt>
      <trkpt lat="45.186742767691612" lon="7.079346869140863">
        <ele>2548.8600000000001</ele>
        <time>2022-08-07T10:21:23Z</time>
      </trkpt>
      <trkpt lat="45.186689039692283" lon="7.079359441995621">
        <ele>2546.4400000000001</ele>
        <time>2022-08-07T10:21:34Z</time>
      </trkpt>
      <trkpt lat="45.18662148155272" lon="7.079282831400633">
        <ele>2544.2800000000002</ele>
        <time>2022-08-07T10:21:46Z</time>
      </trkpt>
      <trkpt lat="45.18656331114471" lon="7.079353742301464">
        <ele>2541.4000000000001</ele>
        <time>2022-08-07T10:22:00Z</time>
      </trkpt>
      <trkpt lat="45.186573620885611" lon="7.079417612403631">
        <ele>2539.8000000000002</ele>
        <time>2022-08-07T10:22:08Z</time>
      </trkpt>
      <trkpt lat="45.186587031930685" lon="7.079455414786935">
        <ele>2537.7600000000002</ele>
        <time>2022-08-07T10:22:19Z</time>
      </trkpt>
      <trkpt lat="45.186538584530354" lon="7.079468322917819">
        <ele>2535.9400000000001</ele>
        <time>2022-08-07T10:22:30Z</time>
      </trkpt>
      <trkpt lat="45.186508996412158" lon="7.07952749915421">
        <ele>2533.3600000000001</ele>
        <time>2022-08-07T10:22:45Z</time>
      </trkpt>
      <trkpt lat="45.186552247032523" lon="7.079652640968561">
        <ele>2531.0799999999999</ele>
        <time>2022-08-07T10:22:59Z</time>
      </trkpt>
      <trkpt lat="45.186581751331687" lon="7.079729838296771">
        <ele>2529.27</ele>
        <time>2022-08-07T10:23:09Z</time>
      </trkpt>
      <trkpt lat="45.186523916199803" lon="7.079765796661377">
        <ele>2527.0700000000002</ele>
        <time>2022-08-07T10:23:21Z</time>
      </trkpt>
      <trkpt lat="45.186534225940704" lon="7.079814579337835">
        <ele>2526.2800000000002</ele>
        <time>2022-08-07T10:23:26Z</time>
      </trkpt>
      <trkpt lat="45.186565322801471" lon="7.07987786270678">
        <ele>2524.79</ele>
        <time>2022-08-07T10:23:33Z</time>
      </trkpt>
      <trkpt lat="45.186636904254556" lon="7.079897979274392">
        <ele>2523.21</ele>
        <time>2022-08-07T10:23:47Z</time>
      </trkpt>
      <trkpt lat="45.186665570363402" lon="7.079911725595594">
        <ele>2521.6900000000001</ele>
        <time>2022-08-07T10:24:00Z</time>
      </trkpt>
      <trkpt lat="45.186684681102633" lon="7.079959586262703">
        <ele>2520.29</ele>
        <time>2022-08-07T10:24:09Z</time>
      </trkpt>
      <trkpt lat="45.186717705801129" lon="7.079968554899097">
        <ele>2519.7399999999998</ele>
        <time>2022-08-07T10:24:15Z</time>
      </trkpt>
      <trkpt lat="45.186800686642528" lon="7.0799579937011">
        <ele>2517.8400000000001</ele>
        <time>2022-08-07T10:24:25Z</time>
      </trkpt>
      <trkpt lat="45.186841422691941" lon="7.079996047541499">
        <ele>2516.3200000000002</ele>
        <time>2022-08-07T10:24:33Z</time>
      </trkpt>
      <trkpt lat="45.186786269769073" lon="7.08002982661128">
        <ele>2514.6199999999999</ele>
        <time>2022-08-07T10:24:42Z</time>
      </trkpt>
      <trkpt lat="45.186752239242196" lon="7.080073747783899">
        <ele>2513.0999999999999</ele>
        <time>2022-08-07T10:24:47Z</time>
      </trkpt>
      <trkpt lat="45.18665224313736" lon="7.080108784139156">
        <ele>2510.4200000000001</ele>
        <time>2022-08-07T10:25:00Z</time>
      </trkpt>
      <trkpt lat="45.186636736616492" lon="7.080113561823964">
        <ele>2509.9299999999998</ele>
        <time>2022-08-07T10:25:03Z</time>
      </trkpt>
      <trkpt lat="45.186565406620502" lon="7.080145999789238">
        <ele>2507.46</ele>
        <time>2022-08-07T10:25:16Z</time>
      </trkpt>
      <trkpt lat="45.186547050252557" lon="7.080194028094411">
        <ele>2504.4200000000001</ele>
        <time>2022-08-07T10:25:25Z</time>
      </trkpt>
      <trkpt lat="45.186494076624513" lon="7.080204924568534">
        <ele>2502.77</ele>
        <time>2022-08-07T10:25:39Z</time>
      </trkpt>
      <trkpt lat="45.186470607295632" lon="7.080249516293407">
        <ele>2500.2800000000002</ele>
        <time>2022-08-07T10:25:51Z</time>
      </trkpt>
      <trkpt lat="45.186441019177437" lon="7.08029611967504">
        <ele>2497.5599999999999</ele>
        <time>2022-08-07T10:26:04Z</time>
      </trkpt>
      <trkpt lat="45.186420483514667" lon="7.080335849896073">
        <ele>2495.0700000000002</ele>
        <time>2022-08-07T10:26:15Z</time>
      </trkpt>
      <trkpt lat="45.186386788263917" lon="7.080377172678709">
        <ele>2493.29</ele>
        <time>2022-08-07T10:26:26Z</time>
      </trkpt>
      <trkpt lat="45.186351081356406" lon="7.080397121608257">
        <ele>2491.0999999999999</ele>
        <time>2022-08-07T10:26:36Z</time>
      </trkpt>
      <trkpt lat="45.186352673918009" lon="7.080385554581881">
        <ele>2491.1799999999998</ele>
        <time>2022-08-07T10:26:47Z</time>
      </trkpt>
      <trkpt lat="45.186343789100647" lon="7.080381447449327">
        <ele>2490.3699999999999</ele>
        <time>2022-08-07T10:26:59Z</time>
      </trkpt>
      <trkpt lat="45.186339262872934" lon="7.080386308953166">
        <ele>2490.3400000000001</ele>
        <time>2022-08-07T10:27:02Z</time>
      </trkpt>
      <trkpt lat="45.186270028352737" lon="7.080430649220944">
        <ele>2487.5900000000001</ele>
        <time>2022-08-07T10:27:15Z</time>
      </trkpt>
      <trkpt lat="45.18621982075274" lon="7.080417321994901">
        <ele>2485.98</ele>
        <time>2022-08-07T10:27:25Z</time>
      </trkpt>
      <trkpt lat="45.186175815761089" lon="7.080436013638973">
        <ele>2483.8600000000001</ele>
        <time>2022-08-07T10:27:35Z</time>
      </trkpt>
      <trkpt lat="45.186116555705667" lon="7.080442719161511">
        <ele>2482</ele>
        <time>2022-08-07T10:27:46Z</time>
      </trkpt>
      <trkpt lat="45.186081854626536" lon="7.080448837950826">
        <ele>2480.2199999999998</ele>
        <time>2022-08-07T10:27:56Z</time>
      </trkpt>
      <trkpt lat="45.186052769422531" lon="7.080459985882044">
        <ele>2478.0300000000002</ele>
        <time>2022-08-07T10:28:07Z</time>
      </trkpt>
      <trkpt lat="45.186001220718026" lon="7.080461578443646">
        <ele>2475.8299999999999</ele>
        <time>2022-08-07T10:28:19Z</time>
      </trkpt>
      <trkpt lat="45.18594522960484" lon="7.080450346693397">
        <ele>2473.2600000000002</ele>
        <time>2022-08-07T10:28:29Z</time>
      </trkpt>
      <trkpt lat="45.18586652353406" lon="7.080428134649992">
        <ele>2470.48</ele>
        <time>2022-08-07T10:28:40Z</time>
      </trkpt>
      <trkpt lat="45.185772646218538" lon="7.080390248447657">
        <ele>2467.7199999999998</ele>
        <time>2022-08-07T10:28:53Z</time>
      </trkpt>
      <trkpt lat="45.185754457488656" lon="7.080377256497741">
        <ele>2467.4499999999998</ele>
        <time>2022-08-07T10:28:55Z</time>
      </trkpt>
      <trkpt lat="45.185688072815537" lon="7.080337358638644">
        <ele>2466.2199999999998</ele>
        <time>2022-08-07T10:29:02Z</time>
      </trkpt>
      <trkpt lat="45.185629231855273" lon="7.080256808549166">
        <ele>2465.0300000000002</ele>
        <time>2022-08-07T10:29:14Z</time>
      </trkpt>
      <trkpt lat="45.185571648180485" lon="7.080208109691739">
        <ele>2463.3499999999999</ele>
        <time>2022-08-07T10:29:27Z</time>
      </trkpt>
      <trkpt lat="45.185566954314709" lon="7.080213725566864">
        <ele>2463.3899999999999</ele>
        <time>2022-08-07T10:29:35Z</time>
      </trkpt>
      <trkpt lat="45.185573492199183" lon="7.080207774415612">
        <ele>2463.8200000000002</ele>
        <time>2022-08-07T10:29:39Z</time>
      </trkpt>
      <trkpt lat="45.185566786676645" lon="7.080208780243993">
        <ele>2463.3299999999999</ele>
        <time>2022-08-07T10:29:53Z</time>
      </trkpt>
      <trkpt lat="45.185550861060619" lon="7.080209534615278">
        <ele>2462.9400000000001</ele>
        <time>2022-08-07T10:30:02Z</time>
      </trkpt>
      <trkpt lat="45.185543149709702" lon="7.080191094428301">
        <ele>2462.6100000000001</ele>
        <time>2022-08-07T10:30:09Z</time>
      </trkpt>
      <trkpt lat="45.185531750321388" lon="7.080181958153844">
        <ele>2461.96</ele>
        <time>2022-08-07T10:30:11Z</time>
      </trkpt>
      <trkpt lat="45.185472406446934" lon="7.080119680613279">
        <ele>2461.1500000000001</ele>
        <time>2022-08-07T10:30:21Z</time>
      </trkpt>
      <trkpt lat="45.185425635427237" lon="7.080075759440661">
        <ele>2459.4000000000001</ele>
        <time>2022-08-07T10:30:32Z</time>
      </trkpt>
      <trkpt lat="45.185362352058291" lon="7.080036364495754">
        <ele>2457.6300000000001</ele>
        <time>2022-08-07T10:30:43Z</time>
      </trkpt>
      <trkpt lat="45.185328740626574" lon="7.080010883510113">
        <ele>2456.9499999999998</ele>
        <time>2022-08-07T10:30:47Z</time>
      </trkpt>
      <trkpt lat="45.185239054262638" lon="7.079890687018633">
        <ele>2454.4099999999999</ele>
        <time>2022-08-07T10:31:01Z</time>
      </trkpt>
      <trkpt lat="45.185171328485012" lon="7.07977962680161">
        <ele>2452.6199999999999</ele>
        <time>2022-08-07T10:31:13Z</time>
      </trkpt>
      <trkpt lat="45.185092287138104" lon="7.079667141661048">
        <ele>2450.2600000000002</ele>
        <time>2022-08-07T10:31:27Z</time>
      </trkpt>
      <trkpt lat="45.185019364580512" lon="7.079592291265726">
        <ele>2447.8499999999999</ele>
        <time>2022-08-07T10:31:39Z</time>
      </trkpt>
      <trkpt lat="45.184936048462987" lon="7.07953336648643">
        <ele>2445.4499999999998</ele>
        <time>2022-08-07T10:31:51Z</time>
      </trkpt>
      <trkpt lat="45.184859605506063" lon="7.079446949064732">
        <ele>2442.6100000000001</ele>
        <time>2022-08-07T10:32:05Z</time>
      </trkpt>
      <trkpt lat="45.184825072064996" lon="7.079418618232012">
        <ele>2441.9499999999998</ele>
        <time>2022-08-07T10:32:10Z</time>
      </trkpt>
      <trkpt lat="45.184743348509073" lon="7.079327758401632">
        <ele>2438.5300000000002</ele>
        <time>2022-08-07T10:32:24Z</time>
      </trkpt>
      <trkpt lat="45.184680484235287" lon="7.079222733154893">
        <ele>2436.3299999999999</ele>
        <time>2022-08-07T10:32:37Z</time>
      </trkpt>
      <trkpt lat="45.184607561677694" lon="7.07914587110281">
        <ele>2434.0500000000002</ele>
        <time>2022-08-07T10:32:49Z</time>
      </trkpt>
      <trkpt lat="45.184540841728449" lon="7.079052915796638">
        <ele>2431.1799999999998</ele>
        <time>2022-08-07T10:33:01Z</time>
      </trkpt>
      <trkpt lat="45.184475462883711" lon="7.078997008502483">
        <ele>2428.4200000000001</ele>
        <time>2022-08-07T10:33:13Z</time>
      </trkpt>
      <trkpt lat="45.184419136494398" lon="7.078888043761253">
        <ele>2426.1399999999999</ele>
        <time>2022-08-07T10:33:25Z</time>
      </trkpt>
      <trkpt lat="45.184353422373533" lon="7.078831885010004">
        <ele>2423.6100000000001</ele>
        <time>2022-08-07T10:33:38Z</time>
      </trkpt>
      <trkpt lat="45.184297347441316" lon="7.078818054869771">
        <ele>2421.0999999999999</ele>
        <time>2022-08-07T10:33:51Z</time>
      </trkpt>
      <trkpt lat="45.18420129083097" lon="7.078827526420355">
        <ele>2418.3400000000001</ele>
        <time>2022-08-07T10:34:06Z</time>
      </trkpt>
      <trkpt lat="45.184158375486732" lon="7.078778157010675">
        <ele>2416.5100000000002</ele>
        <time>2022-08-07T10:34:17Z</time>
      </trkpt>
      <trkpt lat="45.184135409072042" lon="7.078718142583966">
        <ele>2414.6700000000001</ele>
        <time>2022-08-07T10:34:28Z</time>
      </trkpt>
      <trkpt lat="45.184080088511109" lon="7.078669359907508">
        <ele>2412.8299999999999</ele>
        <time>2022-08-07T10:34:41Z</time>
      </trkpt>
      <trkpt lat="45.184033317491412" lon="7.078658798709512">
        <ele>2410.7399999999998</ele>
        <time>2022-08-07T10:34:51Z</time>
      </trkpt>
      <trkpt lat="45.183999789878726" lon="7.0786421187222">
        <ele>2409.3200000000002</ele>
        <time>2022-08-07T10:35:01Z</time>
      </trkpt>
      <trkpt lat="45.183937260881066" lon="7.078614793717861">
        <ele>2407.5799999999999</ele>
        <time>2022-08-07T10:35:13Z</time>
      </trkpt>
      <trkpt lat="45.183868361636996" lon="7.07853751257062">
        <ele>2404.6700000000001</ele>
        <time>2022-08-07T10:35:27Z</time>
      </trkpt>
      <trkpt lat="45.183806335553527" lon="7.078465512022376">
        <ele>2402.4200000000001</ele>
        <time>2022-08-07T10:35:39Z</time>
      </trkpt>
      <trkpt lat="45.183782028034329" lon="7.078404910862446">
        <ele>2401.0999999999999</ele>
        <time>2022-08-07T10:35:49Z</time>
      </trkpt>
      <trkpt lat="45.183757217600942" lon="7.078380351886153">
        <ele>2399.5900000000001</ele>
        <time>2022-08-07T10:36:00Z</time>
      </trkpt>
      <trkpt lat="45.183701897040009" lon="7.078355457633734">
        <ele>2397.3099999999999</ele>
        <time>2022-08-07T10:36:10Z</time>
      </trkpt>
      <trkpt lat="45.183650515973568" lon="7.078246744349599">
        <ele>2395.23</ele>
        <time>2022-08-07T10:36:23Z</time>
      </trkpt>
      <trkpt lat="45.183625454083085" lon="7.078222772106528">
        <ele>2392.8699999999999</ele>
        <time>2022-08-07T10:36:29Z</time>
      </trkpt>
      <trkpt lat="45.183568708598614" lon="7.078162087127566">
        <ele>2391.1999999999998</ele>
        <time>2022-08-07T10:36:39Z</time>
      </trkpt>
      <trkpt lat="45.183514058589935" lon="7.078007441014051">
        <ele>2388.29</ele>
        <time>2022-08-07T10:36:53Z</time>
      </trkpt>
      <trkpt lat="45.18347566947341" lon="7.077897386625409">
        <ele>2385.98</ele>
        <time>2022-08-07T10:37:05Z</time>
      </trkpt>
      <trkpt lat="45.183443399146199" lon="7.077933680266142">
        <ele>2384.1900000000001</ele>
        <time>2022-08-07T10:37:18Z</time>
      </trkpt>
      <trkpt lat="45.183409536257386" lon="7.07803275436163">
        <ele>2381.8099999999999</ele>
        <time>2022-08-07T10:37:31Z</time>
      </trkpt>
      <trkpt lat="45.183375002816319" lon="7.078105760738254">
        <ele>2379.8899999999999</ele>
        <time>2022-08-07T10:37:43Z</time>
      </trkpt>
      <trkpt lat="45.183339715003967" lon="7.078230734914541">
        <ele>2377.4899999999998</ele>
        <time>2022-08-07T10:37:56Z</time>
      </trkpt>
      <trkpt lat="45.183326303958893" lon="7.078328467905521">
        <ele>2375.6100000000001</ele>
        <time>2022-08-07T10:38:07Z</time>
      </trkpt>
      <trkpt lat="45.183285316452384" lon="7.078412957489491">
        <ele>2373.1399999999999</ele>
        <time>2022-08-07T10:38:19Z</time>
      </trkpt>
      <trkpt lat="45.183252124115825" lon="7.078459644690156">
        <ele>2371.8499999999999</ele>
        <time>2022-08-07T10:38:30Z</time>
      </trkpt>
      <trkpt lat="45.183195378631353" lon="7.078422764316201">
        <ele>2369.5300000000002</ele>
        <time>2022-08-07T10:38:42Z</time>
      </trkpt>
      <trkpt lat="45.183141902089119" lon="7.078342717140913">
        <ele>2367.0799999999999</ele>
        <time>2022-08-07T10:38:54Z</time>
      </trkpt>
      <trkpt lat="45.183107620105147" lon="7.078255377709866">
        <ele>2364.5900000000001</ele>
        <time>2022-08-07T10:39:06Z</time>
      </trkpt>
      <trkpt lat="45.183033021166921" lon="7.078183125704527">
        <ele>2361.9899999999998</ele>
        <time>2022-08-07T10:39:19Z</time>
      </trkpt>
      <trkpt lat="45.182984070852399" lon="7.078118165954948">
        <ele>2359.77</ele>
        <time>2022-08-07T10:39:31Z</time>
      </trkpt>
      <trkpt lat="45.182954063639045" lon="7.077983971685171">
        <ele>2356.9000000000001</ele>
        <time>2022-08-07T10:39:45Z</time>
      </trkpt>
      <trkpt lat="45.182930091395974" lon="7.077891854569316">
        <ele>2355.1900000000001</ele>
        <time>2022-08-07T10:39:56Z</time>
      </trkpt>
      <trkpt lat="45.182909052819014" lon="7.077805437147617">
        <ele>2352.8400000000001</ele>
        <time>2022-08-07T10:40:10Z</time>
      </trkpt>
      <trkpt lat="45.182860102504492" lon="7.077852543443441">
        <ele>2350.5500000000002</ele>
        <time>2022-08-07T10:40:22Z</time>
      </trkpt>
      <trkpt lat="45.182787766680121" lon="7.077914318069816">
        <ele>2347.4699999999998</ele>
        <time>2022-08-07T10:40:36Z</time>
      </trkpt>
      <trkpt lat="45.18277695402503" lon="7.07794826477766">
        <ele>2346.5300000000002</ele>
        <time>2022-08-07T10:40:46Z</time>
      </trkpt>
      <trkpt lat="45.182779300957918" lon="7.077929070219398">
        <ele>2347.3099999999999</ele>
        <time>2022-08-07T10:41:01Z</time>
      </trkpt>
      <trkpt lat="45.182774104177952" lon="7.077965782955289">
        <ele>2346.6500000000001</ele>
        <time>2022-08-07T10:41:32Z</time>
      </trkpt>
      <trkpt lat="45.182718113064766" lon="7.078044321388006">
        <ele>2343.8600000000001</ele>
        <time>2022-08-07T10:41:45Z</time>
      </trkpt>
      <trkpt lat="45.182691542431712" lon="7.078054547309876">
        <ele>2342.5799999999999</ele>
        <time>2022-08-07T10:41:59Z</time>
      </trkpt>
      <trkpt lat="45.182690368965268" lon="7.078054631128907">
        <ele>2342.2399999999998</ele>
        <time>2022-08-07T10:42:14Z</time>
      </trkpt>
      <trkpt lat="45.182678885757923" lon="7.078074160963297">
        <ele>2341.9200000000001</ele>
        <time>2022-08-07T10:42:30Z</time>
      </trkpt>
      <trkpt lat="45.182679807767272" lon="7.078073406592012">
        <ele>2341.5999999999999</ele>
        <time>2022-08-07T10:42:51Z</time>
      </trkpt>
      <trkpt lat="45.182679975405335" lon="7.078083548694849">
        <ele>2341.8400000000001</ele>
        <time>2022-08-07T10:43:07Z</time>
      </trkpt>
      <trkpt lat="45.182652650400996" lon="7.078187065199018">
        <ele>2339.9200000000001</ele>
        <time>2022-08-07T10:43:20Z</time>
      </trkpt>
      <trkpt lat="45.182602861896157" lon="7.078145910054445">
        <ele>2337.3800000000001</ele>
        <time>2022-08-07T10:43:33Z</time>
      </trkpt>
      <trkpt lat="45.182548044249415" lon="7.078099055215716">
        <ele>2335.3499999999999</ele>
        <time>2022-08-07T10:43:44Z</time>
      </trkpt>
      <trkpt lat="45.182506972923875" lon="7.078160829842091">
        <ele>2333.8899999999999</ele>
        <time>2022-08-07T10:43:56Z</time>
      </trkpt>
      <trkpt lat="45.182454418390989" lon="7.078226460143924">
        <ele>2331.5700000000002</ele>
        <time>2022-08-07T10:44:08Z</time>
      </trkpt>
      <trkpt lat="45.182407815009356" lon="7.078347411006689">
        <ele>2329.2600000000002</ele>
        <time>2022-08-07T10:44:22Z</time>
      </trkpt>
      <trkpt lat="45.1823415979743" lon="7.078394517302513">
        <ele>2326.4099999999999</ele>
        <time>2022-08-07T10:44:35Z</time>
      </trkpt>
      <trkpt lat="45.182283595204353" lon="7.078360738232732">
        <ele>2324.5799999999999</ele>
        <time>2022-08-07T10:44:46Z</time>
      </trkpt>
      <trkpt lat="45.182222910225391" lon="7.078416980803013">
        <ele>2322.5999999999999</ele>
        <time>2022-08-07T10:44:59Z</time>
      </trkpt>
      <trkpt lat="45.182147305458784" lon="7.078463919460774">
        <ele>2319.5300000000002</ele>
        <time>2022-08-07T10:45:11Z</time>
      </trkpt>
      <trkpt lat="45.182078322395682" lon="7.078472804278135">
        <ele>2316.6700000000001</ele>
        <time>2022-08-07T10:45:22Z</time>
      </trkpt>
      <trkpt lat="45.182005986571312" lon="7.078538686037064">
        <ele>2314.7600000000002</ele>
        <time>2022-08-07T10:45:34Z</time>
      </trkpt>
      <trkpt lat="45.181927112862468" lon="7.078654523938894">
        <ele>2311.8499999999999</ele>
        <time>2022-08-07T10:45:49Z</time>
      </trkpt>
      <trkpt lat="45.181845305487514" lon="7.078769942745566">
        <ele>2308.9699999999998</ele>
        <time>2022-08-07T10:46:03Z</time>
      </trkpt>
      <trkpt lat="45.181836672127247" lon="7.078788550570607">
        <ele>2308.4200000000001</ele>
        <time>2022-08-07T10:46:05Z</time>
      </trkpt>
      <trkpt lat="45.18173667602241" lon="7.07895333878696">
        <ele>2305.1199999999999</ele>
        <time>2022-08-07T10:46:21Z</time>
      </trkpt>
      <trkpt lat="45.181690910831094" lon="7.07907160744071">
        <ele>2303</ele>
        <time>2022-08-07T10:46:33Z</time>
      </trkpt>
      <trkpt lat="45.181613378226757" lon="7.079138327389956">
        <ele>2300.1599999999999</ele>
        <time>2022-08-07T10:46:47Z</time>
      </trkpt>
      <trkpt lat="45.181531822308898" lon="7.07915467210114">
        <ele>2297.6700000000001</ele>
        <time>2022-08-07T10:46:59Z</time>
      </trkpt>
      <trkpt lat="45.181490080431104" lon="7.079128352925181">
        <ele>2296.8000000000002</ele>
        <time>2022-08-07T10:47:05Z</time>
      </trkpt>
      <trkpt lat="45.181391760706902" lon="7.079134723171592">
        <ele>2293.9200000000001</ele>
        <time>2022-08-07T10:47:19Z</time>
      </trkpt>
      <trkpt lat="45.181296626105905" lon="7.07916246727109">
        <ele>2290.8099999999999</ele>
        <time>2022-08-07T10:47:31Z</time>
      </trkpt>
      <trkpt lat="45.181285813450813" lon="7.079164059832692">
        <ele>2290.7800000000002</ele>
        <time>2022-08-07T10:47:34Z</time>
      </trkpt>
      <trkpt lat="45.181210376322269" lon="7.079182416200638">
        <ele>2287.21</ele>
        <time>2022-08-07T10:47:42Z</time>
      </trkpt>
      <trkpt lat="45.181172909215093" lon="7.079210663214326">
        <ele>2285.02</ele>
        <time>2022-08-07T10:47:47Z</time>
      </trkpt>
      <trkpt lat="45.181106356903911" lon="7.079341756179929">
        <ele>2282.1500000000001</ele>
        <time>2022-08-07T10:47:59Z</time>
      </trkpt>
      <trkpt lat="45.181027315557003" lon="7.079382408410311">
        <ele>2279.2399999999998</ele>
        <time>2022-08-07T10:48:15Z</time>
      </trkpt>
      <trkpt lat="45.181027818471193" lon="7.079402357339859">
        <ele>2278.9400000000001</ele>
        <time>2022-08-07T10:48:23Z</time>
      </trkpt>
      <trkpt lat="45.181012898683548" lon="7.079428257420659">
        <ele>2277.7800000000002</ele>
        <time>2022-08-07T10:48:26Z</time>
      </trkpt>
      <trkpt lat="45.180935366079211" lon="7.079537641257048">
        <ele>2274.6599999999999</ele>
        <time>2022-08-07T10:48:37Z</time>
      </trkpt>
      <trkpt lat="45.180821120738983" lon="7.079690527170897">
        <ele>2271.5300000000002</ele>
        <time>2022-08-07T10:48:52Z</time>
      </trkpt>
      <trkpt lat="45.180713664740324" lon="7.079861601814628">
        <ele>2269.04</ele>
        <time>2022-08-07T10:49:09Z</time>
      </trkpt>
      <trkpt lat="45.180710144340992" lon="7.079891860485077">
        <ele>2268.6900000000001</ele>
        <time>2022-08-07T10:49:12Z</time>
      </trkpt>
      <trkpt lat="45.180631438270211" lon="7.079983809962869">
        <ele>2266.1199999999999</ele>
        <time>2022-08-07T10:49:24Z</time>
      </trkpt>
      <trkpt lat="45.180586511269212" lon="7.080008033663034">
        <ele>2265.3899999999999</ele>
        <time>2022-08-07T10:49:29Z</time>
      </trkpt>
      <trkpt lat="45.180541584268212" lon="7.080040723085403">
        <ele>2263.6599999999999</ele>
        <time>2022-08-07T10:49:34Z</time>
      </trkpt>
      <trkpt lat="45.180468745529652" lon="7.08014314994216">
        <ele>2261.27</ele>
        <time>2022-08-07T10:49:49Z</time>
      </trkpt>
      <trkpt lat="45.180454077199101" lon="7.080179443582892">
        <ele>2260.9200000000001</ele>
        <time>2022-08-07T10:50:00Z</time>
      </trkpt>
      <trkpt lat="45.180436642840505" lon="7.080225795507431">
        <ele>2257.8600000000001</ele>
        <time>2022-08-07T10:50:09Z</time>
      </trkpt>
      <trkpt lat="45.180394649505615" lon="7.080255383625627">
        <ele>2255.4200000000001</ele>
        <time>2022-08-07T10:50:20Z</time>
      </trkpt>
      <trkpt lat="45.180388195440173" lon="7.080315398052335">
        <ele>2253.7800000000002</ele>
        <time>2022-08-07T10:50:32Z</time>
      </trkpt>
      <trkpt lat="45.180309657007456" lon="7.08034691400826">
        <ele>2251.3499999999999</ele>
        <time>2022-08-07T10:50:43Z</time>
      </trkpt>
      <trkpt lat="45.180245954543352" lon="7.080387230962515">
        <ele>2248.1199999999999</ele>
        <time>2022-08-07T10:50:53Z</time>
      </trkpt>
      <trkpt lat="45.180152580142021" lon="7.0804329123348">
        <ele>2245.3099999999999</ele>
        <time>2022-08-07T10:51:05Z</time>
      </trkpt>
      <trkpt lat="45.180048560723662" lon="7.080494519323111">
        <ele>2242.5900000000001</ele>
        <time>2022-08-07T10:51:19Z</time>
      </trkpt>
      <trkpt lat="45.179976643994451" lon="7.080559143796563">
        <ele>2239.8699999999999</ele>
        <time>2022-08-07T10:51:33Z</time>
      </trkpt>
      <trkpt lat="45.179939595982432" lon="7.080646064132452">
        <ele>2237.0700000000002</ele>
        <time>2022-08-07T10:51:45Z</time>
      </trkpt>
      <trkpt lat="45.179929034784436" lon="7.080684620887041">
        <ele>2236.4699999999998</ele>
        <time>2022-08-07T10:51:48Z</time>
      </trkpt>
      <trkpt lat="45.179847059771419" lon="7.080733822658658">
        <ele>2233.3800000000001</ele>
        <time>2022-08-07T10:52:02Z</time>
      </trkpt>
      <trkpt lat="45.179777657613158" lon="7.080725356936455">
        <ele>2231.0100000000002</ele>
        <time>2022-08-07T10:52:12Z</time>
      </trkpt>
      <trkpt lat="45.179696856066585" lon="7.080776318907738">
        <ele>2228.5700000000002</ele>
        <time>2022-08-07T10:52:23Z</time>
      </trkpt>
      <trkpt lat="45.179649498313665" lon="7.080786628648639">
        <ele>2226.96</ele>
        <time>2022-08-07T10:52:29Z</time>
      </trkpt>
      <trkpt lat="45.179579928517342" lon="7.080794339999557">
        <ele>2225.4299999999998</ele>
        <time>2022-08-07T10:52:43Z</time>
      </trkpt>
      <trkpt lat="45.17957984469831" lon="7.080794339999557">
        <ele>2225.1999999999998</ele>
        <time>2022-08-07T10:53:04Z</time>
      </trkpt>
      <trkpt lat="45.179578335955739" lon="7.080788724124432">
        <ele>2224.8099999999999</ele>
        <time>2022-08-07T10:53:23Z</time>
      </trkpt>
      <trkpt lat="45.179571965709329" lon="7.080800039693713">
        <ele>2224.71</ele>
        <time>2022-08-07T10:53:29Z</time>
      </trkpt>
      <trkpt lat="45.179420169442892" lon="7.080977149307728">
        <ele>2221.4499999999998</ele>
        <time>2022-08-07T10:53:47Z</time>
      </trkpt>
      <trkpt lat="45.179322771728039" lon="7.081104638054967">
        <ele>2219.9400000000001</ele>
        <time>2022-08-07T10:54:01Z</time>
      </trkpt>
      <trkpt lat="45.17923241481185" lon="7.081247717142105">
        <ele>2217.54</ele>
        <time>2022-08-07T10:54:16Z</time>
      </trkpt>
      <trkpt lat="45.17918698489666" lon="7.081311335787177">
        <ele>2217.27</ele>
        <time>2022-08-07T10:54:27Z</time>
      </trkpt>
      <trkpt lat="45.179132502526045" lon="7.081394484266639">
        <ele>2215.8000000000002</ele>
        <time>2022-08-07T10:54:39Z</time>
      </trkpt>
      <trkpt lat="45.179124623537064" lon="7.081429352983832">
        <ele>2215.0300000000002</ele>
        <time>2022-08-07T10:54:49Z</time>
      </trkpt>
      <trkpt lat="45.17906041815877" lon="7.081516021862626">
        <ele>2211.9499999999998</ele>
        <time>2022-08-07T10:55:03Z</time>
      </trkpt>
      <trkpt lat="45.178998727351427" lon="7.081601517274976">
        <ele>2209.6799999999998</ele>
        <time>2022-08-07T10:55:15Z</time>
      </trkpt>
      <trkpt lat="45.179003840312362" lon="7.081691455096006">
        <ele>2208.3099999999999</ele>
        <time>2022-08-07T10:55:28Z</time>
      </trkpt>
      <trkpt lat="45.178977185860276" lon="7.081714170053601">
        <ele>2206.5700000000002</ele>
        <time>2022-08-07T10:55:38Z</time>
      </trkpt>
      <trkpt lat="45.178927564993501" lon="7.081773262470961">
        <ele>2205.1300000000001</ele>
        <time>2022-08-07T10:55:51Z</time>
      </trkpt>
      <trkpt lat="45.178777361288667" lon="7.08180109038949">
        <ele>2203.4400000000001</ele>
        <time>2022-08-07T10:56:08Z</time>
      </trkpt>
      <trkpt lat="45.178732266649604" lon="7.081782650202513">
        <ele>2203.1399999999999</ele>
        <time>2022-08-07T10:56:18Z</time>
      </trkpt>
      <trkpt lat="45.178694296628237" lon="7.081770580261946">
        <ele>2203.3699999999999</ele>
        <time>2022-08-07T10:56:30Z</time>
      </trkpt>
      <trkpt lat="45.178678203374147" lon="7.081765132024884">
        <ele>2203.25</ele>
        <time>2022-08-07T10:56:54Z</time>
      </trkpt>
      <trkpt lat="45.178681053221226" lon="7.081696400418878">
        <ele>2203.77</ele>
        <time>2022-08-07T10:57:06Z</time>
      </trkpt>
      <trkpt lat="45.178737211972475" lon="7.081554075703025">
        <ele>2203</ele>
        <time>2022-08-07T10:57:30Z</time>
      </trkpt>
      <trkpt lat="45.178719023242593" lon="7.081555835902691">
        <ele>2204.8000000000002</ele>
        <time>2022-08-07T10:57:36Z</time>
      </trkpt>
      <trkpt lat="45.178721453994513" lon="7.08156262524426">
        <ele>2203.2800000000002</ele>
        <time>2022-08-07T10:57:41Z</time>
      </trkpt>
      <trkpt lat="45.178718771785498" lon="7.081571593880653">
        <ele>2203.3000000000002</ele>
        <time>2022-08-07T10:57:42Z</time>
      </trkpt>
      <trkpt lat="45.178705528378487" lon="7.08157972432673">
        <ele>2203.1500000000001</ele>
        <time>2022-08-07T10:57:57Z</time>
      </trkpt>
    </trkseg>
  </trk>

</gpx>